Date StartTime U_cm/s V_cm/s W_cm/s Ustd_cm/s Vstd_cm/s Wstd_cm/s Uvar_(cm/s)^2 Vvar_(cm/s)^2 Wvar_(cm/s)^2 KE_(m/s)^2 TurbulentKE_(m/s)^2 HorizWindSpeed_cm/s FrictionSpeec_cm/s DragCoef SpeedOfSound_m/s SonicTemperature_C Pressure_mb 
08/26/2014  00:00:00      -98.546      -42.475       -1.438       19.798       13.747        9.698      391.965      188.971       94.060        0.610        0.034      107.310       10.804        0.010      342.568       18.070      862.131
08/26/2014  00:01:00      -92.965      -56.297        0.394       22.539       14.410       12.185      508.025      207.660      148.465        0.634        0.043      108.683       10.720        0.010      342.592       18.109      862.131
08/26/2014  00:02:00      -70.249      -43.913        2.248       24.881       21.514       16.614      619.073      462.835      276.012        0.411        0.068       82.844       13.708        0.027      342.566       18.065      862.135
08/26/2014  00:03:00      -40.141      -28.888        5.288       34.883       23.072       13.635     1216.847      532.332      185.913        0.220        0.097       49.455       18.059        0.133      342.540       18.022      862.137
08/26/2014  00:04:00      -56.794      -43.948       -0.536       25.292       23.943       12.465      639.670      573.276      155.383        0.326        0.068       71.812       11.132        0.024      342.568       18.068      862.141
08/26/2014  00:05:00      -77.848      -32.275        3.593       17.095       12.047       10.254      292.252      145.122      105.145        0.383        0.027       84.273        9.803        0.014      342.544       18.030      862.155
08/26/2014  00:06:00      -21.365      -24.396        6.068       24.647       17.262       16.247      607.485      297.989      263.978        0.113        0.058       32.429       16.299        0.253      342.505       17.960      862.155
08/26/2014  00:07:00      -32.099      -30.505       -0.219       30.207       21.589       13.084      912.475      466.096      171.178        0.176        0.077       44.282       13.646        0.095      342.439       17.850      862.165
08/26/2014  00:08:00      -66.231      -32.869       -2.943       40.410       21.434       17.000     1632.991      459.412      288.987        0.393        0.119       73.939       19.993        0.073      342.459       17.884      862.177
08/26/2014  00:09:00      -82.619      -20.843        0.212       22.920       31.617       14.467      525.332      999.617      209.292        0.450        0.087       85.207       11.457        0.018      342.343       17.687      862.186
08/26/2014  00:10:00      -80.838        4.516       -5.263       27.036       20.350       15.291      730.958      414.137      233.829        0.398        0.069       80.964       15.854        0.038      342.099       17.272      862.185
08/26/2014  00:11:00      -88.488       -8.124       -6.043       19.325       17.849       12.527      373.461      318.574      156.919        0.439        0.042       88.861        8.664        0.010      342.108       17.287      862.183
08/26/2014  00:12:00      -82.915      -31.161        3.065       30.439       18.741       15.184      926.511      351.231      230.551        0.468        0.075       88.578       14.580        0.027      342.152       17.362      862.174
08/26/2014  00:13:00     -102.567      -40.158        5.204       31.319       29.414       15.682      980.882      865.205      245.940        0.713        0.105      110.149       14.179        0.017      342.222       17.481      862.160
08/26/2014  00:14:00      -94.035      -64.790        7.678       51.242       35.831       28.762     2625.720     1283.845      827.250        0.892        0.237      114.195       30.792        0.073      342.276       17.571      862.153
08/26/2014  00:15:00      -99.230      -64.095        3.990       57.074       35.187       23.598     3257.413     1238.105      556.844        0.951        0.253      118.131       27.770        0.055      342.233       17.499      862.152
08/26/2014  00:16:00      -96.015      -47.823       -0.464       29.651       27.118       20.316      879.163      735.412      412.732        0.677        0.101      107.266       15.791        0.022      342.218       17.473      862.155
08/26/2014  00:17:00      -98.066      -48.167        1.768       46.145       22.943       17.454     2129.357      526.369      304.641        0.745        0.148      109.256       17.080        0.024      342.188       17.424      862.146
08/26/2014  00:18:00      -74.966      -50.413        5.985       31.659       23.540       19.808     1002.301      554.129      392.345        0.507        0.097       90.340       13.261        0.022      342.128       17.323      862.138
08/26/2014  00:19:00      -98.521      -40.998        0.660       41.866       21.739       21.452     1752.753      472.596      460.201        0.704        0.134      106.711       15.230        0.020      342.082       17.242      862.125
08/26/2014  00:20:00      -96.962      -68.723       -0.351       50.413       38.988       22.686     2541.498     1520.034      514.642        0.935        0.229      118.847       20.630        0.030      342.094       17.264      862.117
08/26/2014  00:21:00     -112.051      -28.948        7.192       38.194       44.837       27.266     1458.762     2010.314      743.430        0.883        0.211      115.730       26.886        0.054      341.994       17.092      862.116
08/26/2014  00:22:00     -124.378      -66.020        2.597       53.291       47.825       26.585     2839.965     2287.184      706.751        1.283        0.292      140.814       28.700        0.042      342.006       17.113      862.117
08/26/2014  00:23:00     -127.515      -53.461        1.560       57.068       38.338       24.395     3256.701     1469.836      595.118        1.222        0.266      138.268       25.762        0.035      341.952       17.023      862.115
08/26/2014  00:24:00     -179.222      -74.199       -3.105       67.780       44.451       30.813     4594.097     1975.927      949.424        2.258        0.376      193.974       31.279        0.026      341.942       17.003      862.121
08/26/2014  00:25:00     -170.885      -51.007       -6.873       44.221       40.004       29.071     1955.477     1600.310      845.114        1.812        0.220      178.335       24.562        0.019      341.884       16.906      862.129
08/26/2014  00:26:00     -107.472      -20.979        0.852       51.641       43.449       27.188     2666.793     1887.806      739.166        0.864        0.265      109.501       25.886        0.056      341.743       16.668      862.146
08/26/2014  00:27:00     -118.677      -17.109       -2.053       47.427       42.543       27.918     2249.328     1809.883      779.424        0.961        0.242      119.903       26.937        0.050      341.701       16.596      862.158
08/26/2014  00:28:00     -149.817      -14.557      -11.934       44.566       31.248       22.120     1986.089      976.417      489.282        1.312        0.173      150.522       21.579        0.021      341.643       16.498      862.165
08/26/2014  00:29:00     -128.429      -29.763      -12.246       37.986       40.707       24.517     1442.916     1657.047      601.066        1.061        0.185      131.833       19.314        0.021      341.602       16.427      862.168
08/26/2014  00:30:00     -126.463      -23.292      -12.053       37.528       37.233       24.567     1408.315     1386.290      603.523        1.004        0.170      128.590       19.881        0.024      341.615       16.451      862.182
08/26/2014  00:31:00     -118.854      -43.460      -25.627       44.148       34.741       26.876     1949.038     1206.950      722.332        1.027        0.194      126.551       21.624        0.029      341.584       16.397      862.176
08/26/2014  00:32:00      -51.720      -22.114        3.968       40.730       27.794       19.950     1658.911      772.485      397.995        0.300        0.141       56.250       22.937        0.166      341.527       16.300      862.161
08/26/2014  00:33:00      -84.055      -18.244        0.478       26.629       37.387       21.351      709.078     1397.824      455.853        0.498        0.128       86.012        9.814        0.013      341.553       16.343      862.168
08/26/2014  00:34:00      -65.764       -5.451       -2.064       29.873       20.640       17.876      892.398      426.029      319.540        0.300        0.082       65.989        8.783        0.018      341.592       16.410      862.166
08/26/2014  00:35:00      -61.819      -45.413       -6.570       24.849       21.762       17.456      617.462      473.571      304.708        0.366        0.070       76.706        8.917        0.014      341.583       16.395      862.154
08/26/2014  00:36:00      -60.812      -44.759       -5.922       15.617       22.241       13.532      243.889      494.681      183.106        0.333        0.046       75.508        4.280        0.003      341.545       16.330      862.153
08/26/2014  00:37:00      -36.684      -31.117       -2.037       26.810       17.259       15.360      718.762      297.881      235.932        0.179        0.063       48.104        8.944        0.035      341.556       16.350      862.161
08/26/2014  00:38:00      -77.061      -35.217       -9.703       15.464       13.677       11.929      239.131      187.072      142.310        0.392        0.028       84.727        8.385        0.010      341.504       16.263      862.151
08/26/2014  00:39:00      -89.644      -16.157      -10.955       13.558       12.741       10.069      183.812      162.340      101.394        0.443        0.022       91.088        7.664        0.007      341.500       16.256      862.142
08/26/2014  00:40:00      -90.616      -29.786       -6.345       13.522       12.065       11.909      182.848      145.570      141.822        0.480        0.024       95.386        7.665        0.006      341.563       16.362      862.155
08/26/2014  00:41:00      -84.595      -48.189        4.448       31.618       22.801       18.929      999.688      519.883      358.300        0.569        0.094       97.358       18.107        0.035      341.536       16.316      862.151
08/26/2014  00:42:00      -72.090      -52.594        2.205       32.278       27.484       18.360     1041.888      755.368      337.074        0.505        0.107       89.237       16.621        0.035      341.681       16.561      862.147
08/26/2014  00:43:00      -65.270      -52.958        2.551       45.283       32.576       22.590     2050.595     1061.192      510.318        0.535        0.181       84.052       25.247        0.090      341.749       16.678      862.147
08/26/2014  00:44:00      -73.587      -46.406       11.176       40.607       23.515       18.536     1648.943      552.954      343.570        0.512        0.127       86.997       17.200        0.039      341.746       16.673      862.137
08/26/2014  00:45:00      -76.350      -46.483        6.424       38.711       27.461       16.724     1498.526      754.104      279.702        0.528        0.127       89.387       17.694        0.039      341.703       16.599      862.138
08/26/2014  00:46:00      -43.761      -36.387       -1.291       41.173       24.856       21.353     1695.207      617.811      455.958        0.300        0.138       56.913       17.611        0.096      341.670       16.544      862.154
08/26/2014  00:47:00      -84.778      -16.246       -2.960       27.145       22.215       15.090      736.837      493.495      227.720        0.446        0.073       86.320        8.925        0.011      341.597       16.420      862.165
08/26/2014  00:48:00      -80.456      -50.651       -3.478       37.876       24.532       17.401     1434.587      601.817      302.788        0.569        0.117       95.072       14.483        0.023      341.497       16.250      862.181
08/26/2014  00:49:00      -60.246      -36.904       -3.385       40.777       28.289       19.871     1662.783      800.294      394.843        0.393        0.143       70.650       22.511        0.102      341.363       16.024      862.210
08/26/2014  00:50:00      -99.695      -26.774      -11.691       11.358       14.905       10.456      129.004      222.150      109.338        0.563        0.023      103.228        7.217        0.005      341.306       15.926      862.232
08/26/2014  00:51:00     -115.944      -50.688       -8.100       19.394       18.726       11.223      376.131      350.659      125.948        0.847        0.043      126.539        8.075        0.004      341.306       15.927      862.248
08/26/2014  00:52:00      -83.672      -81.936        3.065       33.984       41.358       19.373     1154.904     1710.501      375.324        0.848        0.162      117.109       16.462        0.020      341.338       15.981      862.273
08/26/2014  00:53:00      -57.641      -64.930        6.180       31.465       31.690       22.827      990.067     1004.228      521.083        0.505        0.126       86.824       15.244        0.031      341.387       16.064      862.292
08/26/2014  00:54:00     -101.864      -60.666       10.253       57.407       35.897       25.093     3295.601     1288.609      629.662        0.969        0.261      118.561       23.724        0.040      341.425       16.127      862.296
08/26/2014  00:55:00     -118.114      -75.786       -0.041       46.906       37.969       31.079     2200.199     1441.671      965.890        1.215        0.230      140.336       23.318        0.028      341.414       16.109      862.303
08/26/2014  00:56:00      -75.757      -64.861        4.788       48.211       35.294       19.653     2324.283     1245.693      386.238        0.696        0.198       99.730       17.931        0.032      341.422       16.123      862.312
08/26/2014  00:57:00      -99.381      -58.799       -1.926       34.191       24.370       21.716     1169.013      593.915      471.582        0.779        0.112      115.473       18.933        0.027      341.480       16.221      862.328
08/26/2014  00:58:00      -89.846      -54.572       -0.780       42.600       22.251       19.843     1814.718      495.091      393.756        0.688        0.135      105.121       18.900        0.032      341.503       16.261      862.339
08/26/2014  00:59:00      -41.023      -47.164        0.087       24.029       26.694       12.504      577.401      712.579      156.358        0.268        0.072       62.509        8.742        0.020      341.524       16.295      862.351
08/26/2014  01:00:00      -53.877      -19.571        6.538       30.385       15.660       16.185      923.224      245.225      261.962        0.238        0.072       57.322       17.275        0.091      341.465       16.197      862.371
08/26/2014  01:01:00      -71.606      -38.762       -7.795       20.150       18.579       14.118      406.025      345.195      199.306        0.382        0.048       81.424        7.186        0.008      341.556       16.351      862.362
08/26/2014  01:02:00      -92.349      -24.624       -5.594       14.521       12.372        9.179      210.870      153.075       84.251        0.481        0.022       95.575        9.174        0.009      341.484       16.227      862.360
08/26/2014  01:03:00      -86.439      -27.430       -6.958       15.532       17.649        9.879      241.249      311.478       97.601        0.446        0.033       90.687        6.446        0.005      341.441       16.156      862.375
08/26/2014  01:04:00      -76.268      -16.397       -1.719       28.088       20.152       14.961      788.934      406.121      223.826        0.375        0.071       78.011       14.232        0.033      341.371       16.038      862.382
08/26/2014  01:05:00      -90.720       -2.949       -3.288       35.232       21.864       16.983     1241.308      478.039      288.415        0.513        0.100       90.768       18.800        0.043      341.274       15.873      862.376
08/26/2014  01:06:00      -95.042      -17.344       -2.412       26.861       21.917       16.441      721.490      480.368      270.316        0.541        0.074       96.611       15.446        0.026      341.208       15.761      862.384
08/26/2014  01:07:00      -97.693      -37.057       -0.171       29.570       22.476       16.651      874.405      505.175      277.250        0.629        0.083      104.485       16.027        0.024      341.272       15.870      862.398
08/26/2014  01:08:00      -74.407      -50.008        3.107       33.259       27.026       20.805     1106.164      730.411      432.852        0.516        0.113       89.650       21.290        0.056      341.361       16.020      862.393
08/26/2014  01:09:00      -52.054      -29.909        4.633       44.111       29.480       19.698     1945.745      869.097      388.001        0.341        0.160       60.035       20.944        0.122      341.352       16.007      862.384
08/26/2014  01:10:00      -48.701      -47.109        0.102       31.273       23.587       15.366      977.986      556.332      236.102        0.318        0.089       67.757       11.393        0.028      341.404       16.091      862.382
08/26/2014  01:11:00      -39.161      -20.098        7.176       26.484       23.624       15.161      701.378      558.104      229.859        0.174        0.074       44.017       11.615        0.070      341.407       16.097      862.388
08/26/2014  01:12:00      -11.293       -4.443        1.550       12.722       20.647        8.575      161.861      426.301       73.525        0.041        0.033       12.135        6.425        0.280      341.429       16.136      862.383
08/26/2014  01:13:00      -43.833        0.859        0.006       20.069       10.021        8.811      402.748      100.421       77.630        0.125        0.029       43.841        9.418        0.046      341.394       16.077      862.390
08/26/2014  01:14:00      -60.203       -1.233      -11.740       13.689       13.056       10.804      187.382      170.451      116.724        0.212        0.024       60.216        8.275        0.019      341.416       16.114      862.395
08/26/2014  01:15:00      -45.533      -22.401       -9.894        9.828        9.290        6.357       96.582       86.298       40.417        0.145        0.011       50.745        3.514        0.005      341.426       16.132      862.404
08/26/2014  01:16:00      -61.600      -23.067      -15.506       10.916       11.690        7.622      119.154      136.658       58.100        0.244        0.016       65.778        5.202        0.006      341.417       16.116      862.399
08/26/2014  01:17:00      -85.314      -10.607       -8.922       14.072       10.911       10.995      198.023      119.048      120.894        0.395        0.022       85.971        7.048        0.007      341.278       15.881      862.395
08/26/2014  01:18:00      -96.659      -26.007       -2.615       24.953       17.596       17.073      622.673      309.624      291.473        0.562        0.061      100.096       11.968        0.014      341.307       15.929      862.391
08/26/2014  01:19:00      -80.522      -53.819        2.012       33.783       20.559       16.867     1141.314      422.653      284.511        0.562        0.092       96.852        9.301        0.009      341.312       15.939      862.409
08/26/2014  01:20:00      -54.394      -37.624        2.298       38.153       37.486       21.684     1455.630     1405.212      470.188        0.385        0.167       66.138       18.738        0.080      341.237       15.811      862.412
08/26/2014  01:21:00      -76.641      -40.834        5.192       45.084       25.086       25.410     2032.560      629.314      645.689        0.544        0.165       86.841       22.052        0.064      341.175       15.704      862.414
08/26/2014  01:22:00      -70.986      -43.880        2.907       41.432       36.244       24.302     1716.637     1313.623      590.588        0.530        0.181       83.454       22.320        0.072      341.203       15.753      862.410
08/26/2014  01:23:00      -78.752      -50.081       -2.180       29.844       19.642       16.174      890.689      385.817      261.583        0.513        0.077       93.327       13.853        0.022      341.230       15.799      862.405
08/26/2014  01:24:00      -53.352      -37.704       -0.958       38.756       18.162       17.099     1501.994      329.860      292.379        0.320        0.106       65.330       18.900        0.084      341.215       15.772      862.397
08/26/2014  01:25:00      -39.900      -27.085        5.418       38.331       29.108       18.135     1469.299      847.261      328.888        0.250        0.132       48.225       13.618        0.080      341.201       15.748      862.388
08/26/2014  01:26:00      -61.027      -75.136        5.416       45.772       28.995       21.127     2095.093      840.736      446.330        0.639        0.169       96.798       22.580        0.054      341.220       15.782      862.376
08/26/2014  01:27:00      -83.389      -78.297        2.192       35.080       36.287       25.952     1230.615     1316.732      673.515        0.815        0.161      114.386       15.459        0.018      341.256       15.842      862.359
08/26/2014  01:28:00      -78.847      -67.236        0.668       35.844       25.540       21.769     1284.790      652.298      473.901        0.657        0.121      103.622       17.352        0.028      341.256       15.842      862.355
08/26/2014  01:29:00      -54.373      -30.633        5.032       33.608       19.907       20.684     1129.525      396.307      427.842        0.294        0.098       62.408       18.753        0.090      341.239       15.814      862.352
08/26/2014  01:30:00      -74.280      -64.055       -2.433       34.514       32.447       19.089     1191.235     1052.779      364.397        0.612        0.130       98.084       15.961        0.026      341.246       15.826      862.373
08/26/2014  01:31:00      -52.545      -44.920       11.071       52.067       27.559       26.653     2710.960      759.495      710.396        0.454        0.209       69.129       25.504        0.136      341.194       15.738      862.373
08/26/2014  01:32:00      -87.441      -84.420       -9.609       49.337       43.880       28.348     2434.109     1925.438      803.623        1.001        0.258      121.542       30.032        0.061      341.193       15.737      862.377
08/26/2014  01:33:00      -99.337      -81.463      -10.184       43.300       38.030       23.348     1874.852     1446.280      545.135        1.024        0.193      128.468       19.832        0.024      341.172       15.701      862.394
08/26/2014  01:34:00     -107.585     -104.483       -3.386       48.912       45.915       30.848     2392.345     2108.179      951.629        1.398        0.273      149.970       18.141        0.015      341.132       15.632      862.412
08/26/2014  01:35:00     -105.430     -109.538      -16.207       53.205       45.662       25.102     2830.738     2085.047      630.132        1.446        0.277      152.034       14.043        0.009      341.135       15.637      862.420
08/26/2014  01:36:00     -151.417     -103.900       -6.437       54.846       53.188       29.285     3008.112     2828.937      857.584        2.023        0.335      183.637       24.899        0.018      341.072       15.530      862.426
08/26/2014  01:37:00     -162.028      -94.410       -1.618       70.478       45.496       30.184     4967.176     2069.919      911.075        2.156        0.397      187.527       33.121        0.031      341.044       15.481      862.419
08/26/2014  01:38:00     -148.586      -71.512       -4.886       43.091       44.549       30.876     1856.800     1984.596      953.347        1.600        0.240      164.899       27.447        0.028      341.043       15.481      862.423
08/26/2014  01:39:00     -110.482      -57.972        1.422       38.427       33.736       23.672     1476.603     1138.116      560.346        0.937        0.159      124.767       19.453        0.024      341.033       15.465      862.434
08/26/2014  01:40:00     -123.852      -40.004       -3.839       29.405       35.387       21.013      864.653     1252.217      441.560        0.976        0.128      130.153       17.321        0.018      341.034       15.465      862.435
08/26/2014  01:41:00      -76.127      -50.641        0.079       55.244       36.758       23.877     3051.895     1351.169      570.096        0.667        0.249       91.432       22.039        0.058      341.085       15.552      862.426
08/26/2014  01:42:00      -98.597      -91.903       -4.187       49.073       42.280       26.942     2408.192     1787.566      725.856        1.155        0.246      134.786       23.609        0.031      341.105       15.587      862.422
08/26/2014  01:43:00     -116.083      -63.760       -9.940       18.484       28.226       10.472      341.659      796.681      109.666        0.944        0.062      132.441        5.624        0.002      341.150       15.664      862.417
08/26/2014  01:44:00      -92.848      -96.879       -9.587       16.051       16.452       13.893      257.630      270.656      193.016        0.941        0.036      134.188       10.303        0.006      341.164       15.687      862.424
08/26/2014  01:45:00      -80.118      -70.858      -13.025       19.255       14.564       11.740      370.773      212.124      137.820        0.616        0.036      106.957        3.967        0.001      341.175       15.705      862.434
08/26/2014  01:46:00      -78.387      -46.158       -1.799       25.811       23.990       16.490      666.203      575.509      271.930        0.490        0.076       90.968       12.837        0.020      341.117       15.607      862.436
08/26/2014  01:47:00      -42.252      -31.419        2.175       38.130       23.000       18.203     1453.933      529.009      331.347        0.255        0.116       52.653       13.507        0.066      341.046       15.487      862.444
08/26/2014  01:48:00      -72.994      -57.868        1.704       32.441       36.314       20.071     1052.448     1318.708      402.839        0.573        0.139       93.149       16.402        0.031      341.092       15.564      862.450
08/26/2014  01:49:00      -70.958      -73.131        2.500       42.415       35.694       19.090     1799.069     1274.059      364.440        0.691        0.172      101.898       16.073        0.025      341.072       15.531      862.459
08/26/2014  01:50:00     -122.250      -91.846       -6.049       31.226       43.398       16.721      975.043     1883.390      279.586        1.328        0.157      152.908       14.839        0.009      341.103       15.583      862.453
08/26/2014  01:51:00      -91.174      -79.870       -1.112       28.102       32.512       16.865      789.744     1057.057      284.414        0.841        0.107      121.210       11.578        0.009      341.118       15.609      862.439
08/26/2014  01:52:00      -96.768      -47.897        5.987       60.373       38.548       29.928     3644.872     1485.940      895.695        0.886        0.301      107.973       33.551        0.097      341.084       15.550      862.439
08/26/2014  01:53:00      -84.159      -52.416        6.777       54.013       45.298       28.699     2917.362     2051.898      823.640        0.783        0.290       99.147       32.894        0.110      341.090       15.563      862.432
08/26/2014  01:54:00      -80.531      -47.008        1.229       48.826       30.732       23.749     2383.933      944.460      564.029        0.629        0.195       93.247       24.230        0.068      341.093       15.567      862.415
08/26/2014  01:55:00     -108.653      -54.973       -1.202       41.228       24.952       22.357     1699.715      622.589      499.836        0.882        0.141      121.768       23.184        0.036      341.113       15.601      862.409
08/26/2014  01:56:00      -85.952      -63.835       -2.442       40.000       27.024       17.177     1599.987      730.317      295.041        0.705        0.131      107.064       18.465        0.030      341.097       15.572      862.404
08/26/2014  01:57:00      -93.500      -38.316       -0.968       21.062       25.937       10.954      443.596      672.726      119.990        0.572        0.062      101.046        8.209        0.007      341.110       15.596      862.418
08/26/2014  01:58:00     -102.764      -40.259       -1.095       17.138       19.688       13.814      293.700      387.633      190.819        0.653        0.044      110.369        8.023        0.005      341.107       15.590      862.420
08/26/2014  01:59:00      -86.582      -46.484       -2.383       21.373       20.036       14.211      456.822      401.446      201.962        0.536        0.053       98.271        7.191        0.005      341.082       15.549      862.416
08/26/2014  02:00:00      -81.347      -32.893       -2.455       30.742       23.390       14.070      945.099      547.106      197.977        0.470        0.085       87.745        7.374        0.007      340.991       15.394      862.410
08/26/2014  02:01:00      -97.057      -31.309       -1.220       21.043       17.517       12.338      442.795      306.830      152.225        0.565        0.045      101.982       11.850        0.014      341.020       15.444      862.421
08/26/2014  02:02:00      -68.810      -30.387        6.684       38.028       21.986       19.049     1446.116      483.395      362.872        0.400        0.115       75.221       19.322        0.066      340.900       15.239      862.419
08/26/2014  02:03:00      -45.387      -31.183        4.762       26.751       27.833       16.427      715.608      774.696      269.839        0.241        0.088       55.067       12.815        0.054      340.955       15.332      862.413
08/26/2014  02:04:00      -67.414      -47.952        1.211       43.367       23.855       16.991     1880.699      569.070      288.680        0.479        0.137       82.729       14.849        0.032      340.944       15.315      862.410
08/26/2014  02:05:00      -90.222      -48.831        7.492       41.604       31.943       20.975     1730.874     1020.344      439.953        0.689        0.160      102.589       17.896        0.030      340.904       15.245      862.414
08/26/2014  02:06:00     -108.969      -40.702        3.054       30.414       22.457       16.979      924.987      504.318      288.281        0.763        0.086      116.322       14.366        0.015      340.935       15.299      862.417
08/26/2014  02:07:00     -129.885      -47.240       -6.168       22.778       19.431       13.048      518.845      377.545      170.245        1.010        0.053      138.209        8.975        0.004      340.953       15.329      862.406
08/26/2014  02:08:00     -125.284      -69.800       -0.615       27.137       24.589       17.388      736.423      604.609      302.354        1.111        0.082      143.416       15.833        0.012      340.972       15.361      862.401
08/26/2014  02:09:00     -112.483      -58.410        0.858       42.560       31.108       17.839     1811.318      967.724      318.222        0.958        0.155      126.744       17.742        0.020      340.945       15.316      862.408
08/26/2014  02:10:00     -130.597      -48.964      -14.794       22.160       19.224       14.870      491.047      369.558      221.131        1.038        0.054      139.475        4.716        0.001      340.853       15.162      862.423
08/26/2014  02:11:00      -85.211      -45.216        0.007       36.766       30.946       22.252     1351.723      957.668      495.168        0.605        0.140       96.464       21.884        0.051      340.858       15.168      862.420
08/26/2014  02:12:00     -104.409      -44.377        0.923       39.220       36.458       25.115     1538.228     1329.205      630.749        0.818        0.175      113.449       20.553        0.033      340.818       15.101      862.421
08/26/2014  02:13:00     -116.697      -45.594       10.113       44.082       36.707       22.184     1943.263     1347.408      492.116        0.979        0.189      125.288       24.343        0.038      340.807       15.083      862.416
08/26/2014  02:14:00     -131.240      -54.099        0.992       38.019       30.294       18.291     1445.446      917.729      334.576        1.142        0.135      141.953       15.908        0.013      340.826       15.114      862.417
08/26/2014  02:15:00     -124.036      -18.183        2.595       43.660       31.846       21.413     1906.196     1014.183      458.501        0.955        0.169      125.362       18.564        0.022      340.709       14.917      862.420
08/26/2014  02:16:00     -128.125      -44.298        1.433       42.193       22.392       20.986     1780.217      501.405      440.426        1.055        0.136      135.567       19.774        0.021      340.704       14.909      862.411
08/26/2014  02:17:00     -117.906      -50.719        4.421       35.449       29.034       24.573     1256.598      842.967      603.827        0.960        0.135      128.352       22.448        0.031      340.697       14.896      862.404
08/26/2014  02:18:00     -130.206      -47.613        6.929       43.720       33.964       19.358     1911.472     1153.569      374.735        1.135        0.172      138.638       21.084        0.023      340.665       14.842      862.405
08/26/2014  02:19:00     -114.097      -54.247        4.393       35.239       32.874       24.276     1241.791     1080.698      589.337        0.945        0.146      126.336       17.363        0.019      340.658       14.831      862.413
08/26/2014  02:20:00      -78.450      -43.098       13.724       57.170       34.969       27.146     3268.381     1222.862      736.884        0.671        0.261       89.509       31.009        0.120      340.681       14.869      862.421
08/26/2014  02:21:00      -92.051      -41.141        6.712       48.464       27.066       22.359     2348.784      732.545      499.931        0.690        0.179      100.826       23.974        0.057      340.689       14.884      862.427
08/26/2014  02:22:00     -115.932      -56.306        4.902       43.352       30.484       26.216     1879.405      929.271      687.291        1.006        0.175      128.882       20.617        0.026      340.709       14.918      862.428
08/26/2014  02:23:00     -121.675      -54.248        9.533       45.690       31.987       21.862     2087.599     1023.163      477.952        1.071        0.179      133.220       22.689        0.029      340.657       14.828      862.430
08/26/2014  02:24:00     -135.247      -86.720        0.043       58.490       32.807       29.446     3421.063     1076.295      867.091        1.559        0.268      160.661       32.132        0.040      340.694       14.890      862.441
08/26/2014  02:25:00     -134.276      -62.308       -0.295       41.362       43.039       24.170     1710.849     1852.347      584.188        1.303        0.207      148.028       23.015        0.024      340.702       14.904      862.449
08/26/2014  02:26:00     -135.932      -57.647        0.251       36.116       42.152       26.021     1304.377     1776.781      677.108        1.278        0.188      147.650       22.900        0.024      340.727       14.946      862.451
08/26/2014  02:27:00     -103.405      -53.579        5.441       37.002       42.261       23.946     1369.155     1785.983      573.390        0.866        0.186      116.462       20.914        0.032      340.754       14.992      862.458
08/26/2014  02:28:00     -118.891      -79.183       -5.448       32.179       54.406       21.375     1035.461     2959.971      456.904        1.244        0.223      142.846       17.736        0.015      340.788       15.051      862.468
08/26/2014  02:29:00     -118.392      -77.196        4.797       48.543       53.047       19.758     2356.467     2814.014      390.386        1.278        0.278      141.336       24.174        0.029      340.791       15.055      862.471
08/26/2014  02:30:00     -109.080      -62.871        1.629       28.018       37.637       20.575      785.028     1416.561      423.320        0.924        0.131      125.901       20.017        0.025      340.798       15.066      862.464
08/26/2014  02:31:00      -75.456      -56.406        6.839       39.094       39.638       27.788     1528.367     1571.144      772.156        0.640        0.194       94.208       26.451        0.079      340.807       15.082      862.474
08/26/2014  02:32:00     -109.873      -99.501        0.942       37.582       36.011       28.725     1412.405     1296.784      825.150        1.275        0.177      148.231       23.884        0.026      340.826       15.114      862.471
08/26/2014  02:33:00      -64.085      -39.729        3.468       43.992       32.906       18.506     1935.260     1082.807      342.489        0.453        0.168       75.401       16.478        0.048      340.765       15.011      862.464
08/26/2014  02:34:00      -49.241      -37.119       10.985       39.473       30.343       19.171     1558.138      920.675      367.538        0.338        0.142       61.665       19.680        0.102      340.707       14.913      862.462
08/26/2014  02:35:00      -95.505      -97.558       -3.726       45.382       41.435       24.600     2059.555     1716.821      605.156        1.152        0.219      136.524       21.679        0.025      340.728       14.950      862.462
08/26/2014  02:36:00     -110.156      -74.354        2.343       35.892       52.925       26.698     1288.256     2801.060      712.799        1.123        0.240      132.902       21.528        0.026      340.660       14.833      862.463
08/26/2014  02:37:00     -101.932      -77.325       -6.767       38.199       39.824       20.581     1459.135     1585.983      423.577        0.994        0.173      127.943       12.034        0.009      340.646       14.811      862.458
08/26/2014  02:38:00     -130.518     -110.612       -8.355       68.749       44.660       36.025     4726.418     1994.510     1297.778        1.868        0.401      171.085       38.856        0.052      340.614       14.755      862.456
08/26/2014  02:39:00     -138.935     -105.925       -8.909       49.462       56.803       27.951     2446.450     3226.604      781.275        1.853        0.323      174.709       13.089        0.006      340.566       14.676      862.456
08/26/2014  02:40:00     -126.295      -65.077       -4.472       43.275       46.925       27.375     1872.740     2201.942      749.378        1.251        0.241      142.075       25.395        0.032      340.561       14.668      862.459
08/26/2014  02:41:00      -97.212      -99.307        3.750       42.178       39.824       28.944     1778.974     1585.952      837.757        1.176        0.210      138.968       23.819        0.029      340.564       14.673      862.479
08/26/2014  02:42:00     -124.326     -123.995       -6.695       58.301       73.019       31.201     3398.981     5331.722      973.528        2.029        0.485      175.590       22.334        0.016      340.565       14.672      862.484
08/26/2014  02:43:00     -114.256      -76.538       -3.223       64.150       49.855       28.361     4115.247     2485.565      804.353        1.316        0.370      137.523       29.168        0.045      340.551       14.650      862.489
08/26/2014  02:44:00     -104.354      -84.810      -18.957       60.459       45.829       33.536     3655.324     2100.305     1124.670        1.266        0.344      134.471       30.257        0.051      340.527       14.607      862.506
08/26/2014  02:45:00      -66.957      -66.353        1.321       50.083       44.831       27.810     2508.328     2009.831      773.398        0.709        0.265       94.265       16.684        0.031      340.529       14.612      862.524
08/26/2014  02:46:00      -88.405      -92.719        3.613       58.086       51.388       34.156     3373.947     2640.735     1166.638        1.180        0.359      128.110       31.398        0.060      340.468       14.509      862.525
08/26/2014  02:47:00      -94.125      -55.590        4.822       50.124       43.577       27.279     2512.393     1898.969      744.155        0.856        0.258      109.314       23.479        0.046      340.455       14.488      862.528
08/26/2014  02:48:00      -58.819      -62.068       -0.355       40.451       37.428       23.221     1636.317     1400.873      539.210        0.544        0.179       85.511       21.040        0.061      340.451       14.480      862.536
08/26/2014  02:49:00      -60.188      -77.499       -3.928       50.580       39.323       31.009     2558.385     1546.325      961.579        0.735        0.253       98.126       28.886        0.087      340.473       14.517      862.541
08/26/2014  02:50:00      -96.981      -56.535        1.010       77.165       53.058       33.049     5954.504     2815.192     1092.240        1.123        0.493      112.256       32.157        0.082      340.395       14.386      862.544
08/26/2014  02:51:00     -116.313     -116.091       -3.996       46.801       53.751       30.908     2190.294     2889.211      955.310        1.653        0.302      164.335       15.924        0.009      340.413       14.414      862.548
08/26/2014  02:52:00      -93.057      -61.446       -7.608       37.710       63.128       24.913     1422.048     3985.129      620.667        0.926        0.301      111.513       21.400        0.037      340.384       14.366      862.565
08/26/2014  02:53:00      -87.590      -50.054        5.460       39.228       37.112       25.442     1538.863     1377.335      647.315        0.688        0.178      100.883       19.980        0.039      340.358       14.324      862.561
08/26/2014  02:54:00     -100.553      -73.016       -0.444       51.556       60.624       25.223     2658.016     3675.211      636.178        1.120        0.348      124.267       20.750        0.028      340.341       14.294      862.557
08/26/2014  02:55:00     -112.178      -71.513        3.958       68.566       44.389       25.654     4701.346     1970.370      658.138        1.252        0.366      133.034       19.972        0.023      340.319       14.256      862.561
08/26/2014  02:56:00      -76.671      -94.837       -6.931       54.698       41.396       32.837     2991.850     1713.596     1078.253        1.035        0.289      121.953       25.828        0.045      340.379       14.360      862.561
08/26/2014  02:57:00     -117.705      -75.922      -10.531       34.868       27.831       29.768     1215.793      774.579      886.153        1.130        0.144      140.067       23.370        0.028      340.334       14.282      862.556
08/26/2014  02:58:00      -81.367      -73.693        6.532       46.578       47.508       20.223     2169.524     2257.001      408.955        0.846        0.242      109.778       21.560        0.039      340.338       14.289      862.568
08/26/2014  02:59:00     -118.976      -79.131       -5.697       37.130       46.795       25.029     1378.605     2189.735      626.464        1.232        0.210      142.888       22.229        0.024      340.294       14.215      862.576
08/26/2014  03:00:00     -139.502      -37.607      -14.639       22.442       33.008       19.736      503.627     1089.517      389.507        1.154        0.099      144.482       16.204        0.013      340.322       14.261      862.588
08/26/2014  03:01:00      -76.477      -32.460       -4.098       32.410       42.300       19.719     1050.389     1789.322      388.834        0.507        0.161       83.080       15.116        0.033      340.304       14.231      862.613
08/26/2014  03:02:00      -46.108      -56.337       -0.951       32.273       29.727       15.963     1041.552      883.716      254.812        0.374        0.109       72.800       15.141        0.043      340.331       14.277      862.624
08/26/2014  03:03:00      -34.896      -44.467       10.035       32.375       42.157       21.090     1048.162     1777.181      444.789        0.328        0.164       56.525       22.077        0.153      340.353       14.315      862.624
08/26/2014  03:04:00      -29.473      -31.796        5.640       25.848       15.945       15.149      668.098      254.255      229.490        0.153        0.058       43.355        8.182        0.036      340.374       14.351      862.625
08/26/2014  03:05:00      -26.176      -52.558        6.000       31.882       22.376       17.463     1016.493      500.691      304.961        0.265        0.091       58.715       21.388        0.133      340.382       14.365      862.636
08/26/2014  03:06:00      -39.468      -59.903       -9.463       24.836       31.712       15.931      616.822     1005.648      253.810        0.356        0.094       71.736       16.011        0.050      340.438       14.458      862.637
08/26/2014  03:07:00      -26.679      -34.852       -0.821       24.564       17.360       14.387      603.377      301.369      206.993        0.152        0.056       43.892       11.451        0.068      340.395       14.387      862.640
08/26/2014  03:08:00        6.446      -38.721       14.571       27.027       30.424       20.303      730.450      925.630      412.224        0.191        0.103       39.254       21.276        0.294      340.416       14.423      862.641
08/26/2014  03:09:00      -25.515      -43.884        3.881       46.656       41.932       19.808     2176.800     1758.300      392.345        0.346        0.216       50.762       21.727        0.183      340.382       14.364      862.652
08/26/2014  03:10:00      -93.260      -96.000       -4.098       22.319       23.634       19.736      498.128      558.544      389.523        0.969        0.072      133.841       14.700        0.012      340.308       14.238      862.656
08/26/2014  03:11:00      -98.501      -64.900       -5.015       35.469       32.850       21.981     1258.058     1079.129      483.155        0.838        0.141      117.959       20.855        0.031      340.323       14.265      862.651
08/26/2014  03:12:00      -87.776      -62.959       -1.242       35.665       20.702       18.864     1271.959      428.581      355.832        0.686        0.103      108.021       15.820        0.021      340.312       14.245      862.654
08/26/2014  03:13:00      -92.959      -51.436        6.001       53.572       29.955       21.802     2869.939      897.310      475.341        0.778        0.212      106.241       23.623        0.049      340.233       14.112      862.664
08/26/2014  03:14:00      -97.097      -67.778       -4.175       32.393       38.597       17.018     1049.330     1489.709      289.614        0.843        0.141      118.413       14.970        0.016      340.301       14.226      862.655
08/26/2014  03:15:00      -90.568      -50.642       -4.582       17.116       26.908       19.264      292.961      724.047      371.097        0.609        0.069      103.764       13.969        0.018      340.290       14.207      862.648
08/26/2014  03:16:00      -64.896      -42.886       -1.836       24.260       29.995       11.741      588.560      899.713      137.849        0.384        0.081       77.786        8.492        0.012      340.205       14.064      862.645
08/26/2014  03:17:00      -79.232        3.437       -5.790       24.001       21.010       16.417      576.041      441.425      269.513        0.380        0.064       79.307       15.659        0.039      340.053       13.810      862.644
08/26/2014  03:18:00      -78.239      -11.858       -4.365       21.659       16.475       14.523      469.124      271.419      210.920        0.362        0.048       79.133        9.215        0.014      339.965       13.660      862.652
08/26/2014  03:19:00      -73.710       -4.100       -4.087       31.341       20.887       14.290      982.230      436.247      204.196        0.354        0.081       73.824       14.329        0.038      339.977       13.681      862.648
08/26/2014  03:20:00      -77.079      -37.282        1.199       22.829       20.584       16.916      521.141      423.680      286.152        0.428        0.062       85.622       11.915        0.019      339.987       13.696      862.642
08/26/2014  03:21:00      -56.681      -14.260        5.229       40.338       23.986       18.879     1627.140      575.334      356.404        0.300        0.128       58.447       22.616        0.150      339.983       13.690      862.632
08/26/2014  03:22:00      -83.963      -29.478        0.609       31.336       27.030       15.466      981.934      730.635      239.187        0.494        0.098       88.987       15.257        0.029      340.034       13.776      862.626
08/26/2014  03:23:00      -66.764      -28.334        4.946       35.450       27.133       18.181     1256.681      736.190      330.549        0.380        0.116       72.527       19.550        0.073      340.040       13.787      862.626
08/26/2014  03:24:00      -77.587      -31.965        0.123       34.347       19.513       13.756     1179.746      380.759      189.225        0.440        0.087       83.914       17.220        0.042      340.045       13.796      862.627
08/26/2014  03:25:00      -79.808      -31.635       -3.312       27.832       25.510       18.852      774.631      650.767      355.408        0.458        0.089       85.849       16.703        0.038      339.973       13.674      862.623
08/26/2014  03:26:00      -74.816      -17.626       -0.592       32.432       20.748       13.981     1051.824      430.486      195.458        0.379        0.084       76.864       15.219        0.039      339.868       13.497      862.621
08/26/2014  03:27:00      -83.386      -21.597       -2.208       23.687       14.338       12.820      561.097      205.577      164.360        0.418        0.047       86.138       11.922        0.019      339.907       13.562      862.623
08/26/2014  03:28:00      -90.414      -29.672       -2.990       19.914       17.692       13.825      396.558      312.991      191.140        0.498        0.045       95.158        8.958        0.009      339.952       13.637      862.626
08/26/2014  03:29:00      -56.865      -28.626        7.481       30.280       18.858       12.736      916.881      355.623      162.198        0.277        0.072       63.664       12.379        0.038      339.956       13.645      862.632
08/26/2014  03:30:00      -47.453      -46.413        5.904       38.830       22.913       16.703     1507.742      525.017      278.979        0.338        0.116       66.377       14.071        0.045      340.073       13.842      862.624
08/26/2014  03:31:00      -69.554      -65.091        0.537       48.744       30.349       19.112     2375.996      921.058      365.259        0.637        0.183       95.261       18.311        0.037      340.054       13.811      862.620
08/26/2014  03:32:00      -74.016      -39.056        5.012       44.690       23.764       19.150     1997.159      564.726      366.729        0.498        0.146       83.688       18.971        0.051      340.033       13.775      862.618
08/26/2014  03:33:00     -101.296      -55.432        1.157       30.784       21.610       15.602      947.646      466.989      243.420        0.750        0.083      115.471       14.202        0.015      340.038       13.784      862.619
08/26/2014  03:34:00      -98.810      -56.547       -1.422       35.247       28.972       19.836     1242.378      839.357      393.471        0.772        0.124      113.846       19.268        0.029      339.987       13.697      862.628
08/26/2014  03:35:00      -89.864      -42.509        2.128       32.532       24.348       15.606     1058.362      592.804      243.537        0.589        0.095       99.411       11.857        0.014      339.978       13.681      862.635
08/26/2014  03:36:00     -102.735      -31.534        0.381       33.492       29.326       20.404     1121.690      860.011      416.343        0.697        0.120      107.465       17.521        0.027      339.915       13.576      862.643
08/26/2014  03:37:00     -101.675      -16.818        1.227       35.746       28.837       21.578     1277.798      831.561      465.605        0.660        0.129      103.056       18.030        0.031      339.779       13.346      862.653
08/26/2014  03:38:00     -104.288      -16.156        2.310       43.625       26.985       20.656     1903.100      728.173      426.651        0.710        0.153      105.532       21.049        0.040      339.674       13.170      862.671
08/26/2014  03:39:00     -124.433      -26.743       -2.431       35.299       30.985       22.240     1245.989      960.044      494.601        0.945        0.135      127.275       19.418        0.023      339.778       13.344      862.697
08/26/2014  03:40:00     -133.537      -51.444        4.821       31.444       23.683       16.741      988.711      560.880      280.259        1.117        0.091      143.104       17.878        0.016      339.754       13.305      862.722
08/26/2014  03:41:00     -122.994      -60.146        1.356       39.554       26.640       21.308     1564.537      709.690      454.020        1.074        0.136      136.912       18.573        0.018      339.779       13.347      862.736
08/26/2014  03:42:00     -116.246      -63.583        3.357       46.923       28.944       22.873     2201.789      837.753      523.183        1.056        0.178      132.499       22.564        0.029      339.802       13.384      862.740
08/26/2014  03:43:00      -89.982      -48.968        4.640       44.194       29.160       20.656     1953.143      850.283      426.690        0.687        0.162      102.443       23.291        0.052      339.862       13.486      862.732
08/26/2014  03:44:00      -55.979      -53.269        1.917       35.800       30.520       15.445     1281.664      931.455      238.558        0.421        0.123       77.274       13.108        0.029      339.996       13.714      862.733
08/26/2014  03:45:00      -73.032      -70.433        4.071       47.629       33.418       18.556     2268.482     1116.790      344.343        0.702        0.186      101.462       17.001        0.028      340.004       13.725      862.733
08/26/2014  03:46:00      -83.697      -79.859        0.085       23.754       23.516       17.803      564.249      552.995      316.960        0.741        0.072      115.684       15.430        0.018      339.989       13.701      862.719
08/26/2014  03:47:00      -80.856      -73.344       -3.493       34.330       24.338       19.702     1178.576      592.322      388.172        0.704        0.108      109.165       16.849        0.024      340.044       13.793      862.714
08/26/2014  03:48:00      -43.156      -36.982       10.238       47.891       30.314       21.411     2293.584      918.951      458.420        0.350        0.184       56.834       23.100        0.165      340.029       13.769      862.714
08/26/2014  03:49:00      -95.945      -68.828       -3.000       31.544       30.209       20.839      995.002      912.583      434.268        0.815        0.117      118.079       16.738        0.020      340.036       13.778      862.722
08/26/2014  03:50:00      -72.049      -68.133        2.838       39.494       37.142       29.077     1559.813     1379.508      845.459        0.681        0.189       99.163       28.290        0.081      340.011       13.738      862.731
08/26/2014  03:51:00      -90.006     -101.325       -4.641       38.857       40.693       25.262     1509.841     1655.897      638.192        1.110        0.190      135.528       16.341        0.015      340.009       13.734      862.731
08/26/2014  03:52:00      -66.865      -58.366        1.490       46.970       25.981       23.523     2206.225      675.021      553.354        0.566        0.172       88.755       24.896        0.079      339.998       13.715      862.745
08/26/2014  03:53:00      -78.962      -95.856       -2.886       34.446       39.386       19.498     1186.550     1551.225      380.166        0.927        0.156      124.191       17.104        0.019      339.996       13.714      862.762
08/26/2014  03:54:00      -61.076      -80.778        3.952       44.105       37.385       25.241     1945.254     1397.665      637.104        0.712        0.199      101.269       20.778        0.042      339.989       13.702      862.767
08/26/2014  03:55:00      -77.187      -65.338        0.677       34.307       28.200       23.578     1176.968      795.266      555.935        0.638        0.126      101.127       20.433        0.041      339.965       13.661      862.771
08/26/2014  03:56:00      -47.886      -33.174        4.664       46.055       25.079       17.154     2121.047      628.975      294.253        0.323        0.152       58.254       18.041        0.096      339.953       13.640      862.773
08/26/2014  03:57:00      -88.417      -75.661        2.484       36.855       25.810       23.783     1358.273      666.177      565.632        0.807        0.130      116.370       23.238        0.040      339.966       13.662      862.771
08/26/2014  03:58:00      -77.875      -55.747        0.039       43.740       51.707       24.152     1913.156     2673.594      583.336        0.717        0.259       95.772       24.702        0.067      339.926       13.595      862.764
08/26/2014  03:59:00      -79.935      -59.112        1.356       54.957       36.763       19.891     3020.224     1351.504      395.662        0.733        0.238       99.418       22.101        0.049      339.965       13.660      862.763
08/26/2014  04:00:00      -93.719      -35.744      -13.065       29.641       25.881       26.096      878.569      669.840      681.003        0.623        0.111      100.304       21.319        0.045      339.949       13.633      862.768
08/26/2014  04:01:00      -94.593      -70.199      -10.446       28.724       34.949       14.914      825.094     1221.465      222.440        0.813        0.113      117.795        7.668        0.004      339.957       13.647      862.773
08/26/2014  04:02:00      -58.615      -32.289        2.129       46.078       22.227       19.385     2123.223      494.040      375.778        0.374        0.150       66.920       15.931        0.057      339.931       13.603      862.777
08/26/2014  04:03:00      -47.249      -31.469        6.427       37.026       25.163       16.109     1370.899      633.194      259.509        0.276        0.113       56.769       15.052        0.070      339.897       13.546      862.782
08/26/2014  04:04:00      -94.101      -48.767       -1.973       27.972       21.200       17.459      782.441      449.429      304.829        0.639        0.077      105.987       13.236        0.016      339.882       13.519      862.789
08/26/2014  04:05:00      -83.821      -56.320        3.227       47.788       34.569       20.703     2283.687     1194.988      428.606        0.706        0.195      100.985       23.166        0.053      339.893       13.538      862.783
08/26/2014  04:06:00      -55.754      -51.199        8.254       43.085       31.206       21.533     1856.318      973.842      463.687        0.455        0.165       75.696       21.643        0.082      339.825       13.424      862.765
08/26/2014  04:07:00      -56.836      -53.534        2.800       47.666       33.576       24.380     2272.038     1127.365      594.362        0.505        0.200       78.078       23.595        0.091      339.819       13.414      862.756
08/26/2014  04:08:00      -82.643      -43.892        5.136       40.345       27.929       22.371     1627.737      780.013      500.481        0.584        0.145       93.575       23.928        0.065      339.782       13.353      862.764
08/26/2014  04:09:00      -89.834      -51.310        5.417       46.327       26.526       20.686     2146.188      703.650      427.923        0.700        0.164      103.455       19.474        0.035      339.790       13.366      862.769
08/26/2014  04:10:00     -115.762      -26.454       -2.583       27.293       23.160       16.441      744.889      536.382      270.306        0.783        0.078      118.746       12.741        0.012      339.787       13.359      862.776
08/26/2014  04:11:00      -74.625      -55.392        2.076       43.003       42.301       22.270     1849.223     1789.366      495.965        0.639        0.207       92.936       22.045        0.056      339.778       13.345      862.781
08/26/2014  04:12:00      -84.490      -51.837       -5.054       28.190       32.197       18.594      794.697     1036.618      345.719        0.601        0.109       99.125       17.721        0.032      339.810       13.398      862.799
08/26/2014  04:13:00      -21.309      -36.607        7.166       28.402       24.712       19.598      806.696      610.688      384.074        0.182        0.090       42.358       12.761        0.091      339.862       13.488      862.807
08/26/2014  04:14:00      -96.354      -42.190        0.659       37.327       29.294       24.696     1393.295      858.129      609.882        0.696        0.143      105.186       21.605        0.042      339.781       13.349      862.809
08/26/2014  04:15:00      -90.480      -58.605       -4.855       37.802       36.564       18.079     1428.977     1336.944      326.852        0.737        0.155      107.802       18.771        0.030      339.779       13.346      862.825
08/26/2014  04:16:00      -33.156      -38.243       12.258       37.604       28.199       17.820     1414.038      795.190      317.558        0.262        0.126       50.614       13.420        0.070      339.784       13.355      862.841
08/26/2014  04:17:00      -72.944      -49.740        5.554       40.331       25.708       19.640     1626.555      660.895      385.710        0.525        0.134       88.289       17.857        0.041      339.791       13.367      862.849
08/26/2014  04:18:00      -94.994      -62.249        5.725       42.170       33.665       22.660     1778.334     1133.310      513.461        0.818        0.171      113.573       21.448        0.036      339.737       13.276      862.841
08/26/2014  04:19:00      -83.817      -41.496       11.795       41.190       34.845       25.101     1696.652     1214.168      630.064        0.621        0.177       93.526       23.931        0.065      339.674       13.169      862.831
08/26/2014  04:20:00      -85.094      -51.123        3.695       45.682       27.972       22.637     2086.864      782.413      512.448        0.662        0.169       99.270       22.982        0.054      339.696       13.206      862.818
08/26/2014  04:21:00     -110.312      -37.928        1.012       37.710       24.712       17.133     1422.028      610.706      293.534        0.797        0.116      116.650       18.843        0.026      339.619       13.076      862.829
08/26/2014  04:22:00     -120.880      -10.135       -4.953       38.867       25.203       21.027     1510.646      635.168      442.146        0.866        0.129      121.304       21.858        0.032      339.447       12.787      862.831
08/26/2014  04:23:00      -98.326      -10.756       -3.728       33.809       29.891       24.540     1143.075      893.486      602.235        0.622        0.132       98.912       20.218        0.042      339.315       12.564      862.834
08/26/2014  04:24:00     -110.317       -8.182        0.063       43.957       35.197       24.502     1932.242     1238.841      600.360        0.800        0.189      110.620       22.092        0.040      339.290       12.523      862.840
08/26/2014  04:25:00     -104.673      -18.506        4.048       37.391       32.862       21.911     1398.110     1079.909      480.081        0.714        0.148      106.297       17.117        0.026      339.334       12.595      862.855
08/26/2014  04:26:00     -114.319      -32.750        2.838       38.219       34.153       18.920     1460.729     1166.448      357.975        0.857        0.149      118.917       18.351        0.024      339.393       12.695      862.854
08/26/2014  04:27:00     -142.786      -50.250        1.434       26.084       26.024       18.462      680.363      677.265      340.851        1.231        0.085      151.370       13.635        0.008      339.457       12.802      862.849
08/26/2014  04:28:00     -119.075      -41.834       -1.481       39.071       34.094       22.173     1526.551     1162.418      491.637        0.956        0.159      126.210       19.554        0.024      339.469       12.823      862.841
08/26/2014  04:29:00     -150.930      -65.072       -0.968       29.668       31.687       21.618      880.188     1004.073      467.326        1.468        0.118      164.360       16.798        0.010      339.537       12.937      862.837
08/26/2014  04:30:00     -123.999      -76.974       -2.412       35.936       27.037       19.133     1291.387      730.976      366.073        1.185        0.119      145.948       16.159        0.012      339.639       13.109      862.844
08/26/2014  04:31:00      -81.152      -80.246        0.099       47.872       35.488       23.884     2291.753     1259.403      570.464        0.857        0.206      114.128       23.332        0.042      339.679       13.177      862.858
08/26/2014  04:32:00      -74.109      -37.805        6.366       43.067       31.054       23.092     1854.744      964.380      533.229        0.516        0.168       83.195       20.930        0.063      339.638       13.108      862.866
08/26/2014  04:33:00      -79.500      -41.087        8.751       54.537       28.485       21.499     2974.329      811.422      462.212        0.617        0.212       89.490       26.370        0.087      339.641       13.115      862.873
08/26/2014  04:34:00     -103.153      -52.448        2.615       43.003       33.287       21.372     1849.216     1108.009      456.766        0.841        0.171      115.721       19.496        0.028      339.648       13.125      862.885
08/26/2014  04:35:00      -90.259      -54.921        8.688       54.295       37.930       28.520     2947.941     1438.718      813.418        0.822        0.260      105.655       32.052        0.092      339.644       13.120      862.891
08/26/2014  04:36:00      -75.968      -51.043        2.183       38.448       32.753       14.962     1478.267     1072.734      223.860        0.558        0.139       91.523       16.064        0.031      339.698       13.210      862.888
08/26/2014  04:37:00      -62.994      -68.412       -1.717       29.180       37.353       22.453      851.460     1395.272      504.158        0.570        0.138       92.997       18.745        0.041      339.744       13.286      862.890
08/26/2014  04:38:00      -31.545      -43.953       12.921       41.660       27.427       24.315     1735.565      752.235      591.204        0.309        0.154       54.101       28.614        0.280      339.762       13.319      862.897
08/26/2014  04:39:00      -56.545      -54.736        4.950       31.142       40.057       19.425      969.828     1604.558      377.338        0.458        0.148       78.698       20.388        0.067      339.708       13.227      862.902
08/26/2014  04:40:00      -44.649      -33.637       12.343       45.221       19.864       19.131     2044.942      394.590      366.013        0.304        0.140       55.901       20.428        0.134      339.747       13.293      862.903
08/26/2014  04:41:00      -71.476      -65.456       -3.714       35.471       28.576       20.933     1258.165      816.614      438.196        0.596        0.126       96.919       22.403        0.053      339.746       13.289      862.906
08/26/2014  04:42:00      -68.166      -64.617        5.811       36.804       24.931       21.166     1354.535      621.569      448.013        0.564        0.121       93.926       22.354        0.057      339.703       13.217      862.922
08/26/2014  04:43:00      -63.342      -29.954        7.095       47.026       20.988       19.850     2211.481      440.489      394.030        0.400        0.152       70.068       22.011        0.099      339.723       13.254      862.938
08/26/2014  04:44:00      -34.150      -59.941        2.116       37.444       25.506       13.143     1402.061      650.543      172.746        0.349        0.111       68.987       14.583        0.045      339.785       13.358      862.946
08/26/2014  04:45:00      -74.141      -98.889       -8.577       21.884       21.183       14.477      478.896      448.716      209.587        0.824        0.057      123.596       13.624        0.012      339.760       13.314      862.954
08/26/2014  04:46:00      -95.576      -86.224       -6.254       44.613       50.225       22.584     1990.297     2522.509      510.041        1.081        0.251      128.722       24.904        0.037      339.742       13.283      862.948
08/26/2014  04:47:00     -114.653     -111.677       -5.342       39.852       47.276       28.159     1588.142     2234.978      792.915        1.513        0.231      160.053       26.578        0.028      339.701       13.214      862.949
08/26/2014  04:48:00     -117.824     -127.112      -12.284       44.917       42.496       25.767     2017.550     1805.889      663.914        1.734        0.224      173.320       18.690        0.012      339.661       13.145      862.958
08/26/2014  04:49:00     -128.090      -95.236       -8.122       41.347       44.743       27.658     1709.600     2001.898      764.967        1.501        0.224      159.615       22.681        0.020      339.616       13.071      862.972
08/26/2014  04:50:00     -124.951      -79.094       -3.243       49.252       38.525       32.031     2425.808     1484.210     1025.972        1.341        0.247      147.881       31.261        0.045      339.627       13.089      862.978
08/26/2014  04:51:00     -113.747      -67.228       -5.458       52.304       45.616       22.313     2735.728     2080.809      497.885        1.140        0.266      132.129       22.645        0.029      339.608       13.058      862.986
08/26/2014  04:52:00     -105.316      -85.629       -0.335       38.413       39.896       27.242     1475.521     1591.726      742.135        1.112        0.190      135.734       22.187        0.027      339.598       13.041      862.985
08/26/2014  04:53:00     -119.568     -108.899       -6.679       60.654       38.857       25.991     3678.876     1509.834      675.535        1.603        0.293      161.727       31.644        0.038      339.598       13.041      862.983
08/26/2014  04:54:00     -112.643      -98.611       -4.032       38.254       38.120       23.299     1463.387     1453.113      542.852        1.294        0.173      149.708       19.512        0.017      339.578       13.008      862.978
08/26/2014  04:55:00      -79.766      -99.818       -5.722       25.067       38.078       17.929      628.334     1449.969      321.446        0.938        0.120      127.774       17.439        0.019      339.592       13.032      862.978
08/26/2014  04:56:00      -85.251      -51.458        0.780       24.049       25.627       19.407      578.338      656.745      376.637        0.576        0.081       99.577       12.719        0.016      339.597       13.040      862.981
08/26/2014  04:57:00      -85.145      -73.518       -3.070       41.941       33.483       23.392     1759.086     1121.131      547.205        0.805        0.171      112.493       24.452        0.047      339.550       12.961      862.980
08/26/2014  04:58:00      -82.337      -51.546        3.332       35.548       34.891       21.124     1263.646     1217.372      446.212        0.619        0.146       97.140       18.089        0.035      339.579       13.009      862.980
08/26/2014  04:59:00      -86.150      -50.086       -0.845       47.559       30.814       21.610     2261.844      949.485      466.972        0.680        0.184       99.652       17.824        0.032      339.567       12.989      862.981
08/26/2014  05:00:00      -75.329      -49.454        2.216       50.431       32.734       21.552     2543.307     1071.523      464.496        0.610        0.204       90.112       22.098        0.060      339.537       12.938      862.992
08/26/2014  05:01:00      -37.300      -49.561        2.300       32.051       36.754       21.339     1027.254     1350.864      455.347        0.334        0.142       62.029       20.957        0.114      339.564       12.983      862.999
08/26/2014  05:02:00      -75.307      -23.058        1.277       32.303       33.333       16.801     1043.471     1111.072      282.290        0.432        0.122       78.758       18.962        0.058      339.462       12.813      863.002
08/26/2014  05:03:00      -78.665      -14.328       -0.712       30.402       19.640       20.108      924.305      385.733      404.352        0.405        0.086       79.959       15.536        0.038      339.355       12.631      863.003
08/26/2014  05:04:00     -114.180      -25.187       -6.667       27.334       26.875       18.644      747.172      722.242      347.613        0.777        0.091      116.925       16.537        0.020      339.309       12.554      863.017
08/26/2014  05:05:00     -118.871      -40.240       -5.135       38.810       32.389       17.620     1506.220     1049.028      310.470        0.932        0.143      125.497       19.512        0.024      339.250       12.453      863.026
08/26/2014  05:06:00     -128.092      -23.221       -6.186       34.725       28.081       21.354     1205.804      788.545      456.004        0.972        0.123      130.180       17.273        0.018      339.246       12.447      863.029
08/26/2014  05:07:00     -114.582      -19.415       -2.768       37.779       26.138       20.829     1427.246      683.178      433.861        0.803        0.127      116.215       17.936        0.024      339.260       12.471      863.032
08/26/2014  05:08:00      -61.808      -25.324        7.421       38.503       29.074       20.657     1482.457      845.284      426.729        0.363        0.138       66.794       15.563        0.054      339.282       12.507      863.036
08/26/2014  05:09:00      -77.704      -26.096       -3.258       28.883       21.889       15.599      834.206      479.148      243.317        0.414        0.078       81.969       12.492        0.023      339.302       12.541      863.050
08/26/2014  05:10:00      -81.767      -35.209       -6.522       21.096       21.226       10.770      445.042      450.561      115.996        0.449        0.051       89.025        2.557        0.001      339.347       12.618      863.061
08/26/2014  05:11:00     -103.335      -32.337       -6.447       28.343       24.065       17.894      803.325      579.107      320.210        0.673        0.085      108.276       18.404        0.029      339.264       12.477      863.062
08/26/2014  05:12:00      -99.514      -32.967       -1.204       27.286       19.820       15.117      744.521      392.846      228.538        0.618        0.068      104.833       15.023        0.021      339.278       12.501      863.060
08/26/2014  05:13:00      -92.175      -24.736       -0.742       33.758       23.807       19.300     1139.593      566.754      372.503        0.559        0.104       95.436       21.438        0.050      339.241       12.439      863.063
08/26/2014  05:14:00     -110.118      -16.422       -9.330       31.281       23.407       12.332      978.481      547.867      152.075        0.708        0.084      111.336       12.846        0.013      339.154       12.293      863.080
08/26/2014  05:15:00     -109.087      -14.516       -5.023       40.942       20.427       19.943     1676.268      417.277      397.713        0.731        0.125      110.048       20.857        0.036      339.172       12.323      863.099
08/26/2014  05:16:00      -39.772        2.921        7.436       28.614       25.353       16.407      818.754      642.752      269.187        0.169        0.087       39.879        8.677        0.047      339.143       12.275      863.104
08/26/2014  05:17:00      -83.007       15.684       -7.037       35.631       21.976       16.439     1269.584      482.955      270.235        0.460        0.101       84.476       14.775        0.031      339.196       12.363      863.098
08/26/2014  05:18:00      -52.274       -1.414       -2.908       21.166       15.198       11.566      447.988      230.981      133.769        0.178        0.041       52.294        9.176        0.031      339.228       12.419      863.097
08/26/2014  05:19:00      -71.199      -19.498      -12.377       19.174       16.075        9.649      367.644      258.412       93.095        0.316        0.036       73.821        5.420        0.005      339.136       12.263      863.099
08/26/2014  05:20:00      -79.897       -7.841      -11.054       22.998       14.232       11.281      528.922      202.540      127.253        0.371        0.043       80.281        8.293        0.011      339.024       12.074      863.103
08/26/2014  05:21:00      -52.398      -14.835        0.423       18.711       25.411       14.568      350.086      645.732      212.235        0.209        0.060       54.458        9.720        0.032      339.056       12.129      863.091
08/26/2014  05:22:00      -43.602      -27.094       -4.264       12.107       17.618        9.098      146.585      310.407       82.777        0.160        0.027       51.335        6.422        0.016      339.076       12.161      863.086
08/26/2014  05:23:00      -33.739      -30.845       -9.766       15.636        8.895        9.918      244.479       79.120       98.366        0.130        0.021       45.713        5.336        0.014      339.141       12.270      863.075
08/26/2014  05:24:00      -42.237      -17.906       -9.055       18.143       17.993       12.722      329.175      323.758      161.859        0.150        0.041       45.876        6.021        0.017      339.198       12.369      863.071
08/26/2014  05:25:00      -60.081      -13.089       -8.984       14.946       20.584       11.487      223.394      423.703      131.955        0.232        0.039       61.490        7.494        0.015      339.292       12.527      863.074
08/26/2014  05:26:00      -54.548      -25.081       -6.467       17.081       13.259       12.623      291.767      175.807      159.331        0.214        0.031       60.038        7.918        0.017      339.261       12.473      863.076
08/26/2014  05:27:00      -50.837      -25.052       -6.253       14.443       14.542       11.157      208.590      211.481      124.484        0.190        0.027       56.674        6.090        0.012      339.319       12.571      863.076
08/26/2014  05:28:00      -60.970      -22.904      -10.898       14.008       15.296       11.125      196.226      233.978      123.774        0.246        0.028       65.130        5.867        0.008      339.315       12.563      863.079
08/26/2014  05:29:00      -36.296      -35.240       -5.223       27.695       21.675       17.311      767.028      469.810      299.683        0.206        0.077       50.589       15.941        0.099      339.323       12.579      863.093
08/26/2014  05:30:00      -66.077      -44.223       -6.549       35.266       18.302       19.645     1243.682      334.957      385.916        0.416        0.098       79.510       19.384        0.059      339.241       12.440      863.103
08/26/2014  05:31:00      -52.992      -54.922        1.520       22.870       21.021       16.979      523.048      441.877      288.285        0.354        0.063       76.320       13.501        0.031      339.234       12.426      863.109
08/26/2014  05:32:00      -84.137      -34.900      -20.364       13.329       10.971       10.028      177.663      120.362      100.552        0.456        0.020       91.088        7.500        0.007      339.181       12.338      863.111
08/26/2014  05:33:00      -89.842      -31.802      -11.548       14.318       15.366       12.197      205.017      236.111      148.762        0.490        0.029       95.304        7.664        0.006      339.272       12.491      863.114
08/26/2014  05:34:00      -90.096      -36.178      -10.322       11.842       17.011        9.448      140.227      289.391       89.261        0.503        0.026       97.088        6.146        0.004      339.277       12.499      863.125
08/26/2014  05:35:00      -50.174      -30.629       -3.685       29.374       22.660       15.065      862.840      513.483      226.961        0.254        0.080       58.785       16.331        0.077      339.276       12.499      863.146
08/26/2014  05:36:00      -44.257      -29.449        0.288       23.861       13.051       12.292      569.349      170.316      151.105        0.186        0.045       53.160       12.057        0.051      339.348       12.620      863.157
08/26/2014  05:37:00      -30.951      -30.303        2.552       31.824       25.134       14.838     1012.746      631.712      220.166        0.187        0.093       43.315       17.656        0.166      339.419       12.739      863.154
08/26/2014  05:38:00      -71.341      -56.294       -1.027       33.692       21.670       15.852     1135.163      469.589      251.284        0.506        0.093       90.877       10.521        0.013      339.430       12.758      863.156
08/26/2014  05:39:00      -71.314      -70.865       -9.749       25.500       24.308       20.669      650.245      590.860      427.208        0.594        0.083      100.536       12.905        0.016      339.407       12.719      863.160
08/26/2014  05:40:00      -63.742      -94.106       -5.548       33.116       36.841       17.958     1096.663     1357.260      322.484        0.786        0.139      113.661       12.476        0.012      339.416       12.737      863.172
08/26/2014  05:41:00      -86.241      -76.141       -4.710       42.700       32.338       22.816     1823.274     1045.724      520.576        0.832        0.169      115.044       22.917        0.040      339.320       12.573      863.192
08/26/2014  05:42:00      -82.448      -48.049        9.072       45.587       26.946       22.726     2078.182      726.061      516.487        0.625        0.166       95.428       19.553        0.042      339.365       12.649      863.210
08/26/2014  05:43:00      -73.218      -47.077        6.285       31.771       29.135       23.733     1009.389      848.850      563.236        0.502        0.121       87.047       19.223        0.049      339.352       12.628      863.227
08/26/2014  05:44:00      -69.959      -56.681        6.145       39.889       37.985       21.760     1591.148     1442.832      473.508        0.583        0.175       90.038       21.750        0.058      339.333       12.593      863.243
08/26/2014  05:45:00      -69.963      -66.309        1.892       32.778       29.827       18.171     1074.371      889.666      330.199        0.579        0.115       96.394       16.832        0.030      339.393       12.695      863.253
08/26/2014  05:46:00      -82.547      -73.165        1.018       30.583       29.847       20.263      935.314      890.841      410.592        0.720        0.112      110.305       16.311        0.022      339.403       12.712      863.264
08/26/2014  05:47:00      -74.273      -48.384        6.113       42.647       22.147       17.532     1818.732      490.476      307.363        0.526        0.131       88.642       15.577        0.031      339.399       12.705      863.269
08/26/2014  05:48:00      -47.471      -21.558        8.765       35.347       18.144       16.253     1249.415      329.196      264.166        0.232        0.092       52.137       19.453        0.139      339.379       12.673      863.273
08/26/2014  05:49:00      -83.812      -19.453       -5.658       25.794       16.804       16.773      665.313      282.373      281.326        0.433        0.061       86.040       16.321        0.036      339.299       12.538      863.274
08/26/2014  05:50:00      -81.641      -20.894      -11.116       17.977       14.341       11.674      323.165      205.676      136.272        0.395        0.033       84.272        7.767        0.008      339.331       12.591      863.278
08/26/2014  05:51:00      -88.292      -34.224       -7.447       17.654       18.994       13.550      311.661      360.763      183.589        0.494        0.043       94.693        7.368        0.006      339.368       12.654      863.281
08/26/2014  05:52:00     -121.582      -29.459       -8.387       15.086       15.447       11.703      227.591      238.610      136.969        0.816        0.030      125.100        6.313        0.003      339.333       12.594      863.290
08/26/2014  05:53:00     -100.475      -52.308        4.185       31.298       23.640       18.171      979.539      558.832      330.195        0.736        0.093      113.275       17.280        0.023      339.297       12.533      863.288
08/26/2014  05:54:00      -43.461      -31.781       13.314       43.526       25.147       21.644     1894.470      632.366      468.457        0.304        0.150       53.841       22.280        0.171      339.319       12.570      863.296
08/26/2014  05:55:00      -83.181      -34.882       -3.426       27.295       23.760       14.712      744.999      564.520      216.433        0.484        0.076       90.198       11.308        0.016      339.359       12.640      863.305
08/26/2014  05:56:00      -51.557      -32.515        2.687       45.164       14.716       12.441     2039.748      216.560      154.781        0.307        0.121       60.954       10.917        0.032      339.331       12.591      863.321
08/26/2014  05:57:00      -56.420      -26.921       -4.240       25.583       14.108       11.912      654.504      199.042      141.889        0.246        0.050       62.514       11.234        0.032      339.418       12.738      863.347
08/26/2014  05:58:00      -64.568      -39.791       -5.065       19.214       13.024       13.855      369.183      169.617      191.963        0.325        0.037       75.845        9.235        0.015      339.414       12.730      863.352
08/26/2014  05:59:00      -59.456      -34.337       -0.089       26.371       17.548       13.404      695.404      307.933      179.668        0.295        0.059       68.659       13.897        0.041      339.422       12.745      863.358
08/26/2014  06:00:00      -40.539      -40.005        4.847       33.950       32.178       19.428     1152.623     1035.394      377.431        0.292        0.128       56.954       16.713        0.086      339.412       12.728      863.366
08/26/2014  06:01:00     -104.077      -60.191       -5.170       25.054       34.527       18.790      627.683     1192.118      353.068        0.833        0.109      120.229        7.581        0.004      339.388       12.686      863.378
08/26/2014  06:02:00      -90.587      -44.583       -4.876       26.837       22.162       22.329      720.228      491.138      498.564        0.596        0.085      100.963       17.434        0.030      339.388       12.687      863.381
08/26/2014  06:03:00      -57.808      -56.492        3.082       36.008       33.099       16.084     1296.566     1095.570      258.708        0.460        0.133       80.828       19.181        0.056      339.419       12.740      863.391
08/26/2014  06:04:00      -62.293      -44.050        9.125       39.159       25.817       18.840     1533.420      666.503      354.931        0.423        0.128       76.294       19.430        0.065      339.412       12.727      863.394
08/26/2014  06:05:00      -39.303      -36.272        4.923       33.674       24.795       15.856     1133.916      614.813      251.398        0.244        0.100       53.482       14.843        0.077      339.455       12.800      863.400
08/26/2014  06:06:00      -42.238      -39.381        7.108       24.953       18.393       13.027      622.655      338.305      169.692        0.226        0.057       57.749        9.339        0.026      339.458       12.806      863.413
08/26/2014  06:07:00      -70.531      -42.107       -8.265       19.111       16.634       13.089      365.213      276.695      171.322        0.381        0.041       82.144        9.179        0.012      339.440       12.775      863.431
08/26/2014  06:08:00      -72.808      -45.772       -6.155       19.873       13.302       17.295      394.936      176.936      299.132        0.415        0.044       86.000        4.942        0.003      339.420       12.742      863.455
08/26/2014  06:09:00      -77.766      -39.498       -7.421       25.455       11.605       13.895      647.971      134.684      193.072        0.432        0.049       87.222       14.977        0.029      339.359       12.637      863.467
08/26/2014  06:10:00      -87.995      -30.258      -11.452       15.080       11.391       14.913      227.403      129.764      222.401        0.468        0.029       93.052       10.663        0.013      339.288       12.518      863.474
08/26/2014  06:11:00      -99.157      -39.131      -18.791       16.124       11.208       10.420      259.976      125.609      108.582        0.611        0.025      106.599        7.640        0.005      339.331       12.591      863.495
08/26/2014  06:12:00     -128.629      -28.265      -20.170       17.527       15.188       11.792      307.211      230.668      139.052        0.921        0.034      131.698        7.278        0.003      339.351       12.625      863.516
08/26/2014  06:13:00     -128.073      -27.905      -18.622       16.579       16.809       13.676      274.862      282.548      187.046        0.914        0.037      131.078        4.788        0.001      339.296       12.532      863.533
08/26/2014  06:14:00     -132.159      -21.981      -20.542       22.926       17.054       16.674      525.612      290.840      278.025        0.973        0.055      133.974       12.640        0.009      339.457       12.804      863.552
08/26/2014  06:15:00     -117.361      -27.452      -18.294       19.217       22.556       14.886      369.303      508.763      221.593        0.798        0.055      120.528        9.345        0.006      339.382       12.676      863.566
08/26/2014  06:16:00     -104.908      -28.014      -16.211       28.682       25.985       18.620      822.634      675.220      346.702        0.695        0.092      108.584        7.374        0.005      339.357       12.635      863.594
08/26/2014  06:17:00      -90.093      -18.362       -9.575       38.984       39.675       18.053     1519.773     1574.131      325.907        0.598        0.171       91.945       18.107        0.039      339.328       12.585      863.607
08/26/2014  06:18:00     -100.643      -26.508       -8.455       28.888       18.530       15.038      834.539      343.346      226.152        0.615        0.070      104.075       14.471        0.019      339.242       12.441      863.618
08/26/2014  06:19:00     -112.236      -31.066      -18.003       17.231       15.738       12.915      296.907      247.681      166.803        0.730        0.036      116.456        7.710        0.004      339.274       12.494      863.630
08/26/2014  06:20:00     -105.030      -46.632      -13.933       22.941       17.550       14.057      526.305      307.987      197.607        0.722        0.052      114.917        7.165        0.004      339.228       12.418      863.638
08/26/2014  06:21:00      -97.530      -51.392      -11.274       20.973       21.842       18.980      439.874      477.052      360.250        0.678        0.064      110.242        9.753        0.008      339.166       12.314      863.643
08/26/2014  06:22:00     -111.104      -49.087      -14.781       16.678       14.013       13.262      278.142      196.376      175.876        0.781        0.033      121.465        8.877        0.005      339.033       12.087      863.647
08/26/2014  06:23:00     -115.352      -38.906       -9.572       21.228       19.689       13.705      450.627      387.675      187.830        0.797        0.051      121.737        8.692        0.005      339.097       12.197      863.651
08/26/2014  06:24:00     -115.623      -38.163      -16.510       18.792       16.159       10.914      353.128      261.100      119.126        0.792        0.037      121.758        3.863        0.001      339.020       12.067      863.660
08/26/2014  06:25:00      -86.095      -36.293      -10.491       26.139       16.915       18.175      683.272      286.131      330.342        0.507        0.065       93.432       11.629        0.015      339.050       12.118      863.667
08/26/2014  06:26:00     -108.798      -40.450      -19.978       14.403       14.816       13.037      207.442      219.522      169.966        0.723        0.030      116.075        2.057        0.000      339.157       12.298      863.678
08/26/2014  06:27:00     -105.696      -36.282      -18.663       19.316       11.851        8.501      373.089      140.448       72.261        0.671        0.029      111.750        6.758        0.004      339.140       12.271      863.686
08/26/2014  06:28:00      -87.020      -39.172       -8.018       14.636       14.851        9.752      214.212      220.542       95.093        0.485        0.026       95.430        5.241        0.003      339.137       12.263      863.693
08/26/2014  06:29:00      -55.394      -33.597       -3.542       17.506       15.978       11.831      306.459      255.282      139.974        0.246        0.035       64.786       10.328        0.025      339.182       12.340      863.698
08/26/2014  06:30:00      -65.528      -28.720       -6.421       12.483       12.208       15.250      155.826      149.025      232.561        0.285        0.027       71.546        7.792        0.012      339.207       12.382      863.703
08/26/2014  06:31:00      -85.503      -36.884       -5.729       12.596       11.675       12.123      158.650      136.307      146.959        0.457        0.022       93.119        4.997        0.003      339.172       12.322      863.711
08/26/2014  06:32:00      -83.667      -47.017      -13.313       15.059       17.977       12.717      226.781      323.179      161.714        0.505        0.036       95.973        8.766        0.008      339.197       12.366      863.721
08/26/2014  06:33:00      -76.001      -39.781      -19.298       14.251       14.084        8.133      203.095      198.360       66.147        0.410        0.023       85.783        3.407        0.002      339.256       12.465      863.731
08/26/2014  06:34:00      -99.272      -35.480      -15.348       19.774       15.713       12.950      390.996      246.886      167.708        0.608        0.040      105.422        6.294        0.004      339.241       12.441      863.733
08/26/2014  06:35:00     -100.835      -48.487       -8.096       12.298       13.828        7.741      151.231      191.200       59.921        0.649        0.020      111.887        3.980        0.001      339.153       12.290      863.742
08/26/2014  06:36:00      -92.869      -40.764       -5.361       20.262       15.964       11.161      410.536      254.863      124.574        0.555        0.039      101.422        9.117        0.008      339.179       12.335      863.742
08/26/2014  06:37:00     -105.349      -34.740      -10.346       20.741       15.506       16.495      430.186      240.424      272.090        0.668        0.047      110.929       12.218        0.012      339.188       12.351      863.750
08/26/2014  06:38:00     -108.339      -45.266      -13.238       17.291       16.117       12.337      298.989      259.759      152.196        0.734        0.036      117.415        9.731        0.007      339.178       12.334      863.753
08/26/2014  06:39:00     -119.352      -41.776      -17.759       19.749       15.583       13.806      390.021      242.821      190.595        0.856        0.041      126.452        8.967        0.005      339.141       12.270      863.765
08/26/2014  06:40:00     -114.474      -42.164      -10.138       19.383       16.742       15.644      375.698      280.301      244.733        0.794        0.045      121.992       10.156        0.007      339.149       12.285      863.765
08/26/2014  06:41:00     -128.354      -40.373       -8.003       23.206       19.362       16.833      538.504      374.884      283.335        0.968        0.060      134.554       13.229        0.010      339.155       12.296      863.767
08/26/2014  06:42:00     -118.744      -52.413       -9.123       15.718       26.903       13.105      247.054      723.795      171.750        0.904        0.057      129.797        6.445        0.002      339.145       12.277      863.771
08/26/2014  06:43:00     -103.213      -33.219       -4.295       28.213       19.192       19.527      795.954      368.325      381.322        0.666        0.077      108.427       11.475        0.011      339.180       12.337      863.776
08/26/2014  06:44:00      -90.225      -52.161       -8.801       24.877       19.917       14.605      618.866      396.688      213.302        0.608        0.061      104.218        9.567        0.008      339.270       12.488      863.788
08/26/2014  06:45:00     -103.479      -35.388       -1.605       37.950       23.222       19.626     1440.177      539.257      385.177        0.716        0.118      109.363       20.287        0.034      339.250       12.455      863.788
08/26/2014  06:46:00     -104.144      -47.909       -6.625       28.700       35.130       18.766      823.667     1234.126      352.180        0.780        0.120      114.635       16.179        0.020      339.251       12.457      863.799
08/26/2014  06:47:00      -94.485      -56.248        2.330       56.588       25.945       24.858     3202.234      673.134      617.910        0.829        0.225      109.960       29.938        0.074      339.271       12.489      863.806
08/26/2014  06:48:00      -99.863      -53.608        0.971       29.240       35.326       17.999      854.958     1247.910      323.950        0.764        0.121      113.342       15.541        0.019      339.234       12.428      863.817
08/26/2014  06:49:00      -95.332      -46.057        0.908       36.158       30.987       21.572     1307.412      960.177      465.357        0.697        0.137      105.875       17.130        0.026      339.250       12.454      863.833
08/26/2014  06:50:00      -74.586      -43.964        4.621       46.523       20.440       19.195     2164.394      417.812      368.456        0.523        0.148       86.579       17.822        0.042      339.280       12.505      863.846
08/26/2014  06:51:00      -86.230      -64.303        1.530       41.678       34.265       24.312     1737.022     1174.079      591.087        0.754        0.175      107.566       21.329        0.039      339.301       12.540      863.854
08/26/2014  06:52:00      -63.685      -69.786       -2.437       43.481       32.330       20.288     1890.608     1045.261      411.597        0.614        0.167       94.477       14.907        0.025      339.273       12.493      863.856
08/26/2014  06:53:00      -87.944      -64.728       -2.689       37.568       34.752       27.003     1411.323     1207.727      729.153        0.764        0.167      109.196       23.560        0.047      339.258       12.468      863.858
08/26/2014  06:54:00     -110.236      -71.717        1.167       35.910       34.314       20.422     1289.529     1177.467      417.064        1.009        0.144      131.512       19.248        0.021      339.271       12.489      863.869
08/26/2014  06:55:00     -118.996      -92.705       -5.112       26.867       33.274       22.353      721.857     1107.192      499.643        1.255        0.116      150.845       20.744        0.019      339.266       12.482      863.877
08/26/2014  06:56:00     -124.110      -74.447       -1.387       43.693       38.111       24.508     1909.068     1452.463      600.660        1.245        0.198      144.726       25.672        0.031      339.238       12.433      863.880
08/26/2014  06:57:00     -131.372      -78.295       -2.930       46.245       43.284       25.864     2138.609     1873.540      668.928        1.404        0.234      152.933       22.585        0.022      339.245       12.446      863.893
08/26/2014  06:58:00     -144.482     -100.390      -11.741       42.030       31.701       25.841     1766.545     1004.954      667.777        1.726        0.172      175.936       23.957        0.019      339.241       12.438      863.905
08/26/2014  06:59:00     -122.868      -64.697       -0.247       40.788       37.079       26.538     1663.667     1374.828      704.258        1.151        0.187      138.860       17.386        0.016      339.216       12.396      863.911
08/26/2014  07:00:00      -79.861      -61.231       10.018       56.636       39.402       25.223     3207.668     1552.526      636.225        0.781        0.270      100.633       27.925        0.077      339.255       12.461      863.929
08/26/2014  07:01:00     -102.567      -69.560        4.470       55.082       38.008       27.548     3034.065     1444.614      758.893        1.031        0.262      123.930       29.613        0.057      339.243       12.443      863.954
08/26/2014  07:02:00     -111.943      -51.957        4.919       47.432       38.708       25.732     2249.821     1498.283      662.122        0.983        0.221      123.414       22.364        0.033      339.242       12.441      863.972
08/26/2014  07:03:00      -89.142      -53.124        3.570       54.496       31.027       22.430     2969.852      962.645      503.104        0.761        0.222      103.771       24.256        0.055      339.290       12.522      863.982
08/26/2014  07:04:00     -126.902      -64.764        3.221       45.353       33.990       21.659     2056.929     1155.318      469.109        1.199        0.184      142.473       19.844        0.019      339.253       12.461      863.989
08/26/2014  07:05:00     -116.717      -88.434       -7.249       66.349       46.905       20.465     4402.234     2200.040      418.823        1.426        0.351      146.436       27.663        0.036      339.283       12.509      864.006
08/26/2014  07:06:00     -107.818      -75.703       -6.187       48.533       34.696       22.415     2355.453     1203.803      502.441        1.073        0.203      131.741       23.372        0.031      339.263       12.477      864.009
08/26/2014  07:07:00     -107.398      -75.901        2.418       45.433       40.910       26.996     2064.197     1673.617      728.783        1.088        0.223      131.512       27.197        0.043      339.290       12.522      864.017
08/26/2014  07:08:00      -93.629      -79.610        2.704       47.639       38.980       26.514     2269.466     1519.471      702.979        0.980        0.225      122.899       28.339        0.053      339.291       12.522      864.035
08/26/2014  07:09:00      -95.935      -75.561       -5.288       47.661       47.898       27.067     2271.576     2294.261      732.638        1.012        0.265      122.118       25.966        0.045      339.296       12.531      864.037
08/26/2014  07:10:00      -66.330      -70.739        4.410       44.245       38.153       29.220     1957.589     1455.625      853.791        0.684        0.213       96.973       27.645        0.081      339.299       12.536      864.047
08/26/2014  07:11:00      -66.038      -60.770        1.103       34.639       32.014       19.072     1199.883     1024.917      363.742        0.532        0.129       89.744       12.196        0.018      339.381       12.676      864.054
08/26/2014  07:12:00     -124.364      -77.926       -3.177       46.643       34.555       20.156     2175.573     1194.026      406.267        1.266        0.189      146.761       16.671        0.013      339.326       12.582      864.057
08/26/2014  07:13:00     -136.893      -53.958       -1.112       42.105       27.788       20.565     1772.827      772.174      422.917        1.231        0.148      147.143       20.274        0.019      339.300       12.539      864.054
08/26/2014  07:14:00     -111.035      -49.636       -8.059       30.034       23.858       15.040      902.024      569.224      226.194        0.828        0.085      121.625       13.077        0.012      339.316       12.566      864.063
08/26/2014  07:15:00      -77.309      -11.049       -5.815       25.850       25.380       14.280      668.205      644.148      203.925        0.382        0.076       78.094       12.309        0.025      339.389       12.688      864.050
08/26/2014  07:16:00      -58.177        2.978        0.704       41.321       18.066       18.171     1707.391      326.368      330.189        0.288        0.118       58.254       21.036        0.130      339.537       12.938      864.057
08/26/2014  07:17:00     -112.514       -2.162       -5.706       27.404       21.958       17.368      750.995      482.175      301.663        0.712        0.077      112.535       16.066        0.020      339.351       12.624      864.055
08/26/2014  07:18:00      -77.416       -3.212       -2.485       34.066       20.787       12.636     1160.460      432.106      159.677        0.388        0.088       77.483       13.854        0.032      339.402       12.712      864.048
08/26/2014  07:19:00     -104.076      -21.777        3.998       40.720       27.743       19.432     1658.097      769.689      377.612        0.706        0.140      106.330       21.730        0.042      339.412       12.728      864.050
08/26/2014  07:20:00     -108.579      -20.553        0.463       17.972       18.491       13.773      322.998      341.922      189.695        0.653        0.043      110.508       10.222        0.009      339.424       12.748      864.045
08/26/2014  07:21:00     -115.847      -21.796       -8.608       25.118       28.880       15.436      630.923      834.039      238.273        0.784        0.085      117.880        8.238        0.005      339.513       12.897      864.052
08/26/2014  07:22:00      -63.690      -40.276        2.805       30.978       33.487       17.446      959.658     1121.357      304.370        0.404        0.119       75.356       14.484        0.037      339.607       13.057      864.052
08/26/2014  07:23:00      -81.968      -16.257       -6.464       23.094       20.059       16.517      533.346      402.378      272.817        0.412        0.060       83.565       13.744        0.027      339.600       13.046      864.056
08/26/2014  07:24:00      -50.029      -42.208       -7.466       22.320       27.025       10.919      498.199      730.374      119.230        0.284        0.067       65.456        8.453        0.017      339.692       13.198      864.069
08/26/2014  07:25:00      -64.558      -43.615       -5.488       37.001       22.736       18.944     1369.064      516.942      358.893        0.417        0.112       77.910       12.071        0.024      339.704       13.219      864.080
08/26/2014  07:26:00      -45.180      -41.094        2.287       23.495       19.629       15.031      552.018      385.313      225.918        0.245        0.058       61.074       10.511        0.030      339.743       13.286      864.079
08/26/2014  07:27:00      -57.212      -69.364       -9.874       20.188       22.228       15.356      407.552      494.081      235.809        0.466        0.057       89.914       11.981        0.018      339.828       13.429      864.082
08/26/2014  07:28:00      -41.211      -47.325       -0.777       19.568       23.748       17.182      382.916      563.959      295.237        0.259        0.062       62.754       13.121        0.044      339.897       13.545      864.087
08/26/2014  07:29:00      -48.187      -64.486        1.930       25.755       23.244       14.017      663.320      540.279      196.483        0.394        0.070       80.501       15.877        0.039      339.895       13.541      864.095
08/26/2014  07:30:00      -35.682      -61.244        4.054       33.060       29.272       20.319     1092.945      856.839      412.842        0.370        0.118       70.880       21.888        0.095      339.875       13.508      864.101
08/26/2014  07:31:00      -37.793      -68.529       -6.175       21.028       18.020       13.733      442.184      324.726      188.603        0.356        0.048       78.259        7.956        0.010      339.889       13.532      864.111
08/26/2014  07:32:00      -60.684      -61.118       -7.187       23.033       13.291       16.559      530.501      176.643      274.213        0.423        0.049       86.127       13.683        0.025      339.907       13.563      864.109
08/26/2014  07:33:00      -52.219      -57.874       -4.126       20.281       20.403       14.764      411.320      416.277      217.985        0.357        0.052       77.950       16.663        0.046      339.968       13.663      864.115
08/26/2014  07:34:00      -68.899      -63.197      -12.969       20.771       18.981       11.107      431.451      360.273      123.358        0.491        0.046       93.492        5.994        0.004      339.968       13.665      864.123
08/26/2014  07:35:00      -47.457      -68.773       -4.511       13.855       19.588       10.680      191.974      383.705      114.064        0.385        0.034       83.557        7.712        0.009      339.980       13.684      864.126
08/26/2014  07:36:00      -72.054      -56.854       -8.176       17.601       20.967       14.625      309.792      439.595      213.899        0.473        0.048       91.784        6.479        0.005      340.055       13.811      864.125
08/26/2014  07:37:00      -56.609      -65.725       -5.987       27.082       21.608       16.428      733.418      466.924      269.894        0.451        0.074       86.743       16.706        0.037      340.097       13.883      864.138
08/26/2014  07:38:00      -65.882      -71.288       -7.884       20.957       21.261       16.674      439.215      452.042      278.032        0.533        0.058       97.069       13.211        0.019      340.096       13.879      864.137
08/26/2014  07:39:00      -61.641      -63.331       -9.142       21.886       23.607       18.039      478.996      557.314      325.419        0.463        0.068       88.377       11.547        0.017      340.158       13.984      864.140
08/26/2014  07:40:00      -45.772      -70.429      -10.815       18.803       21.360       15.184      353.549      456.248      230.546        0.411        0.052       83.996        8.584        0.010      340.142       13.957      864.148
08/26/2014  07:41:00      -38.705      -66.727       -2.828       22.757       22.630       13.537      517.891      512.094      183.246        0.359        0.061       77.140       10.324        0.018      340.199       14.055      864.148
08/26/2014  07:42:00      -40.198      -70.480       -1.949       11.617       11.811       11.541      134.964      139.492      133.190        0.350        0.020       81.138        8.458        0.011      340.195       14.047      864.155
08/26/2014  07:43:00      -24.116      -72.994       -4.873       23.458       21.468       13.412      550.260      460.865      179.884        0.356        0.060       76.874        5.718        0.006      340.296       14.218      864.165
08/26/2014  07:44:00      -41.089      -92.371       -4.386       22.216       17.998       11.247      493.563      323.926      126.494        0.559        0.047      101.098        6.663        0.004      340.274       14.181      864.169
08/26/2014  07:45:00      -59.915      -57.115      -11.693       16.568       14.266        9.439      274.514      203.521       89.093        0.378        0.028       82.776        3.842        0.002      340.303       14.231      864.174
08/26/2014  07:46:00      -21.658      -30.161       10.005       16.814       14.231       13.885      282.698      202.521      192.786        0.108        0.034       37.132       11.183        0.091      340.397       14.388      864.188
08/26/2014  07:47:00      -44.372      -52.801        3.569       29.053       31.113       17.097      844.087      968.046      292.295        0.344        0.105       68.970       12.967        0.035      340.388       14.375      864.199
08/26/2014  07:48:00      -29.215      -65.359       -5.029       28.219       28.703       18.670      796.329      823.881      348.578        0.356        0.098       71.591        9.177        0.016      340.358       14.323      864.220
08/26/2014  07:49:00      -39.333      -59.976       -7.571       30.901       38.970       17.804      954.856     1518.676      316.992        0.400        0.140       71.723       15.676        0.048      340.420       14.429      864.229
08/26/2014  07:50:00      -14.663      -48.373        8.928       26.437       25.107       18.870      698.900      630.356      356.061        0.216        0.084       50.547       13.390        0.070      340.485       14.537      864.237
08/26/2014  07:51:00      -48.615      -59.180      -11.102       18.242       26.305       16.982      332.766      691.948      288.390        0.365        0.066       76.588       10.504        0.019      340.405       14.402      864.251
08/26/2014  07:52:00      -42.194      -68.943       -6.608       19.093       19.356       18.796      364.549      374.667      353.275        0.383        0.055       80.830        9.453        0.014      340.441       14.463      864.250
08/26/2014  07:53:00      -54.500      -47.185       -1.937       25.017       30.774       14.434      625.840      947.019      208.339        0.349        0.089       72.088       10.971        0.023      340.465       14.504      864.252
08/26/2014  07:54:00      -58.325      -85.394       -7.402       15.589       22.230       12.270      243.025      494.155      150.559        0.582        0.044      103.411        8.474        0.007      340.377       14.356      864.261
08/26/2014  07:55:00      -86.916      -57.566      -11.022       35.528       20.167       15.355     1262.236      406.726      235.786        0.645        0.095      104.251       11.991        0.013      340.447       14.473      864.267
08/26/2014  07:56:00      -62.416      -61.313        0.053       41.209       34.471       21.720     1698.202     1188.264      471.777        0.551        0.168       87.493       21.539        0.061      340.484       14.536      864.276
08/26/2014  07:57:00      -51.796      -53.042        0.599       31.555       33.609       20.391      995.724     1129.585      415.804        0.402        0.127       74.137       20.647        0.078      340.487       14.542      864.275
08/26/2014  07:58:00      -86.332      -87.287      -16.005       35.498       26.298       14.308     1260.085      691.580      204.709        0.874        0.108      122.769        8.539        0.005      340.445       14.470      864.286
08/26/2014  07:59:00      -53.664      -66.012        2.122       16.568       30.580       18.937      274.501      935.131      358.604        0.440        0.078       85.073        8.143        0.009      340.501       14.566      864.287
08/26/2014  08:00:00      -54.545      -42.831       -1.725       21.547       39.258       13.410      464.294     1541.229      179.832        0.350        0.109       69.351       13.540        0.038      340.548       14.643      864.288
08/26/2014  08:01:00      -55.190      -58.390       -0.869       37.102       32.863       17.844     1376.587     1079.974      318.395        0.461        0.139       80.345       12.503        0.024      340.570       14.681      864.288
08/26/2014  08:02:00      -96.187      -76.989      -14.065       26.944       26.530       14.082      725.977      703.849      198.310        0.850        0.081      123.204        8.749        0.005      340.549       14.647      864.293
08/26/2014  08:03:00      -57.217      -87.410      -12.687       18.950       18.086       13.925      359.109      327.087      193.899        0.598        0.044      104.472       11.721        0.013      340.509       14.576      864.306
08/26/2014  08:04:00      -56.198      -37.330      -10.429       37.209       35.991       11.922     1384.490     1295.375      142.145        0.374        0.141       67.466       11.978        0.032      340.624       14.773      864.318
08/26/2014  08:05:00      -66.929      -50.812        2.411       26.031       21.762       23.669      677.592      473.584      560.232        0.439        0.086       84.032       14.831        0.031      340.621       14.767      864.331
08/26/2014  08:06:00      -63.412      -26.130       -6.459       22.505       23.915       18.479      506.471      571.922      341.477        0.308        0.071       68.584        9.418        0.019      340.645       14.809      864.353
08/26/2014  08:07:00      -31.865      -36.510       -0.763       18.922       28.322       11.089      358.046      802.151      122.976        0.182        0.064       48.460        7.253        0.022      340.731       14.954      864.365
08/26/2014  08:08:00      -75.877      -50.412      -12.311       25.769       26.536       13.945      664.028      704.175      194.473        0.501        0.078       91.097       11.322        0.015      340.642       14.803      864.371
08/26/2014  08:09:00      -48.413      -66.604       -6.955       18.531       19.309       14.932      343.381      372.822      222.953        0.388        0.047       82.340       10.505        0.016      340.649       14.816      864.375
08/26/2014  08:10:00      -86.348      -63.742       -4.672       27.398       26.748       17.301      750.635      715.472      299.334        0.665        0.088      107.327       13.316        0.015      340.718       14.933      864.374
08/26/2014  08:11:00      -52.047      -75.466       -0.270       25.748       26.264       18.875      662.959      689.786      356.256        0.506        0.085       91.673       10.434        0.013      340.777       15.030      864.385
08/26/2014  08:12:00      -40.830      -61.371       -8.491       25.098       19.804       24.288      629.900      392.215      589.919        0.356        0.081       73.712       18.199        0.061      340.773       15.028      864.380
08/26/2014  08:13:00      -43.354      -22.391        0.432       26.240       24.512       15.145      688.519      600.815      229.363        0.195        0.076       48.795       12.724        0.068      340.836       15.130      864.382
08/26/2014  08:14:00      -72.455      -52.887       -0.565       24.267       31.693       16.872      588.884     1004.468      284.675        0.496        0.094       89.704       15.557        0.030      340.833       15.126      864.381
08/26/2014  08:15:00      -52.982      -32.739        7.803       30.786       28.207       16.544      947.777      795.629      273.715        0.298        0.101       62.281       14.569        0.055      340.918       15.270      864.386
08/26/2014  08:16:00        3.687       13.648       39.632       25.857       19.924       26.661      668.560      396.971      710.820        0.177        0.089       14.137       18.985        1.803      341.609       16.440      864.382
08/26/2014  08:17:00      -27.098        0.678       12.665       26.095       23.415       18.211      680.938      548.266      331.655        0.123        0.078       27.107       15.478        0.326      341.214       15.770      864.384
08/26/2014  08:18:00       -5.969      -15.497       14.875       22.779       24.516       21.262      518.888      601.013      452.084        0.103        0.079       16.607       18.970        1.305      341.269       15.864      864.381
08/26/2014  08:19:00      -60.608      -25.713        1.827       16.505       21.529       12.853      272.414      463.487      165.200        0.262        0.045       65.836       11.362        0.030      340.969       15.355      864.392
08/26/2014  08:20:00      -57.095       -0.757        4.408       39.578       20.303       17.137     1566.413      412.214      293.662        0.278        0.114       57.100       17.314        0.092      341.133       15.634      864.397
08/26/2014  08:21:00      -83.282       11.433       -1.082       15.904       27.065       11.034      252.935      732.509      121.747        0.409        0.055       84.063        3.780        0.002      340.952       15.329      864.393
08/26/2014  08:22:00      -48.572      -33.919       -6.478       26.602       11.599       14.956      707.658      134.536      223.687        0.231        0.053       59.243       12.176        0.042      341.039       15.474      864.389
08/26/2014  08:23:00      -22.578      -17.043        4.461       23.132       21.934       14.838      535.095      481.094      220.167        0.103        0.062       28.288       14.096        0.248      341.409       16.102      864.389
08/26/2014  08:24:00      -39.044      -12.445       -4.093       16.684       22.320       14.461      278.354      498.189      209.116        0.134        0.049       40.980       12.445        0.092      341.329       15.966      864.390
08/26/2014  08:25:00      -26.990       -5.248       16.644       17.729       25.607       24.353      314.306      655.706      593.048        0.130        0.078       27.496       20.090        0.534      341.635       16.485      864.380
08/26/2014  08:26:00       -1.627      -62.701       -3.456       26.670       35.088       28.973      711.268     1231.192      839.460        0.336        0.139       62.722       23.822        0.144      341.475       16.214      864.377
08/26/2014  08:27:00      -16.300      -15.985       -7.586       23.664       18.295       14.753      559.970      334.710      217.647        0.085        0.056       22.830        6.045        0.070      341.372       16.039      864.373
08/26/2014  08:28:00       11.079      -15.976       -9.333       23.638       49.339       17.021      558.745     2434.355      289.703        0.187        0.164       19.442       15.565        0.641      341.467       16.199      864.369
08/26/2014  08:29:00        9.465       38.826       18.400       27.495       29.035       29.579      755.956      843.050      874.894        0.220        0.124       39.963       18.096        0.205      341.864       16.874      864.372
08/26/2014  08:30:00      -11.173       32.530       -8.441       18.187       20.763       12.326      330.779      431.099      151.934        0.108        0.046       34.395        9.875        0.082      341.477       16.217      864.363
08/26/2014  08:31:00      -33.476        2.007       -1.256       18.008       22.872       17.265      324.304      523.127      298.096        0.114        0.057       33.536       11.587        0.119      341.575       16.384      864.362
08/26/2014  08:32:00      -72.169      -62.649       -6.133       34.138       29.261       18.164     1165.405      856.191      329.949        0.576        0.118       95.568       20.370        0.045      341.250       15.833      864.363
08/26/2014  08:33:00      -58.508      -38.192       -0.931       18.180       18.743       17.290      330.526      351.301      298.930        0.293        0.049       69.869        9.659        0.019      341.237       15.811      864.356
08/26/2014  08:34:00      -66.806      -44.528       -0.246       24.022       21.539       16.149      577.050      463.946      260.782        0.387        0.065       80.286       12.937        0.026      341.249       15.832      864.353
08/26/2014  08:35:00      -45.748      -24.411       -4.704       20.706       18.287       12.484      428.734      334.399      155.838        0.181        0.046       51.854        4.819        0.009      341.283       15.891      864.348
08/26/2014  08:36:00      -81.827      -64.939       -2.262       27.837       25.070       16.930      774.919      628.516      286.609        0.630        0.085      104.465       15.276        0.021      341.248       15.830      864.346
08/26/2014  08:37:00      -80.207      -58.218        0.315       34.221       23.348       18.554     1171.063      545.117      344.261        0.594        0.103       99.109       16.736        0.029      341.278       15.881      864.344
08/26/2014  08:38:00      -82.222      -57.024       -0.422       24.808       18.381       17.404      615.441      337.873      302.883        0.563        0.063      100.061       17.363        0.030      341.268       15.864      864.342
08/26/2014  08:39:00      -55.426      -44.851        3.303       40.840       28.446       24.019     1667.935      809.187      576.928        0.407        0.153       71.299       29.804        0.175      341.488       16.236      864.334
08/26/2014  08:40:00        3.603      -23.078       16.747       18.247       20.299       14.697      332.937      412.048      215.999        0.089        0.048       23.357       13.047        0.312      341.755       16.688      864.340
08/26/2014  08:41:00      -47.199      -28.033        7.885       28.784       38.873       21.010      828.493     1511.135      441.408        0.293        0.139       54.896       16.569        0.091      341.463       16.194      864.339
08/26/2014  08:42:00      -40.695      -83.168       -1.874       23.435       26.446       15.253      549.191      699.411      232.642        0.503        0.074       92.591        9.245        0.010      341.332       15.971      864.342
08/26/2014  08:43:00      -39.722      -77.959      -11.166       11.178       29.640       12.476      124.953      878.510      155.645        0.447        0.058       87.495        9.531        0.012      341.342       15.989      864.345
08/26/2014  08:44:00      -56.757      -47.418       -6.180       16.536       19.607       15.755      273.450      384.445      248.232        0.321        0.045       73.958       10.505        0.020      341.465       16.196      864.358
08/26/2014  08:45:00      -41.819      -46.030      -10.779       14.400       26.823       10.147      207.354      719.485      102.958        0.251        0.051       62.190       11.545        0.034      341.453       16.176      864.371
08/26/2014  08:46:00      -52.689      -18.969      -10.372       14.634       30.374       14.540      214.144      922.596      211.406        0.230        0.067       56.000       12.444        0.049      341.503       16.260      864.378
08/26/2014  08:47:00      -61.212      -67.582       -2.778       24.587       22.552       18.742      604.501      508.600      351.258        0.489        0.073       91.182       17.133        0.035      341.512       16.275      864.385
08/26/2014  08:48:00      -46.459       -7.563       -6.515       13.317       15.566        9.336      177.353      242.316       87.160        0.138        0.025       47.071        4.973        0.011      341.574       16.380      864.388
08/26/2014  08:49:00      -46.597      -10.820        3.129       25.413       16.913       15.380      645.840      286.043      236.553        0.173        0.058       47.837       13.284        0.077      341.821       16.801      864.389
08/26/2014  08:50:00      -48.654      -18.111       -6.579       29.545       28.466       13.348      872.878      810.330      178.159        0.230        0.093       51.915       15.747        0.092      341.773       16.719      864.387
08/26/2014  08:51:00      -73.311      -76.191      -13.238       49.494       28.301       25.361     2449.648      800.952      643.202        0.762        0.195      105.733       17.438        0.027      341.749       16.678      864.385
08/26/2014  08:52:00      -61.315      -20.224        7.551       57.041       30.072       30.781     3253.662      904.296      947.490        0.466        0.255       64.564       34.609        0.287      342.007       17.116      864.390
08/26/2014  08:53:00      -49.619      -52.241       -2.114       43.991       46.347       25.382     1935.221     2148.053      644.225        0.496        0.236       72.050       21.076        0.086      342.094       17.266      864.400
08/26/2014  08:54:00      -70.486      -29.292        7.351       35.436       35.459       21.057     1255.722     1257.309      443.400        0.442        0.148       76.330       14.535        0.036      341.875       16.892      864.403
08/26/2014  08:55:00      -85.160      -58.378        8.076       40.121       29.921       19.455     1609.658      895.295      378.489        0.680        0.144      103.249       19.539        0.036      341.819       16.796      864.407
08/26/2014  08:56:00      -16.241      -27.093       11.495       58.058       35.271       27.976     3370.704     1244.009      782.677        0.326        0.270       31.588       24.316        0.593      342.197       17.440      864.411
08/26/2014  08:57:00      -18.826      -32.387        2.206       28.331       19.356       19.596      802.669      374.672      383.987        0.148        0.078       37.461       15.479        0.171      342.183       17.413      864.411
08/26/2014  08:58:00      -57.972      -30.883        0.266       24.674       35.181       23.778      608.825     1237.676      565.403        0.336        0.121       65.685       17.337        0.070      342.014       17.128      864.413
08/26/2014  08:59:00       44.604       -9.294       26.598       40.640       63.839       38.542     1651.584     4075.481     1485.465        0.500        0.361       45.562       40.192        0.778      342.456       17.879      864.415
08/26/2014  09:00:00       19.901       35.188       46.119       27.281       32.459       17.216      744.280     1053.583      296.402        0.293        0.105       40.426       18.111        0.201      342.363       17.720      864.414
08/26/2014  09:01:00      -36.463       -2.213       39.885       25.871       35.993       36.423      669.303     1295.493     1326.654        0.311        0.165       36.530       35.210        0.929      342.628       18.171      864.417
08/26/2014  09:02:00      -18.723       -9.849       39.355       23.259       17.959       22.966      540.972      322.522      527.442        0.169        0.070       21.156       20.497        0.939      342.911       18.653      864.425
08/26/2014  09:03:00       -7.519       -2.300       56.599       23.699       42.309       25.752      561.638     1790.014      663.147        0.314        0.151        7.863       27.434       12.172      343.011       18.823      864.426
08/26/2014  09:04:00       10.572      -18.997       60.840       28.527       45.569       23.318      813.812     2076.541      543.716        0.380        0.172       21.741       19.432        0.799      342.923       18.673      864.430
08/26/2014  09:05:00       25.809       53.603       67.335       35.525       37.340       25.756     1262.054     1394.288      663.347        0.570        0.166       59.492       23.439        0.155      342.404       17.789      864.450
08/26/2014  09:06:00       59.282       49.113       43.655       34.538       28.857       33.984     1192.906      832.731     1154.921        0.551        0.159       76.983       25.541        0.110      342.281       17.581      864.464
08/26/2014  09:07:00       57.467       22.801       18.806       34.297       31.779       28.539     1176.318     1009.915      814.451        0.359        0.150       61.825       19.378        0.098      342.257       17.541      864.467
08/26/2014  09:08:00       24.888       24.232       20.026       23.677       24.267       24.647      560.591      588.898      607.473        0.168        0.088       34.736       12.803        0.136      342.566       18.065      864.462
08/26/2014  09:09:00       14.734       28.215       28.899       30.397       29.092       28.319      923.969      846.337      801.939        0.221        0.129       31.830       25.974        0.666      343.108       18.988      864.451
08/26/2014  09:10:00       45.663       28.195       24.947       26.556       25.757       24.880      705.222      663.409      619.004        0.274        0.099       53.666       15.341        0.082      342.907       18.647      864.447
08/26/2014  09:11:00       -1.100      -19.921       24.987       21.566       42.413       18.399      465.089     1798.889      338.518        0.181        0.130       19.951       17.023        0.728      343.156       19.070      864.444
08/26/2014  09:12:00        6.267       17.790       29.986       28.052       41.701       28.184      786.933     1739.008      794.331        0.229        0.166       18.862       17.517        0.863      343.298       19.312      864.441
08/26/2014  09:13:00       62.620       56.094       37.206       29.414       21.231       30.806      865.207      450.775      949.008        0.536        0.113       84.070       10.614        0.016      342.564       18.062      864.439
08/26/2014  09:14:00       12.898       51.994       10.606       31.133       43.081       32.603      969.260     1855.963     1062.940        0.343        0.194       53.570       15.083        0.079      342.629       18.173      864.438
08/26/2014  09:15:00       24.807       24.712       32.893       28.251       39.126       20.093      798.129     1530.852      403.709        0.252        0.137       35.015       16.953        0.234      342.934       18.691      864.445
08/26/2014  09:16:00       -9.980        8.449       24.748       26.101       36.265       23.739      681.244     1315.126      563.524        0.167        0.128       13.077       16.846        1.660      343.277       19.277      864.445
08/26/2014  09:17:00        0.858       19.083       43.979       20.943       24.249       17.408      438.608      588.000      303.054        0.181        0.066       19.102       14.550        0.580      343.919       20.370      864.456
08/26/2014  09:18:00       16.091       15.093       38.713       20.734       15.987       18.083      429.904      255.598      327.005        0.150        0.051       22.062       14.263        0.418      343.274       19.272      864.463
08/26/2014  09:19:00        5.821       13.194       29.054       25.430       22.597       23.228      646.673      510.626      539.548        0.137        0.085       14.421       12.429        0.743      343.520       19.691      864.461
08/26/2014  09:20:00      -21.437        6.627       33.162       27.264       26.770       29.085      743.322      716.638      845.939        0.195        0.115       22.438       23.695        1.115      343.065       18.914      864.467
08/26/2014  09:21:00       25.186      -11.694       41.616       39.138       63.142       45.876     1531.759     3986.897     2104.570        0.506        0.381       27.768       49.589        3.189      343.134       19.031      864.467
08/26/2014  09:22:00       69.851       70.122       24.016       50.826       27.372       40.648     2583.270      749.228     1652.231        0.768        0.249       98.976       33.114        0.112      342.502       17.957      864.457
08/26/2014  09:23:00       15.822       27.948       22.385       26.279       30.517       28.504      690.581      931.314      812.499        0.198        0.122       32.116       14.761        0.211      342.889       18.616      864.445
08/26/2014  09:24:00       29.527       -8.879       41.232       43.926       58.161       43.643     1929.496     3382.676     1904.723        0.493        0.361       30.833       45.482        2.176      343.376       19.446      864.437
08/26/2014  09:25:00        3.373       13.839       50.099       28.723       57.158       42.665      825.037     3267.055     1820.274        0.431        0.296       14.244       42.911        9.076      343.497       19.651      864.429
08/26/2014  09:26:00       -5.190       47.784       65.522       24.947       28.004       23.146      622.329      784.208      535.730        0.427        0.097       48.065       21.796        0.206      343.380       19.450      864.430
08/26/2014  09:27:00       -8.842        5.729       38.785       13.617       33.889       24.192      185.425     1148.496      585.229        0.177        0.096       10.536       19.531        3.436      343.790       20.150      864.426
08/26/2014  09:28:00      -44.750      -19.332        9.871       31.669       43.795       28.491     1002.901     1918.025      811.749        0.310        0.187       48.748       19.952        0.168      342.839       18.529      864.428
08/26/2014  09:29:00      -60.629      -94.173      -15.718       28.271       31.201       21.973      799.227      973.519      482.819        0.752        0.113      112.002       14.656        0.017      342.499       17.950      864.427
08/26/2014  09:30:00      -76.958      -37.987       -9.220       19.294       37.548       15.382      372.252     1409.863      236.595        0.473        0.101       85.823       18.265        0.045      342.417       17.811      864.427
08/26/2014  09:31:00      -20.467        2.999       22.197       29.773       28.227       23.491      886.443      796.788      551.829        0.158        0.112       20.686       22.808        1.216      343.363       19.421      864.424
08/26/2014  09:32:00      -15.099       34.810       22.320       29.384       29.397       42.924      863.397      864.209     1842.492        0.275        0.179       37.943       26.738        0.497      343.227       19.191      864.423
08/26/2014  09:33:00      -49.183      -19.121      -14.634       14.408       30.371       13.325      207.596      922.381      177.557        0.215        0.065       52.770        8.860        0.028      342.816       18.490      864.411
08/26/2014  09:34:00      -10.709        7.865       40.448       18.381       34.270       30.288      337.879     1174.425      917.346        0.212        0.121       13.287       26.950        4.114      343.670       19.947      864.422
08/26/2014  09:35:00       -5.709       -2.744       35.798       19.918       20.614       19.219      396.737      424.946      369.360        0.126        0.060        6.334       12.350        3.801      344.096       20.673      864.422
08/26/2014  09:36:00       10.016        7.904       40.262       33.932       19.484       27.269     1151.368      379.636      743.595        0.203        0.114       12.759       24.485        3.683      343.791       20.152      864.432
08/26/2014  09:37:00      -21.480        2.501       15.597       18.007       20.459       19.477      324.244      418.562      379.369        0.092        0.056       21.625       15.495        0.513      343.721       20.032      864.436
08/26/2014  09:38:00       -7.387      -16.106       28.699       24.575       28.079       28.850      603.943      788.438      832.320        0.168        0.111       17.719       20.997        1.404      344.011       20.528      864.439
08/26/2014  09:39:00        1.776       23.012       79.355       31.134       47.175       28.621      969.320     2225.439      819.138        0.542        0.201       23.080       27.958        1.467      344.226       20.894      864.444
08/26/2014  09:40:00       -9.556       14.841       71.475       27.219       47.067       26.403      740.852     2215.265      697.134        0.454        0.183       17.651       24.966        2.001      344.147       20.759      864.461
08/26/2014  09:41:00      -13.009        0.405       40.445       24.518       38.277       38.426      601.135     1465.107     1476.520        0.267        0.177       13.015       34.025        6.834      343.965       20.450      864.464
08/26/2014  09:42:00       19.831      -65.708       10.807       28.642       66.406       42.857      820.346     4409.769     1836.724        0.595        0.353       68.635       45.769        0.445      343.892       20.324      864.479
08/26/2014  09:43:00       20.519      -48.260      -15.274       25.023       65.059       33.673      626.136     4232.711     1133.851        0.449        0.300       52.441       19.022        0.132      343.465       19.594      864.481
08/26/2014  09:44:00       12.668       10.332       52.425       25.941       24.824       27.122      672.940      616.218      735.587        0.252        0.101       16.347       13.593        0.691      344.163       20.788      864.484
08/26/2014  09:45:00       21.260      -16.919       38.248       28.750       64.545       42.675      826.582     4166.038     1821.119        0.451        0.341       27.171       44.111        2.636      343.628       19.873      864.481
08/26/2014  09:46:00      -15.994     -111.927        8.131       41.608       51.501       34.605     1731.228     2652.328     1197.498        0.921        0.279      113.064       21.263        0.035      343.635       19.887      864.476
08/26/2014  09:47:00        8.686      -86.205       17.441       41.161       63.671       51.221     1694.220     4053.980     2623.586        0.809        0.419       86.642       42.293        0.238      343.938       20.402      864.466
08/26/2014  09:48:00       22.055      -88.513       -2.477       45.405       46.152       27.577     2061.590     2129.990      760.465        0.664        0.248       91.219       23.697        0.067      343.439       19.552      864.478
08/26/2014  09:49:00       14.827     -100.108       -7.114       57.205       65.678       27.918     3272.411     4313.575      779.413        0.933        0.418      101.200       33.132        0.107      343.535       19.714      864.475
08/26/2014  09:50:00       55.130     -111.809      -24.294       40.888       33.017       28.463     1671.853     1090.097      810.129        0.985        0.179      124.662       19.966        0.026      343.578       19.788      864.469
08/26/2014  09:51:00       14.423      -42.768       34.239       24.044       56.419       30.414      578.102     3183.048      925.006        0.395        0.234       45.135       18.320        0.165      343.899       20.336      864.471
08/26/2014  09:52:00        8.248      -16.807      -10.132       37.606       44.349       43.509     1414.202     1966.872     1893.017        0.286        0.264       18.721       21.941        1.373      343.643       19.899      864.478
08/26/2014  09:53:00       22.526       23.890       37.973       38.994       39.122       35.710     1520.549     1530.545     1275.207        0.342        0.216       32.835       27.413        0.697      343.853       20.258      864.480
08/26/2014  09:54:00       -5.334       -5.678       26.384       34.488       27.292       23.502     1189.390      744.867      552.329        0.162        0.124        7.790       17.915        5.289      344.239       20.917      864.477
08/26/2014  09:55:00       21.702      -62.334       16.138       30.570       31.196       25.570      934.512      973.159      653.802        0.359        0.128       66.004       17.567        0.071      343.880       20.305      864.472
08/26/2014  09:56:00       24.159      -79.463        6.797       30.832       47.064       25.205      950.620     2215.065      635.285        0.537        0.190       83.055       25.620        0.095      343.723       20.036      864.472
08/26/2014  09:57:00       16.174      -65.772       18.628       27.336       62.693       47.452      747.281     3930.450     2251.663        0.593        0.346       67.731       46.564        0.473      343.881       20.307      864.453
08/26/2014  09:58:00       36.572       73.462       55.962       30.695       43.518       34.963      942.209     1893.799     1222.443        0.696        0.203       82.062       24.254        0.087      343.682       19.968      864.464
08/26/2014  09:59:00       40.389       31.129       22.311       42.914       31.086       27.278     1841.638      966.352      744.065        0.332        0.178       50.993       24.625        0.233      343.772       20.120      864.465
08/26/2014  10:00:00       33.095       29.810       18.979       37.248       38.467       23.275     1387.430     1479.678      541.705        0.288        0.170       44.541       15.872        0.127      344.139       20.746      864.466
08/26/2014  10:01:00      -43.761      -15.759       -7.769       32.039       31.895       25.280     1026.472     1017.280      639.096        0.245        0.134       46.512       19.654        0.179      343.910       20.355      864.465
08/26/2014  10:02:00      -15.204      -15.705       31.737       32.661       29.430       20.645     1066.724      866.100      426.200        0.192        0.118       21.859       14.563        0.444      344.167       20.794      864.463
08/26/2014  10:03:00        6.527       59.395       79.021       30.590       49.664       28.546      935.736     2466.473      814.890        0.702        0.211       59.752       30.315        0.257      344.233       20.906      864.464
08/26/2014  10:04:00       14.944       10.099       42.756       27.417       49.323       23.248      751.706     2432.763      540.480        0.294        0.186       18.037       17.404        0.931      344.262       20.957      864.459
08/26/2014  10:05:00       12.470       49.392       62.664       45.915       43.139       37.074     2108.146     1860.953     1374.448        0.593        0.267       50.942       30.186        0.351      344.408       21.206      864.466
08/26/2014  10:06:00       33.640       37.290       57.536       49.865       69.381       49.539     2486.481     4813.705     2454.074        0.779        0.488       50.222       49.881        0.986      344.292       21.007      864.456
08/26/2014  10:07:00       41.294      -30.147       28.802       51.511       70.380       52.527     2653.338     4953.306     2759.079        0.690        0.518       51.128       49.841        0.950      344.292       21.007      864.463
08/26/2014  10:08:00       48.265       -6.285       51.969       47.439       42.817       41.361     2250.425     1833.270     1710.699        0.543        0.290       48.673       35.424        0.530      344.316       21.048      864.457
08/26/2014  10:09:00       62.390      -82.064       -1.063       57.357       63.799       42.899     3289.872     4070.317     1840.327        0.991        0.460      103.087       39.054        0.144      344.156       20.775      864.463
08/26/2014  10:10:00       31.086       42.472       62.606       37.163       52.750       29.821     1381.104     2782.528      889.264        0.587        0.253       52.633       23.143        0.193      344.533       21.420      864.466
08/26/2014  10:11:00       10.742       28.969       50.846       33.713       33.714       22.678     1136.592     1136.631      514.269        0.316        0.139       30.897       18.124        0.344      344.986       22.195      864.482
08/26/2014  10:12:00       48.543       57.078       32.217       55.223       43.247       48.477     3049.623     1870.276     2350.013        0.696        0.363       74.929       25.217        0.113      344.563       21.471      864.481
08/26/2014  10:13:00       36.776       39.974       36.094       39.026       43.774       36.357     1523.013     1916.201     1321.841        0.451        0.238       54.318       29.210        0.289      344.751       21.793      864.487
08/26/2014  10:14:00       74.945       61.741       27.050       66.566       31.553       49.920     4431.056      995.604     2491.964        0.904        0.396       97.102       45.884        0.223      344.292       21.009      864.494
08/26/2014  10:15:00       41.550       58.760       -0.384       39.736       40.531       31.315     1578.972     1642.781      980.633        0.469        0.210       71.966       27.055        0.141      344.109       20.696      864.503
08/26/2014  10:16:00      -10.906       28.776        4.488       25.861       36.860       25.104      668.812     1358.687      630.211        0.181        0.133       30.774       16.791        0.298      344.331       21.073      864.496
08/26/2014  10:17:00      -30.789       40.821       -3.762       29.988       25.259       21.902      899.259      638.015      479.695        0.232        0.101       51.130       20.190        0.156      344.263       20.957      864.494
08/26/2014  10:18:00      -83.298       24.456      -14.800       13.374       17.359       10.970      178.871      301.321      120.332        0.418        0.030       86.814        7.742        0.008      343.614       19.849      864.482
08/26/2014  10:19:00      -48.482      -40.743       -4.774       27.373       31.271       17.650      749.304      977.861      311.540        0.304        0.102       63.328       14.529        0.053      343.792       20.153      864.478
08/26/2014  10:20:00      -57.184      -29.698       -3.099       33.381       27.167       24.659     1114.305      738.038      608.089        0.331        0.123       64.436       22.313        0.120      343.931       20.392      864.468
08/26/2014  10:21:00      -24.004       -7.545      -11.210       13.268       16.145       21.259      176.042      260.672      451.924        0.082        0.044       25.161       13.163        0.274      344.175       20.808      864.468
08/26/2014  10:22:00        3.998        3.943        8.612       13.292       22.706       17.254      176.666      515.572      297.695        0.055        0.049        5.615       10.010        3.178      344.787       21.855      864.468
08/26/2014  10:23:00       -2.199       18.535       22.847       47.300       40.083       19.733     2237.264     1606.633      389.388        0.255        0.212       18.665       21.924        1.380      344.855       21.971      864.462
08/26/2014  10:24:00      -49.212       -5.255       16.827       43.766       38.022       36.570     1915.455     1445.662     1337.360        0.371        0.235       49.492       40.016        0.654      344.844       21.953      864.453
08/26/2014  10:25:00       49.005       38.572       45.108       93.514       61.384       45.819     8744.862     3767.943     2099.336        1.027        0.731       62.364       40.819        0.428      344.722       21.742      864.456
08/26/2014  10:26:00       77.566       40.189       40.094       63.120       52.924       50.093     3984.111     2800.934     2509.298        0.926        0.465       87.359       37.429        0.184      344.391       21.176      864.451
08/26/2014  10:27:00       72.002       63.187       41.479       67.618       42.978       29.796     4572.147     1847.096      887.810        0.910        0.365       95.796       18.904        0.039      344.630       21.585      864.441
08/26/2014  10:28:00       28.979       52.851       74.045       40.506       50.807       34.850     1640.759     2581.386     1214.491        0.728        0.272       60.275       23.001        0.146      345.114       22.415      864.430
08/26/2014  10:29:00       39.750       49.755       95.656       65.728       51.975       47.489     4320.178     2701.376     2255.228        1.124        0.464       63.684       40.110        0.397      344.737       21.770      864.444
08/26/2014  10:30:00       99.888       79.261       64.970       69.342       62.630       55.160     4808.249     3922.471     3042.592        1.612        0.589      127.514       45.671        0.128      344.391       21.177      864.440
08/26/2014  10:31:00        4.816       -5.359      -12.021       30.473       71.393       31.993      928.590     5097.016     1023.530        0.362        0.352        7.205       30.399       17.803      344.674       21.662      864.451
08/26/2014  10:32:00      -28.162       29.879        8.433       38.989       32.350       22.617     1520.158     1046.492      511.507        0.242        0.154       41.059       22.556        0.302      344.643       21.608      864.448
08/26/2014  10:33:00      -64.694      -15.625      -14.739       31.476       18.835       12.803      990.708      354.764      163.927        0.308        0.075       66.555       11.940        0.032      344.344       21.097      864.447
08/26/2014  10:34:00      -11.387       -1.046       15.731       26.721       27.089       25.176      713.994      733.801      633.811        0.123        0.104       11.435       19.921        3.035      345.170       22.510      864.446
08/26/2014  10:35:00      -42.961        1.513       -6.166       20.588       27.959       14.274      423.873      781.704      203.735        0.165        0.070       42.988       11.908        0.077      344.586       21.510      864.449
08/26/2014  10:36:00      -34.293        7.719       24.655       28.159       37.910       32.729      792.909     1437.157     1071.161        0.257        0.165       35.151       27.776        0.624      345.142       22.462      864.450
08/26/2014  10:37:00       54.469       38.804       29.114       72.708       45.269       38.253     5286.515     2049.308     1463.317        0.706        0.440       66.878       34.070        0.260      345.097       22.385      864.448
08/26/2014  10:38:00       96.787       90.231       11.526       55.233       39.199       37.700     3050.699     1536.571     1421.258        1.182        0.300      132.323       18.291        0.019      344.532       21.418      864.446
08/26/2014  10:39:00       10.119       24.712        8.535       39.038       50.822       30.831     1523.986     2582.923      950.526        0.292        0.253       26.703       11.965        0.201      344.909       22.062      864.437
08/26/2014  10:40:00      -33.987       22.149      -18.848       38.772       44.167       24.276     1503.243     1950.748      589.315        0.302        0.202       40.567       16.510        0.166      344.652       21.623      864.446
08/26/2014  10:41:00       -1.438       40.002      -14.444       33.754       35.098       30.050     1139.324     1231.865      903.001        0.254        0.164       40.027       23.722        0.351      344.965       22.159      864.441
08/26/2014  10:42:00        3.061      -16.610       11.559       31.532       36.382       26.885      994.252     1323.664      722.810        0.173        0.152       16.890       24.657        2.131      344.990       22.201      864.451
08/26/2014  10:43:00      -19.660       -4.920       29.592       20.401       22.313       20.839      416.188      497.860      434.280        0.132        0.067       20.266       15.274        0.568      345.676       23.378      864.442
08/26/2014  10:44:00      -47.965        8.762       -5.008       16.046       14.474       16.704      257.479      209.483      279.022        0.157        0.037       48.758        8.216        0.028      344.652       21.624      864.442
08/26/2014  10:45:00       48.877       46.224       10.811       53.997       50.542       30.477     2915.679     2554.450      928.844        0.552        0.320       67.273       29.481        0.192      345.099       22.389      864.442
08/26/2014  10:46:00       55.276       39.138       -6.799       30.337       34.618       26.339      920.335     1198.419      693.743        0.372        0.141       67.730       23.717        0.123      344.703       21.710      864.439
08/26/2014  10:47:00       53.692       37.319       -4.682       33.948       32.261       31.644     1152.486     1040.773     1001.373        0.375        0.160       65.388       22.417        0.118      345.209       22.576      864.449
08/26/2014  10:48:00       41.857       26.698       37.130       39.619       44.401       28.260     1569.640     1971.433      798.651        0.409        0.217       49.647       18.357        0.137      345.451       22.990      864.443
08/26/2014  10:49:00       52.490      -29.856       42.268       53.311       86.135       51.110     2842.114     7419.223     2612.276        0.915        0.644       60.387       55.198        0.836      345.636       23.309      864.443
08/26/2014  10:50:00       35.695      -33.386       37.142       45.494       70.233       48.476     2069.671     4932.634     2349.958        0.656        0.468       48.875       41.536        0.722      345.470       23.025      864.440
08/26/2014  10:51:00       90.050     -170.936       11.703       74.789      108.493       62.427     5593.445    11770.723     3897.142        2.936        1.063      193.205       61.317        0.101      344.987       22.193      864.426
08/26/2014  10:52:00       44.983       28.118       83.936       57.010      108.424       47.593     3250.188    11755.745     2265.082        1.356        0.864       53.048       44.019        0.689      345.490       23.057      864.427
08/26/2014  10:53:00      126.442      122.497       99.620       78.422       70.397       58.890     6149.981     4955.726     3468.071        2.774        0.729      176.048       53.237        0.091      344.687       21.678      864.430
08/26/2014  10:54:00      169.156       92.450       49.686       69.277       56.819       67.254     4799.357     3228.374     4523.034        2.609        0.628      192.771       51.009        0.070      344.866       21.986      864.440
08/26/2014  10:55:00       87.189      105.264       85.525       44.399       33.064       35.531     1971.298     1093.235     1262.473        1.516        0.216      136.683       25.672        0.035      344.673       21.659      864.446
08/26/2014  10:56:00       77.808      101.555        9.174       41.516       32.303       33.513     1723.568     1043.478     1123.113        1.017        0.195      127.936       20.550        0.026      344.506       21.373      864.451
08/26/2014  10:57:00       80.997       72.060       -3.457       34.217       30.808       27.735     1170.815      949.161      769.244        0.733        0.144      108.412       20.649        0.036      344.748       21.788      864.437
08/26/2014  10:58:00       33.263       17.161       50.675       45.749       77.416       47.466     2092.969     5993.205     2252.993        0.715        0.517       37.429       40.136        1.150      345.124       22.431      864.434
08/26/2014  10:59:00       38.083      -25.080       27.630       41.651       57.284       38.340     1734.788     3281.420     1469.989        0.466        0.324       45.600       31.566        0.479      345.571       23.197      864.407
08/26/2014  11:00:00       68.379       55.590       24.032       63.507       60.522       39.695     4033.142     3662.922     1575.666        0.881        0.464       88.125       23.141        0.069      345.324       22.772      864.403
08/26/2014  11:01:00       89.001      111.508       -4.554       69.096       55.062       53.501     4774.291     3031.835     2862.318        1.552        0.533      142.672       45.593        0.102      345.067       22.334      864.391
08/26/2014  11:02:00       53.791       86.010        3.013       59.992       63.176       50.748     3599.022     3991.186     2575.404        1.023        0.508      101.445       42.737        0.177      345.267       22.675      864.399
08/26/2014  11:03:00       17.702       94.617       -1.227       33.253       59.195       34.752     1105.741     3504.032     1207.719        0.754        0.291       96.258       31.849        0.109      345.162       22.496      864.403
08/26/2014  11:04:00       20.626      105.449      -11.340       39.023       65.166       38.675     1522.795     4246.555     1495.750        0.947        0.363      107.448       31.304        0.085      344.980       22.184      864.403
08/26/2014  11:05:00        9.131      110.832        0.598       35.610       75.535       39.409     1268.061     5705.519     1553.097        1.045        0.426      111.207       45.634        0.168      345.338       22.797      864.385
08/26/2014  11:06:00       31.949      169.993       -5.718       50.263       89.414       52.052     2526.332     7994.866     2709.444        2.159        0.662      172.969       41.865        0.059      345.094       22.377      864.382
08/26/2014  11:07:00       34.530       28.915       18.945       46.421       41.950       32.231     2154.924     1759.805     1038.816        0.367        0.248       45.038       21.688        0.232      345.418       22.934      864.396
08/26/2014  11:08:00       -1.136       41.279       15.549       45.707       42.778       33.481     2089.165     1829.952     1120.998        0.349        0.252       41.294       32.226        0.609      345.564       23.185      864.394
08/26/2014  11:09:00      -56.191      -45.351      -10.027       20.611       56.931       21.724      424.794     3241.109      471.914        0.473        0.207       72.209       23.086        0.102      344.798       21.872      864.395
08/26/2014  11:10:00      -18.425      -65.364       16.636       61.742       33.913       34.123     3812.127     1150.072     1164.350        0.551        0.306       67.911       37.988        0.313      345.031       22.271      864.378
08/26/2014  11:11:00      -20.930      -22.916        3.386       49.522       37.165       28.749     2452.441     1381.203      826.499        0.282        0.233       31.036       11.836        0.145      345.463       23.014      864.380
08/26/2014  11:12:00       80.848       45.865       35.906       73.225       58.727       41.919     5361.939     3448.878     1757.179        1.025        0.528       92.952       30.506        0.108      345.650       23.331      864.368
08/26/2014  11:13:00       57.636       89.605       71.315       76.587       71.419       48.753     5865.627     5100.650     2376.854        1.489        0.667      106.541       37.995        0.127      345.797       23.583      864.359
08/26/2014  11:14:00       35.783      -25.990       45.974       76.544      119.102       54.742     5858.974    14185.336     2996.683        1.355        1.152       44.225       57.372        1.683      345.516       23.101      864.357
08/26/2014  11:15:00      113.030      -61.567        3.730       66.313       84.556       48.250     4397.428     7149.688     2328.050        1.522        0.694      128.710       27.164        0.045      345.087       22.367      864.380
08/26/2014  11:16:00       64.588      -52.044       26.447       64.387      104.229       65.158     4145.650    10863.583     4245.568        1.341        0.963       82.947       66.356        0.640      345.471       23.025      864.353
08/26/2014  11:17:00       57.668      -19.960       34.714       60.734       80.820       62.284     3688.648     6531.797     3879.356        0.951        0.705       61.024       65.442        1.150      345.502       23.078      864.353
08/26/2014  11:18:00       70.934       41.731       67.737       53.906      106.369       54.857     2905.862    11314.390     3009.251        1.429        0.861       82.299       65.594        0.635      345.378       22.868      864.354
08/26/2014  11:19:00       22.225       47.183      101.576       63.473       61.573       47.838     4028.847     3791.200     2288.489        1.157        0.505       52.156       43.700        0.702      345.724       23.458      864.345
08/26/2014  11:20:00       25.921        9.500       65.347       71.212      120.267       75.754     5071.181    14464.063     5738.717        1.515        1.264       27.607       86.143        9.736      345.772       23.541      864.339
08/26/2014  11:21:00      112.197       73.428       74.088       72.290      111.703       59.089     5225.900    12477.463     3491.528        2.233        1.060      134.089       66.417        0.245      345.058       22.316      864.327
08/26/2014  11:22:00      121.723       71.975       30.058       79.494       55.359       58.106     6319.300     3064.609     3376.338        1.683        0.638      141.410       43.103        0.093      345.328       22.779      864.324
08/26/2014  11:23:00       16.658       84.847       60.559       45.148       62.677       67.213     2038.330     3928.453     4517.549        1.081        0.524       86.467       31.779        0.135      345.888       23.739      864.306
08/26/2014  11:24:00       94.435       78.199       27.089       82.780       59.032       55.321     6852.487     3484.835     3060.372        1.458        0.670      122.610       36.123        0.087      345.937       23.822      864.312
08/26/2014  11:25:00      112.666       74.940       12.632       85.430       61.845       49.490     7298.204     3824.760     2449.270        1.602        0.679      135.314       31.150        0.053      345.354       22.823      864.339
08/26/2014  11:26:00       -5.080      168.411      -13.587       32.053       62.793       31.117     1027.367     3942.945      968.245        1.725        0.297      168.487       36.699        0.047      345.303       22.738      864.346
08/26/2014  11:27:00       81.366      132.834       32.660       81.452       70.465       61.779     6634.418     4965.280     3816.599        2.037        0.771      155.773       30.906        0.039      345.499       23.073      864.344
08/26/2014  11:28:00      150.571       96.448       -7.701       67.177       58.540       44.518     4512.783     3426.976     1981.815        2.098        0.496      178.813       23.486        0.017      345.383       22.873      864.346
08/26/2014  11:29:00       64.787       66.873       23.487       70.533       56.117       40.191     4974.923     3149.103     1615.336        0.948        0.487       93.109       34.462        0.137      345.380       22.868      864.361
08/26/2014  11:30:00      -85.553       79.307       -9.723       52.667       45.630       31.393     2773.799     2082.066      985.516        0.977        0.292      116.657       32.603        0.078      345.394       22.894      864.358
08/26/2014  11:31:00       81.409       94.790       11.951       80.219       52.468       37.762     6435.035     2752.885     1425.936        1.318        0.531      124.950       28.408        0.052      345.363       22.838      864.366
08/26/2014  11:32:00       96.061      117.294      -12.403       45.218       45.362       49.383     2044.667     2057.733     2438.697        1.484        0.327      151.611       16.869        0.012      345.208       22.574      864.359
08/26/2014  11:33:00       88.192       43.559        9.077       49.914       45.847       40.522     2491.413     2101.920     1642.009        0.800        0.312       98.362       28.072        0.081      345.013       22.239      864.358
08/26/2014  11:34:00        6.633      -94.562       -7.220       40.241       44.602       23.538     1619.373     1989.377      554.053        0.660        0.208       94.794       19.475        0.042      344.763       21.812      864.328
08/26/2014  11:35:00      -97.184      -45.765       10.897       98.200       61.714       40.372     9643.335     3808.564     1629.917        1.337        0.754      107.421       41.532        0.149      345.182       22.529      864.278
08/26/2014  11:36:00      -88.730      -28.680        5.153       52.790       40.578       25.754     2786.808     1646.587      663.272        0.691        0.255       93.250       20.771        0.050      345.295       22.724      864.283
08/26/2014  11:37:00      -34.978      -74.513        1.528       28.225       38.853       17.385      796.644     1509.530      302.222        0.469        0.130       82.314       19.539        0.056      345.157       22.486      864.278
08/26/2014  11:38:00      -28.219       13.499       28.102       71.142       44.954       45.077     5061.220     2020.822     2031.922        0.544        0.456       31.282       45.847        2.148      345.837       23.654      864.254
08/26/2014  11:39:00        5.514        2.918       57.770       33.701       51.817       32.020     1135.726     2685.045     1025.303        0.411        0.242        6.238       20.445       10.741      346.573       24.918      864.237
08/26/2014  11:40:00       -2.660       -1.150       57.328       52.357       47.550       36.817     2741.218     2261.035     1355.474        0.483        0.318        2.898       22.408       59.796      346.590       24.948      864.217
08/26/2014  11:41:00       99.588     -150.608       -3.176       89.933      151.297       65.514     8087.912    22890.861     4292.149        3.393        1.764      180.556       74.944        0.172      345.698       23.413      864.216
08/26/2014  11:42:00      104.522        0.986       69.173      109.229      180.383      129.607    11931.004    32537.893    16797.996        3.848        3.063      104.527      152.535        2.130      345.563       23.181      864.214
08/26/2014  11:43:00      118.502        9.879       45.755       92.692      118.024       59.656     8591.749    13929.636     3558.810        2.115        1.304      118.913       66.161        0.310      345.675       23.374      864.235
08/26/2014  11:44:00      203.992      131.489       45.717       72.262       61.573       52.120     5221.834     3791.221     2716.523        3.636        0.586      242.697       41.107        0.029      345.349       22.812      864.225
08/26/2014  11:45:00      124.955      102.667       13.045       80.698       73.582       53.489     6512.177     5414.352     2861.104        2.055        0.739      161.722       48.355        0.089      345.443       22.975      864.227
08/26/2014  11:46:00       35.886       11.309       64.721       53.071      100.124       53.470     2816.499    10024.765     2859.012        1.065        0.785       37.626       54.223        2.077      345.705       23.426      864.200
08/26/2014  11:47:00       91.711      126.777      116.262       89.242       86.466       75.653     7964.179     7476.361     5723.356        2.958        1.058      156.472       73.198        0.219      345.695       23.407      864.187
08/26/2014  11:48:00      248.452       99.483       58.797      129.901       93.761       88.161    16874.395     8791.035     7772.437        5.425        1.672      267.629       63.418        0.056      345.643       23.316      864.175
08/26/2014  11:49:00      208.602      131.451       91.266      200.184      101.480       80.404    40073.756    10298.253     6464.818        6.297        2.842      246.565       72.096        0.085      346.035       23.989      864.153
08/26/2014  11:50:00      223.554      134.040       96.453      131.734      126.969       98.960    17353.793    16121.056     9793.081        6.025        2.163      260.659       74.899        0.083      345.469       23.019      864.174
08/26/2014  11:51:00      145.458      107.911       83.585      116.122       79.406       59.500    13484.260     6305.273     3540.288        3.155        1.166      181.116       53.594        0.088      345.729       23.466      864.200
08/26/2014  11:52:00      123.093       73.315       15.253       77.095       69.795       60.096     5943.628     4871.294     3611.478        1.759        0.721      143.273       37.465        0.068      345.814       23.613      864.201
08/26/2014  11:53:00       63.585       23.165       13.814       54.482       62.549       30.268     2968.303     3912.355      916.181        0.628        0.390       67.673       27.268        0.162      345.639       23.315      864.198
08/26/2014  11:54:00       28.792       37.099       -0.766       38.940       35.379       26.187     1516.359     1251.687      685.776        0.283        0.173       46.961       15.797        0.113      345.865       23.701      864.175
08/26/2014  11:55:00       97.725       84.952       -7.372       90.520       67.815       54.941     8193.829     4598.834     3018.505        1.631        0.791      129.488       47.898        0.137      345.831       23.642      864.162
08/26/2014  11:56:00       75.610       94.109       18.759       82.155       66.240       49.654     6749.366     4387.697     2465.484        1.426        0.680      120.720       37.056        0.094      345.683       23.388      864.161
08/26/2014  11:57:00      120.331       88.344       19.672       72.559       72.810       55.750     5264.859     5301.230     3108.096        1.817        0.684      149.279       39.791        0.071      345.683       23.387      864.148
08/26/2014  11:58:00      199.242      153.323       18.835       87.304       66.297       61.672     7622.055     4395.232     3803.460        3.969        0.791      251.407       38.108        0.023      345.568       23.188      864.150
08/26/2014  11:59:00       77.420      162.682      -11.146       62.242       84.626       52.613     3874.103     7161.581     2768.138        2.319        0.690      180.165       46.066        0.065      345.539       23.141      864.156
08/26/2014  12:00:00       11.876       52.679       12.800       40.884       36.480       31.967     1671.485     1330.787     1021.873        0.355        0.201       54.001       22.289        0.170      345.800       23.590      864.151
08/26/2014  12:01:00      145.204      105.384       50.845      111.703       70.923       57.711    12477.598     5030.019     3330.523        2.780        1.042      179.416       23.586        0.017      345.612       23.265      864.141
08/26/2014  12:02:00       85.631      129.611      143.227       95.487      102.050       67.754     9117.802    10414.189     4590.661        3.438        1.206      155.344       64.234        0.171      345.990       23.913      864.123
08/26/2014  12:03:00       -3.629       16.240       70.060       33.963       77.534       39.952     1153.487     6011.511     1596.151        0.697        0.438       16.641       43.936        6.971      346.297       24.444      864.130
08/26/2014  12:04:00        3.700        0.517        6.091       26.644       54.926       29.066      709.917     3016.860      844.808        0.231        0.229        3.736       16.864       20.372      346.164       24.215      864.110
08/26/2014  12:05:00       20.052       40.103       51.362       33.375       43.243       34.879     1113.909     1869.923     1216.543        0.442        0.210       44.837       12.725        0.081      346.604       24.972      864.104
08/26/2014  12:06:00       59.959       43.212       27.543       80.321       50.543       44.708     6451.537     2554.600     1998.828        0.861        0.550       73.908       18.313        0.061      346.257       24.376      864.092
08/26/2014  12:07:00       66.825       19.822       16.966       75.581       84.826       50.889     5712.520     7195.430     2589.681        1.032        0.775       69.703       44.935        0.416      346.200       24.277      864.082
08/26/2014  12:08:00      196.219      136.575      119.049      153.329      105.633       98.784    23509.789    11158.252     9758.298        5.787        2.221      239.070       99.498        0.173      345.718       23.444      864.061
08/26/2014  12:09:00       57.408      167.110      166.520       90.874      105.207       54.912     8258.170    11068.516     3015.299        4.064        1.117      176.696       51.030        0.083      345.943       23.832      864.052
08/26/2014  12:10:00      129.894      168.494      131.945      113.375      103.348       94.317    12853.876    10680.813     8895.605        4.754        1.622      212.750       81.778        0.148      345.919       23.789      864.058
08/26/2014  12:11:00       65.598       57.283       78.678       90.973       65.617       53.137     8276.169     4305.591     2823.572        1.459        0.770       87.088       50.485        0.336      346.242       24.348      864.085
08/26/2014  12:12:00       48.246      -37.342       43.393       58.809       86.047       50.148     3458.546     7404.064     2514.819        0.949        0.669       61.009       50.400        0.682      345.894       23.751      864.091
08/26/2014  12:13:00      -37.349      -95.266        9.087       43.859       48.948       38.711     1923.573     2395.936     1498.539        0.818        0.291      102.325       33.795        0.109      345.550       23.163      864.078
08/26/2014  12:14:00       31.050     -162.989      -23.155       75.575       76.302       43.685     5711.625     5821.959     1908.396        2.075        0.672      165.920       35.952        0.047      346.016       23.958      864.061
08/26/2014  12:15:00       48.665     -114.016      -19.881       41.132       70.510       26.444     1691.815     4971.607      699.295        1.156        0.368      123.967       30.814        0.062      345.588       23.226      864.063
08/26/2014  12:16:00      -30.188      -47.314        9.774       39.443       37.050       26.227     1555.773     1372.699      687.836        0.343        0.181       56.124       13.244        0.056      346.181       24.244      864.037
08/26/2014  12:17:00      -23.204       30.681       11.332       46.788       48.418       33.694     2189.148     2344.334     1135.288        0.364        0.283       38.467       28.650        0.555      346.453       24.712      864.035
08/26/2014  12:18:00      -11.578       44.419       12.494       33.671       50.642       32.323     1133.721     2564.645     1044.765        0.350        0.237       45.904       21.399        0.217      346.590       24.949      864.034
08/26/2014  12:19:00       57.196       69.140       60.422      100.188       56.092       74.764    10037.641     3146.321     5589.640        1.523        0.939       89.731       56.401        0.395      346.139       24.171      864.016
08/26/2014  12:20:00       77.104     -117.615       18.953       74.884      101.124       63.334     5607.679    10226.097     4011.219        1.999        0.992      140.635       70.144        0.249      346.072       24.056      864.008
08/26/2014  12:21:00       56.890     -116.662        8.933       68.129      111.942       54.174     4641.509    12531.039     2934.833        1.851        1.005      129.794       69.003        0.283      345.810       23.607      864.001
08/26/2014  12:22:00       94.020     -131.909        0.496       78.493      133.301       58.711     6161.127    17769.065     3446.948        2.680        1.369      161.987       72.328        0.199      345.923       23.799      863.972
08/26/2014  12:23:00       67.996      -17.310       42.538       70.023       79.747       53.546     4903.242     6359.564     2867.207        1.043        0.707       70.165       59.393        0.717      346.016       23.961      863.959
08/26/2014  12:24:00        4.221       28.245       49.926       36.444       45.739       35.621     1328.194     2092.101     1268.889        0.400        0.234       28.558       33.084        1.342      346.577       24.925      863.936
08/26/2014  12:25:00       -8.939       35.611       73.477       25.458       39.174       30.147      648.085     1534.569      908.839        0.492        0.155       36.716       24.612        0.449      346.908       25.494      863.931
08/26/2014  12:26:00       17.581       21.381       87.002       40.809       67.674       37.628     1665.407     4579.811     1415.873        0.800        0.383       27.681       37.785        1.863      346.298       24.446      863.927
08/26/2014  12:27:00       73.068      139.980       -5.674       88.267       67.336       72.128     7791.101     4534.198     5202.424        2.124        0.876      157.903       31.824        0.041      345.721       23.453      863.908
08/26/2014  12:28:00      -42.028      185.341      -27.666       55.851       53.830       30.842     3119.372     2897.677      951.206        2.192        0.348      190.047       21.687        0.013      345.587       23.222      863.895
08/26/2014  12:29:00       -5.495      213.171      -30.702       39.047       47.527       26.607     1524.637     2258.825      707.943        2.545        0.225      213.242       19.066        0.008      345.423       22.941      863.879
08/26/2014  12:30:00      -31.789      143.024       -7.990       29.837       55.929       34.496      890.248     3128.041     1189.981        1.337        0.260      146.515       29.344        0.040      345.937       23.824      863.852
08/26/2014  12:31:00      -86.793      194.860      -14.529       52.169       75.133       48.177     2721.621     5645.038     2320.977        2.820        0.534      213.315       45.873        0.046      345.886       23.734      863.829
08/26/2014  12:32:00      -92.696      217.998      -15.809       41.566       67.853       45.853     1727.707     4604.088     2102.503        3.240        0.422      236.887       39.232        0.027      346.005       23.938      863.830
08/26/2014  12:33:00      -64.811       82.209        2.095       56.339       62.951       47.354     3174.133     3962.851     2242.379        1.017        0.469      104.684       49.798        0.226      346.497       24.788      863.824
08/26/2014  12:34:00     -128.053        2.922      -14.628       56.090       51.155       29.225     3146.122     2616.790      854.085        1.162        0.331      128.087       31.312        0.060      345.871       23.710      863.820
08/26/2014  12:35:00     -151.763      -33.557       -7.067       49.868       59.477       26.790     2486.867     3537.559      717.689        1.547        0.337      155.429       10.077        0.004      346.163       24.212      863.817
08/26/2014  12:36:00     -114.370      -89.804        6.252       94.715       62.306       49.980     8970.918     3882.040     2498.020        1.826        0.768      145.414       46.825        0.104      346.165       24.215      863.815
08/26/2014  12:37:00     -164.269     -142.256      -15.771       72.377       65.687       34.737     5238.364     4314.767     1206.625        2.911        0.538      217.304       31.073        0.020      345.657       23.340      863.793
08/26/2014  12:38:00     -279.033     -166.199      -18.436      107.227       81.444       50.028    11497.728     6633.091     2502.779        6.322        1.032      324.780       53.763        0.027      345.631       23.295      863.753
08/26/2014  12:39:00     -158.528     -152.664      -15.177       95.893       95.573       39.066     9195.562     9134.222     1526.187        3.426        0.993      220.085       44.259        0.040      345.785       23.562      863.747
08/26/2014  12:40:00     -103.085     -149.959       15.170       88.835      120.146       49.728     7891.655    14435.101     2472.920        2.907        1.240      181.974       52.308        0.083      346.088       24.082      863.721
08/26/2014  12:41:00        0.787       -3.022       22.267       45.630       42.975       34.635     2082.097     1846.849     1199.571        0.282        0.256        3.122       26.892       74.175      346.794       25.299      863.713
08/26/2014  12:42:00       -3.725      -31.008       30.981       27.545       46.745       31.188      758.744     2185.122      972.702        0.293        0.196       31.231       33.452        1.147      347.184       25.970      863.723
08/26/2014  12:43:00       56.474      -28.988       30.071       58.978       57.561       41.898     3478.442     3313.317     1755.452        0.674        0.427       63.479       38.206        0.362      346.622       25.003      863.722
08/26/2014  12:44:00      102.088       36.326       48.103       72.659       99.949       40.064     5279.306     9989.871     1605.149        1.546        0.844      108.358       40.885        0.142      346.354       24.540      863.729
08/26/2014  12:45:00       37.246       42.308       53.354       46.773       42.502       20.033     2187.748     1806.435      401.334        0.521        0.220       56.367       10.194        0.033      346.596       24.958      863.740
08/26/2014  12:46:00       95.670     -121.509       -3.694       68.406       84.131       45.933     4679.415     7077.956     2109.863        1.890        0.693      154.651       36.303        0.055      346.550       24.876      863.729
08/26/2014  12:47:00      117.658      -56.355       27.841       84.338      102.433       57.475     7112.906    10492.575     3303.417        1.935        1.045      130.458       47.252        0.131      346.278       24.409      863.747
08/26/2014  12:48:00       12.184       45.139       58.681       29.756       40.360       25.106      885.406     1628.928      630.320        0.439        0.157       46.755       15.334        0.108      346.661       25.069      863.780
08/26/2014  12:49:00       11.055      -33.777       29.888       29.570       50.082       33.039      874.413     2508.234     1091.595        0.331        0.224       35.540       30.706        0.746      346.725       25.180      863.774
08/26/2014  12:50:00       34.481       19.288       39.746       34.339       41.835       24.558     1179.180     1750.142      603.089        0.334        0.177       39.509        9.532        0.058      346.815       25.335      863.776
08/26/2014  12:51:00        8.653       20.181        3.705       57.907       37.080       21.486     3353.175     1374.897      461.646        0.284        0.259       21.958       21.342        0.945      346.432       24.675      863.783
08/26/2014  12:52:00       -4.525       29.531       47.846       34.926       42.325       32.378     1219.827     1791.408     1048.308        0.362        0.203       29.875       27.194        0.829      347.263       26.105      863.774
08/26/2014  12:53:00       80.094       67.958       15.603       64.964       51.883       43.347     4220.385     2691.804     1878.933        1.003        0.440      105.039       19.632        0.035      346.534       24.851      863.765
08/26/2014  12:54:00       49.301      -44.160       -1.804       39.989      101.261       41.588     1599.104    10253.786     1729.531        0.898        0.679       66.187       40.766        0.379      346.503       24.798      863.742
08/26/2014  12:55:00       22.754      -23.143       59.540       60.255       86.895       64.493     3630.699     7550.794     4159.384        0.997        0.767       32.455       31.520        0.943      346.869       25.428      863.713
08/26/2014  12:56:00       38.919     -129.996       -0.977       65.927       73.532       39.595     4346.345     5406.969     1567.794        1.487        0.566      135.697       41.580        0.094      346.485       24.765      863.704
08/26/2014  12:57:00       51.589     -130.411        1.127       43.810       69.146       31.095     1919.295     4781.147      966.928        1.367        0.383      140.244       24.110        0.030      345.981       23.900      863.701
08/26/2014  12:58:00      -61.889       91.402       -0.203       67.285       85.717       48.734     4527.224     7347.387     2375.041        1.321        0.712      110.383       52.662        0.228      346.680       25.102      863.721
08/26/2014  12:59:00     -178.082      132.257      -40.877      135.492      104.286       61.506    18358.188    10875.658     3783.018        4.194        1.651      221.822       73.177        0.109      346.376       24.576      863.701
08/26/2014  13:00:00      -85.489       18.729       -7.020       88.348       52.325       45.279     7805.397     2737.948     2050.210        1.015        0.630       87.516       52.219        0.356      346.363       24.556      863.721
08/26/2014  13:01:00      -72.094       24.330       -5.647       69.169      125.804       36.356     4784.293    15826.612     1321.752        1.387        1.097       76.088       31.682        0.173      346.205       24.284      863.700
08/26/2014  13:02:00        7.127       27.289       25.725       76.555       60.433       44.733     5860.689     3652.096     2001.015        0.648        0.576       28.204       36.062        1.635      346.549       24.877      863.682
08/26/2014  13:03:00      -32.620       36.681       -6.838       60.930       36.260       32.930     3712.474     1314.806     1084.407        0.428        0.306       49.087       34.684        0.499      346.644       25.040      863.708
08/26/2014  13:04:00       -9.549      -15.673       23.812       43.501       54.243       29.274     1892.338     2942.354      856.947        0.330        0.285       18.353       25.407        1.916      347.017       25.681      863.699
08/26/2014  13:05:00     -112.015      -50.571        8.688       87.552       60.287       35.032     7665.333     3634.577     1227.209        1.385        0.626      122.901       48.650        0.157      346.365       24.562      863.701
08/26/2014  13:06:00      -95.128       -9.751      -15.607       49.666       39.324       26.467     2466.708     1546.371      700.496        0.705        0.236       95.626       29.516        0.095      345.980       23.898      863.707
08/26/2014  13:07:00      -43.892       24.013      -16.950       28.229       29.566       20.425      796.872      874.134      417.170        0.244        0.104       50.031       14.648        0.086      346.174       24.233      863.693
08/26/2014  13:08:00      -22.115       48.158       11.100       60.452       53.139       30.330     3654.434     2823.774      919.882        0.516        0.370       52.993       31.337        0.350      346.892       25.466      863.692
08/26/2014  13:09:00      -74.699       39.229       -0.695       77.041       45.155       33.883     5935.364     2039.004     1148.048        0.812        0.456       84.373       43.967        0.272      346.905       25.489      863.705
08/26/2014  13:10:00      -99.940       50.480      -21.446       90.084       47.431       32.291     8115.042     2249.664     1042.723        1.220        0.570      111.966       27.248        0.059      346.414       24.643      863.683
08/26/2014  13:11:00       45.689      174.660       -8.499      193.065      121.614       74.511    37273.928    14790.050     5551.895        4.513        2.881      180.537       83.576        0.214      347.062       25.757      863.668
08/26/2014  13:12:00      126.806      138.387       19.833      109.185       90.940       61.890    11921.463     8270.125     3830.432        2.982        1.201      187.699       49.114        0.068      346.694       25.124      863.690
08/26/2014  13:13:00        3.432      374.768      -39.580       78.308      160.821       54.912     6132.146    25863.522     3015.381        8.851        1.751      374.784       80.812        0.046      346.333       24.502      863.706
08/26/2014  13:14:00      -86.332      429.317      -47.659       73.731      122.156       50.559     5436.256    14921.969     2556.227       10.847        1.146      437.911       54.398        0.015      346.105       24.110      863.724
08/26/2014  13:15:00      -20.470      189.578      -18.051       75.420      102.431       50.377     5688.240    10492.061     2537.814        2.770        0.936      190.680       49.812        0.068      346.421       24.655      863.732
08/26/2014  13:16:00      195.052      144.213       27.056       93.519       60.450       71.665     8745.712     3654.229     5135.804        3.855        0.877      242.575       44.172        0.033      346.293       24.433      863.702
08/26/2014  13:17:00       91.733      126.280       -1.736      125.292       56.113       55.502    15698.120     3148.692     3080.504        2.314        1.096      156.082       62.663        0.161      346.250       24.361      863.684
08/26/2014  13:18:00      -96.805      199.073      -30.599       83.800      104.055       50.739     7022.466    10827.456     2574.444        3.518        1.021      221.362       46.705        0.045      346.510       24.807      863.710
08/26/2014  13:19:00      -50.936      360.666      -32.665       74.338      100.515       53.305     5526.158    10103.362     2841.381        7.610        0.924      364.245       50.180        0.019      346.311       24.463      863.716
08/26/2014  13:20:00      153.207      242.559        1.352      168.308      119.998       80.558    28327.566    14399.483     6489.616        6.575        2.461      286.893       68.887        0.058      346.606       24.972      863.689
08/26/2014  13:21:00      307.006      198.490       35.671      122.485      103.505       84.150    15002.629    10713.354     7081.262        8.385        1.640      365.583       44.166        0.015      346.453       24.709      863.687
08/26/2014  13:22:00      103.099      120.384       -4.146      109.067       74.788       44.653    11895.535     5593.205     1993.932        2.231        0.974      158.499       36.147        0.052      346.630       25.014      863.731
08/26/2014  13:23:00       46.817       28.852       29.506       61.164       84.114       57.523     3740.990     7075.096     3308.885        0.901        0.706       54.993       39.267        0.510      346.741       25.206      863.697
08/26/2014  13:24:00       26.210       33.394       80.922       75.125       69.918       44.255     5643.816     4888.474     1958.488        1.042        0.625       42.452       41.322        0.947      346.848       25.390      863.648
08/26/2014  13:25:00       51.173       -5.294       52.410       77.948      109.188       56.638     6075.831    11921.930     3207.851        1.330        1.060       51.446       60.728        1.393      347.091       25.810      863.613
08/26/2014  13:26:00       26.999      -45.451       23.594       51.509       60.013       44.467     2653.158     3601.594     1977.291        0.579        0.412       52.865       43.372        0.673      346.930       25.534      863.600
08/26/2014  13:27:00       13.107      234.223       -7.758       46.957      209.968       74.462     2204.969    44086.653     5544.662        5.345        2.592      234.589      115.175        0.241      346.791       25.293      863.606
08/26/2014  13:28:00       98.587      177.684        8.072       95.145      145.116       85.773     9052.606    21058.668     7356.994        3.940        1.873      203.202       95.122        0.219      346.572       24.914      863.608
08/26/2014  13:29:00      123.266      157.729        2.392       92.109       90.993       59.376     8484.025     8279.713     3525.557        3.018        1.014      200.182       53.463        0.071      346.667       25.078      863.623
08/26/2014  13:30:00      134.707      115.628       17.185       91.691       50.339       63.761     8407.248     2534.003     4065.421        2.341        0.750      177.527       58.184        0.107      346.668       25.080      863.608
08/26/2014  13:31:00       38.992       32.885       14.321       57.441       84.661       43.974     3299.503     7167.427     1933.731        0.760        0.620       51.009       30.174        0.350      346.943       25.555      863.595
08/26/2014  13:32:00      -67.372       94.159       -8.415       60.698       56.711       33.414     3684.284     3216.123     1116.489        1.074        0.401      115.779       24.590        0.045      346.752       25.226      863.606
08/26/2014  13:33:00      -88.342       32.036      -26.124       61.202       58.824       17.834     3745.642     3460.236      318.035        0.852        0.376       93.971       19.332        0.042      346.126       24.149      863.591
08/26/2014  13:34:00     -156.558      -91.457       -7.437       61.290       45.759       34.421     3756.524     2093.866     1184.790        1.998        0.352      181.314       38.980        0.046      346.298       24.444      863.575
08/26/2014  13:35:00     -106.703      -98.289      -15.020       67.883       42.919       29.113     4608.051     1842.064      847.551        1.428        0.365      145.073       31.501        0.047      346.150       24.190      863.561
08/26/2014  13:36:00      -18.995     -101.039       19.349       49.327       89.304       40.159     2433.201     7975.280     1612.776        1.148        0.601      102.809       44.533        0.188      346.434       24.679      863.536
08/26/2014  13:37:00      -52.531     -108.301       -4.824       47.041      111.747       36.164     2212.825    12487.442     1307.867        1.526        0.800      120.369       19.949        0.027      346.105       24.113      863.537
08/26/2014  13:38:00     -211.808        8.173       -4.295      123.117       86.497       53.103    15157.772     7481.724     2819.901        3.520        1.273      211.965       53.297        0.063      346.371       24.568      863.545
08/26/2014  13:39:00     -294.202       40.102      -32.903       69.134       51.190       28.320     4779.556     2620.415      802.038        4.872        0.410      296.923       28.036        0.009      346.132       24.156      863.553
08/26/2014  13:40:00     -201.721      -40.282      -13.808       61.247       73.566       33.964     3751.173     5411.923     1153.567        2.641        0.516      205.704       29.558        0.021      346.483       24.760      863.536
08/26/2014  13:41:00     -184.538     -106.655      -18.752       58.611       46.279       30.976     3435.221     2141.735      959.503        2.616        0.327      213.142       28.426        0.018      346.110       24.117      863.526
08/26/2014  13:42:00      -97.987      -53.664        2.398       49.551       38.854       32.631     2455.272     1509.663     1064.765        0.876        0.251      111.719       23.341        0.044      346.287       24.426      863.522
08/26/2014  13:43:00      -44.345        8.725      -17.517       33.673       20.862       26.562     1133.848      435.238      705.525        0.231        0.114       45.195       19.002        0.177      346.359       24.550      863.524
08/26/2014  13:44:00      -12.728       44.445       -3.734       42.033       90.724       34.045     1766.764     8230.911     1159.036        0.665        0.558       46.232       40.588        0.771      346.583       24.934      863.538
08/26/2014  13:45:00      -88.836      155.926      -28.336       62.625       92.854       49.504     3921.925     8621.921     2450.693        2.400        0.750      179.457       51.406        0.082      346.468       24.736      863.515
08/26/2014  13:46:00      -62.929      213.569      -21.205       67.625       82.506       47.061     4573.192     6807.195     2214.694        3.181        0.680      222.647       45.023        0.041      346.641       25.032      863.495
08/26/2014  13:47:00       87.037      149.055       -0.878       85.961       98.657       67.556     7389.357     9733.107     4563.827        2.574        1.084      172.606       60.443        0.123      346.666       25.076      863.495
08/26/2014  13:48:00      -39.698      249.979      -36.315       49.634       82.589       34.927     2463.535     6821.001     1219.876        3.794        0.525      253.112       40.718        0.026      346.263       24.381      863.481
08/26/2014  13:49:00      -50.972      194.172      -16.151       54.707       60.640       33.117     2992.872     3677.196     1096.753        2.416        0.388      200.750       32.092        0.026      346.289       24.427      863.472
08/26/2014  13:50:00       20.108      163.194      -20.099       33.021       29.684       33.224     1090.389      881.158     1103.834        1.526        0.154      164.428       20.924        0.016      346.256       24.373      863.456
08/26/2014  13:51:00       61.278       56.049       -1.004       26.260       35.618       29.119      689.584     1268.629      847.906        0.485        0.140       83.045       12.584        0.023      346.319       24.482      863.429
08/26/2014  13:52:00       -8.820      -18.472       16.476       30.965       27.379       22.618      958.827      749.630      511.591        0.145        0.111       20.470       12.769        0.389      346.660       25.068      863.394
08/26/2014  13:53:00      -27.964       39.926       -1.953       39.514       39.771       32.133     1561.337     1581.736     1032.537        0.328        0.209       48.745       16.559        0.115      346.802       25.313      863.360
08/26/2014  13:54:00      -56.019       89.640       10.296       54.002       80.210       46.450     2916.228     6433.632     2157.600        1.139        0.575      105.705       33.533        0.101      346.879       25.445      863.362
08/26/2014  13:55:00      110.915      132.218        5.551       78.802       65.388       43.087     6209.828     4275.640     1856.452        2.108        0.617      172.579       32.905        0.036      346.576       24.922      863.353
08/26/2014  13:56:00      389.600      206.046      105.652      194.720      152.389      127.882    37915.951    23222.469    16353.772       14.143        3.875      440.730      101.383        0.053      346.640       25.031      863.262
08/26/2014  13:57:00      154.254      238.348        4.099      212.970      162.348       85.805    45356.104    26357.034     7362.465        7.983        3.954      283.908       90.155        0.101      346.946       25.558      863.314
08/26/2014  13:58:00      -37.676      492.697      -62.072       67.981      111.277       46.733     4621.469    12382.558     2183.989       13.360        0.959      494.135       56.729        0.013      346.310       24.462      863.382
08/26/2014  13:59:00        1.648      399.882      -69.431       66.446      101.913       41.108     4415.076    10386.347     1689.887        9.061        0.825      399.886       29.883        0.006      346.192       24.258      863.374
08/26/2014  14:00:00       25.368      160.710        0.239       68.245       92.396       66.670     4657.385     8536.937     4444.880        2.205        0.882      162.700       62.385        0.147      346.735       25.194      863.368
08/26/2014  14:01:00      -25.679      151.345      -19.168       74.366       90.485       38.949     5530.278     8187.552     1517.035        1.958        0.762      153.508       41.742        0.074      346.586       24.939      863.376
08/26/2014  14:02:00     -124.343      158.444      -24.294       84.657       69.077       42.989     7166.841     4771.565     1848.090        2.747        0.689      201.409       50.682        0.063      346.533       24.847      863.362
08/26/2014  14:03:00       56.346      194.009      -13.043       79.930      124.965       66.062     6388.839    15616.155     4364.135        3.367        1.318      202.026       69.039        0.117      346.685       25.109      863.370
08/26/2014  14:04:00       80.255      193.176      -15.182       92.315       78.529       62.445     8522.119     6166.848     3899.353        3.128        0.929      209.184       52.636        0.063      346.544       24.866      863.380
08/26/2014  14:05:00       52.313       83.764       -0.424       80.907       66.061       48.125     6545.915     4364.080     2316.015        1.149        0.661       98.758       34.917        0.125      346.574       24.918      863.378
08/26/2014  14:06:00      129.264       84.150        9.258       55.380       54.867       41.726     3066.991     3010.436     1741.079        1.585        0.391      154.242       19.746        0.016      346.701       25.136      863.370
08/26/2014  14:07:00      219.822      139.930       11.335       68.177       45.466       43.864     4648.080     2067.196     1924.023        3.833        0.432      260.580       17.170        0.004      346.375       24.572      863.356
08/26/2014  14:08:00      154.038       91.010       25.138       75.780       69.465       48.183     5742.665     4825.432     2321.642        2.276        0.644      178.915       29.290        0.027      346.242       24.346      863.345
08/26/2014  14:09:00      127.254       89.801       11.466      105.165       67.313       45.684    11059.673     4530.979     2087.068        2.103        0.884      155.749       26.402        0.029      346.364       24.557      863.339
08/26/2014  14:10:00       -3.201       10.006       29.458       19.804       18.155       14.987      392.189      329.609      224.619        0.096        0.047       10.506        8.744        0.693      347.469       26.461      863.337
08/26/2014  14:11:00      -11.006       33.624       12.368       40.910       34.863       21.306     1673.623     1215.402      453.963        0.237        0.167       35.380       11.536        0.106      347.461       26.447      863.346
08/26/2014  14:12:00      -15.805      201.837      -20.014       78.010       92.067       42.755     6085.512     8476.252     1828.023        2.889        0.819      202.455       42.388        0.044      346.578       24.923      863.382
08/26/2014  14:13:00      -50.779       -3.046      -10.371       79.546       32.557       19.668     6327.544     1059.964      386.837        0.523        0.389       50.871        4.953        0.009      346.396       24.613      863.359
08/26/2014  14:14:00      -15.105      -90.301       -2.703       59.516       46.982       28.989     3542.202     2207.338      840.336        0.749        0.329       91.556       24.417        0.071      346.522       24.829      863.298
08/26/2014  14:15:00      -30.783     -110.935       -9.723       27.991       35.160       24.092      783.513     1236.230      580.410        0.797        0.130      115.127       19.990        0.030      346.401       24.621      863.262
08/26/2014  14:16:00      -47.877      -52.163       -8.853       45.113       31.620       24.653     2035.196      999.855      607.794        0.437        0.182       70.804       14.549        0.042      346.509       24.808      863.234
08/26/2014  14:17:00      -44.188       16.584        9.057       35.821       39.686       26.449     1283.165     1574.971      699.534        0.293        0.178       47.197       21.958        0.216      346.967       25.596      863.220
08/26/2014  14:18:00      -14.590        0.723       -3.951       33.187       28.680       25.164     1101.382      822.544      633.227        0.139        0.128       14.607       17.195        1.386      346.845       25.386      863.212
08/26/2014  14:19:00      -17.994       97.785       -1.953       30.673       73.373       30.425      940.837     5383.629      925.659        0.857        0.363       99.427       24.083        0.059      346.950       25.565      863.181
08/26/2014  14:20:00       12.974      136.374      -15.813       47.659       65.272       32.830     2271.356     4260.440     1077.818        1.331        0.380      136.990       33.854        0.061      346.928       25.529      863.179
08/26/2014  14:21:00      161.861      146.618        2.783      100.683       60.030       51.783    10137.049     3603.651     2681.528        3.206        0.821      218.393       33.879        0.024      346.592       24.948      863.165
08/26/2014  14:22:00       36.983       67.077       -4.144       60.459       48.959       40.359     3655.324     2396.959     1628.847        0.678        0.384       76.597       36.388        0.226      346.923       25.521      863.156
08/26/2014  14:23:00       22.843       41.797       17.746       57.541       42.665       32.503     3311.019     1820.308     1056.477        0.438        0.309       47.632       17.565        0.136      347.111       25.844      863.126
08/26/2014  14:24:00        8.117      -24.199       18.281       40.030       53.819       30.035     1602.429     2896.456      902.108        0.319        0.270       25.524       16.361        0.411      347.050       25.739      863.087
08/26/2014  14:25:00      -34.196      -41.278       23.724       40.236       72.508       40.223     1618.897     5257.371     1617.874        0.596        0.425       53.603       27.198        0.257      347.220       26.032      863.049
08/26/2014  14:26:00       32.894        1.976       13.568       52.831       36.750       40.031     2791.110     1350.544     1602.499        0.351        0.287       32.953       30.099        0.834      346.912       25.501      863.044
08/26/2014  14:27:00       90.351       68.652       53.851       59.862       51.231       55.494     3583.400     2624.629     3079.580        1.253        0.464      113.474       43.818        0.149      346.807       25.320      863.034
08/26/2014  14:28:00      224.105      140.628       71.484      116.822       73.978       74.653    13647.317     5472.676     5573.137        4.990        1.235      264.574       64.401        0.059      346.520       24.824      863.015
08/26/2014  14:29:00       48.842      -49.817       52.169       62.460      100.551       41.962     3901.207    10110.583     1760.808        1.168        0.789       69.766       47.436        0.462      346.762       25.244      863.014
08/26/2014  14:30:00       92.038     -104.242       10.279       62.743       69.828       45.122     3936.721     4876.003     2036.036        1.514        0.542      139.059       47.374        0.116      346.700       25.136      862.982
08/26/2014  14:31:00       -7.077       -1.927       15.341       60.253       60.771       23.811     3630.432     3693.063      566.953        0.409        0.395        7.335       24.932       11.555      346.821       25.344      862.976
08/26/2014  14:32:00       10.129       35.522       34.366       29.952       39.642       31.264      897.118     1571.450      977.456        0.300        0.172       36.938       17.239        0.218      347.034       25.712      862.971
08/26/2014  14:33:00       -6.843       43.678       -3.503       30.838       41.548       23.697      950.996     1726.255      561.556        0.260        0.162       44.211       26.967        0.372      346.936       25.543      862.940
08/26/2014  14:34:00       32.126      -65.592       25.041       70.971       79.829       46.351     5036.896     6372.617     2148.449        0.976        0.678       73.037       43.231        0.350      347.150       25.910      862.921
08/26/2014  14:35:00      110.742      -45.622       36.099      100.025       92.800       54.919    10005.075     8611.836     3016.088        1.864        1.082      119.771       68.447        0.327      346.917       25.509      862.915
08/26/2014  14:36:00       -0.325       -3.066       -8.160       26.045       38.394       17.223      678.340     1474.116      296.625        0.126        0.122        3.083       10.226       11.001      346.660       25.067      862.943
08/26/2014  14:37:00      -39.292       34.119        1.048       69.585       51.739       33.061     4842.027     2676.901     1093.004        0.566        0.431       52.038       38.634        0.551      347.321       26.205      862.961
08/26/2014  14:38:00       45.255      282.282      -27.640       66.990      136.383       63.620     4487.659    18600.203     4047.533        5.481        1.357      285.887       71.737        0.063      346.799       25.303      862.960
08/26/2014  14:39:00      -60.503      218.312      -19.399       77.850      106.888       52.604     6060.596    11425.081     2767.157        3.597        1.013      226.541       57.124        0.064      347.009       25.665      862.951
08/26/2014  14:40:00      -77.735      168.254      -30.883      146.492       82.065       51.146    21459.856     6734.721     2615.867        3.305        1.541      185.343       70.727        0.146      346.857       25.403      862.970
08/26/2014  14:41:00      -62.736      227.461      -21.171       70.523      218.621       57.789     4973.433    47795.246     3339.523        5.610        2.805      235.954       85.345        0.131      347.092       25.809      862.932
08/26/2014  14:42:00     -118.301      340.039      -45.200       67.204      115.846       42.185     4516.325    13420.194     1779.613        7.569        0.986      360.030       51.757        0.021      346.581       24.928      862.990
08/26/2014  14:43:00      -32.288       59.980       -8.525       50.718      105.329       33.543     2572.281    11094.156     1125.118        0.975        0.740       68.118       45.992        0.456      346.576       24.922      862.991
08/26/2014  14:44:00      -80.575      102.151       -2.802       61.182       70.447       38.008     3743.211     4962.814     1444.578        1.354        0.508      130.105       39.410        0.092      346.998       25.646      862.935
08/26/2014  14:45:00      -65.726       72.532      -31.313       46.503       78.861       27.311     2162.573     6219.136      745.909        0.984        0.456       97.882       36.405        0.138      346.566       24.906      862.915
08/26/2014  14:46:00     -103.363       94.547      -13.789       81.923       63.404       38.188     6711.411     4020.118     1458.326        1.600        0.609      140.082       37.380        0.071      346.911       25.500      862.879
08/26/2014  14:47:00      -53.505       -8.127       -6.250       49.006       32.995       35.983     2401.604     1088.643     1294.782        0.388        0.239       54.118       22.622        0.175      347.123       25.864      862.839
08/26/2014  14:48:00     -125.135      -16.514      -18.521       73.770       50.270       34.822     5441.971     2527.097     1212.582        1.273        0.459      126.220       28.081        0.049      346.749       25.219      862.824
08/26/2014  14:49:00      -22.978       30.475       17.357       52.369       68.713       38.204     2742.517     4721.504     1459.579        0.534        0.446       38.167       30.062        0.620      347.164       25.934      862.819
08/26/2014  14:50:00      105.130      131.631        8.841       76.524       87.299       53.374     5855.861     7621.037     2848.764        2.239        0.816      168.461       43.993        0.068      347.138       25.888      862.821
08/26/2014  14:51:00       74.239      232.355      -22.096      111.798      164.656       64.661    12498.788    27111.549     4181.040        5.188        2.190      243.927       81.186        0.111      347.022       25.686      862.800
08/26/2014  14:52:00      195.855      158.638       18.936      150.566      110.288       88.514    22670.013    12163.408     7834.693        5.327        2.133      252.042       74.401        0.087      347.268       26.110      862.774
08/26/2014  14:53:00      177.453      118.184       27.059      101.764       85.117       65.479    10355.847     7244.937     4287.436        3.403        1.094      213.207       44.827        0.044      347.188       25.972      862.758
08/26/2014  14:54:00      227.674      191.318       16.651      154.197      101.391       80.694    23776.710    10280.170     6511.452        6.463        2.028      297.386       52.980        0.032      347.102       25.824      862.783
08/26/2014  14:55:00       75.422      115.920       21.344      108.615      105.645       72.299    11797.297    11160.884     5227.096        2.388        1.409      138.296       62.373        0.203      347.246       26.073      862.787
08/26/2014  14:56:00       55.186      377.135      -46.425      103.572      200.277       89.183    10727.061    40111.023     7953.665       10.310        2.940      381.151       97.360        0.065      346.852       25.394      862.821
08/26/2014  14:57:00      114.072      112.573       -0.614      123.381       96.186       63.238    15222.984     9251.652     3999.092        2.707        1.424      160.265       50.297        0.098      347.009       25.665      862.801
08/26/2014  14:58:00       77.411      150.750       -1.321       80.507      110.212       62.524     6481.433    12146.680     3909.215        2.562        1.127      169.464       67.389        0.158      346.927       25.525      862.798
08/26/2014  14:59:00       86.892      142.145       -3.266       68.399      104.321       50.446     4678.426    10882.970     2544.771        2.293        0.905      166.599       48.144        0.084      346.693       25.121      862.798
08/26/2014  15:00:00       18.846       87.919       -7.428       67.146       64.107       34.927     4508.571     4109.716     1219.886        0.899        0.492       89.916       31.562        0.123      346.981       25.618      862.779
08/26/2014  15:01:00       27.648       24.728        7.993       31.490       33.230       32.260      991.648     1104.208     1040.721        0.229        0.157       37.093       20.848        0.316      346.992       25.639      862.757
08/26/2014  15:02:00       -5.182       30.141        0.113       31.260       32.613       22.260      977.184     1063.598      495.486        0.174        0.127       30.583       14.630        0.229      347.277       26.131      862.726
08/26/2014  15:03:00     -191.386      -56.608       -0.479      128.343       67.407       42.595    16471.964     4543.691     1814.343        3.133        1.141      199.582       47.137        0.056      347.170       25.943      862.688
08/26/2014  15:04:00     -167.033      -89.685       -5.349      100.327       77.415       46.295    10065.506     5993.158     2143.246        2.708        0.910      189.588       39.963        0.044      347.150       25.908      862.660
08/26/2014  15:05:00     -177.649      -74.517      -12.284       72.779       58.399       31.918     5296.824     3410.421     1018.738        2.349        0.486      192.645       26.220        0.019      346.826       25.350      862.664
08/26/2014  15:06:00     -209.957      -70.453      -11.560       54.665       59.861       34.250     2988.301     3583.369     1173.040        2.846        0.387      221.462       24.635        0.012      346.681       25.099      862.638
08/26/2014  15:07:00     -213.830      -70.006      -17.858       35.945       47.175       26.748     1292.044     2225.441      715.456        2.759        0.212      224.998       21.485        0.009      346.463       24.726      862.630
08/26/2014  15:08:00     -233.859      -31.001       -5.172       62.642       58.371       37.125     3924.046     3407.140     1378.229        3.219        0.435      235.905       37.084        0.025      346.762       25.239      862.622
08/26/2014  15:09:00     -178.728      -78.366       -9.273       55.809       35.517       28.507     3114.630     1261.438      812.675        2.168        0.259      195.154       22.237        0.013      346.567       24.906      862.623
08/26/2014  15:10:00     -208.030      -75.441      -16.176       74.719       55.771       34.950     5582.907     3110.436     1221.532        2.957        0.496      221.287       30.668        0.019      346.683       25.103      862.624
08/26/2014  15:11:00      -45.681      -72.764       14.374       86.211       57.682       50.569     7432.311     3327.245     2557.186        1.045        0.666       85.915       46.695        0.295      347.002       25.656      862.636
08/26/2014  15:12:00      -12.164      -26.430       19.965       43.859       43.760       35.505     1923.650     1914.913     1260.582        0.317        0.255       29.094       29.923        1.058      347.336       26.232      862.645
08/26/2014  15:13:00       -2.516      -29.730       27.251       36.419       31.310       33.411     1326.336      980.292     1116.326        0.253        0.171       29.836       26.804        0.807      347.178       25.960      862.640
08/26/2014  15:14:00      -14.641      -28.441        2.361       20.837       19.770       19.417      434.199      390.854      377.007        0.112        0.060       31.989       10.573        0.109      346.811       25.329      862.641
08/26/2014  15:15:00      123.522      111.195       23.597      130.353       83.071       55.482    16991.856     6900.712     3078.280        2.757        1.349      166.199       49.774        0.090      347.118       25.854      862.656
08/26/2014  15:16:00       60.512      143.738       -0.250       76.063       90.401       58.140     5785.542     8172.286     3380.298        2.083        0.867      155.956       62.327        0.160      346.960       25.583      862.638
08/26/2014  15:17:00       35.532       32.014       18.361       48.321       35.934       30.305     2334.890     1291.263      918.376        0.358        0.227       47.826       21.169        0.196      347.116       25.853      862.603
08/26/2014  15:18:00      163.901      106.408       23.401      136.113       84.123       59.560    18526.660     7076.711     3547.414        3.394        1.458      195.413       49.037        0.063      346.879       25.441      862.580
08/26/2014  15:19:00      154.667       73.608        9.913       91.581       49.282       42.817     8386.991     2428.756     1833.302        2.104        0.632      171.289       23.928        0.020      346.853       25.398      862.576
08/26/2014  15:20:00      -30.175       79.415       -1.892       40.660       48.675       40.838     1653.206     2369.295     1667.738        0.645        0.285       84.955       30.775        0.131      347.057       25.751      862.577
08/26/2014  15:21:00      -74.315      -30.981       -3.270       99.871       59.693       38.422     9974.247     3563.300     1476.257        1.075        0.751       80.514       39.934        0.246      347.459       26.442      862.570
08/26/2014  15:22:00     -105.641        3.752       22.482      102.274       97.658       49.795    10460.019     9537.170     2479.585        1.707        1.124      105.708       66.114        0.391      347.402       26.343      862.563
08/26/2014  15:23:00      -92.422      -16.865       -7.944       74.827       42.405       24.351     5599.095     1798.156      592.970        0.844        0.400       93.948       29.009        0.095      347.268       26.114      862.560
08/26/2014  15:24:00        2.986      134.475       25.886       49.570      104.653       52.968     2457.231    10952.259     2805.609        1.749        0.811      134.508       59.558        0.196      347.127       25.869      862.564
08/26/2014  15:25:00      -75.914       90.224        6.142       98.312      100.231       55.206     9665.188    10046.270     3047.754        1.835        1.138      117.912       58.291        0.244      347.417       26.371      862.573
08/26/2014  15:26:00      -69.146      268.339      -40.601       90.474      160.386       43.356     8185.507    25723.741     1879.699        5.710        1.789      277.104       52.939        0.036      347.070       25.771      862.578
08/26/2014  15:27:00       37.277      268.323      -31.614       53.031      107.096       53.984     2812.324    11469.502     2914.234        4.579        0.860      270.900       60.422        0.050      346.811       25.325      862.557
08/26/2014  15:28:00        9.976      150.067       -2.686       47.793       69.494       41.795     2284.212     4829.351     1746.852        1.574        0.443      150.398       41.832        0.077      346.972       25.604      862.523
08/26/2014  15:29:00      -55.624      183.132      -20.604      117.203      114.037       54.139    13736.447    13004.349     2931.070        3.336        1.484      191.393       58.722        0.094      347.303       26.174      862.525
08/26/2014  15:30:00      -72.346      483.620      -58.127       96.254      140.464       60.262     9264.866    19730.022     3631.490       13.756        1.631      489.001       62.228        0.016      346.943       25.552      862.544
08/26/2014  15:31:00      -94.552      327.517      -54.187       90.893      141.866       51.766     8261.534    20126.072     2679.732        7.510        1.553      340.892       54.161        0.025      346.811       25.322      862.568
08/26/2014  15:32:00      -85.561      221.776      -30.997       60.709      107.732       44.651     3685.569    11606.278     1993.675        3.737        0.864      237.708       49.012        0.043      347.023       25.690      862.571
08/26/2014  15:33:00      -80.986       27.276       -6.645       78.752       54.559       41.183     6201.932     2976.707     1696.001        0.911        0.544       85.456       53.135        0.387      347.136       25.887      862.535
08/26/2014  15:34:00     -107.845      164.750      -22.779       83.203       86.511       43.222     6922.751     7484.103     1868.142        2.778        0.814      196.909       49.199        0.062      347.227       26.040      862.537
08/26/2014  15:35:00     -170.020      213.981      -30.946       89.240       81.163       54.918     7963.697     6587.445     3016.014        4.661        0.878      273.303       43.890        0.026      347.131       25.874      862.555
08/26/2014  15:36:00     -138.401      287.236      -41.206       87.509      131.041       56.403     7657.851    17171.804     3181.274        6.568        1.401      318.841       61.493        0.037      346.862       25.412      862.559
08/26/2014  15:37:00      -98.001      283.382      -42.698       98.954      128.737       51.290     9791.835    16573.343     2630.632        6.036        1.450      299.849       48.919        0.027      346.986       25.624      862.541
08/26/2014  15:38:00      -17.141      382.724      -50.350       91.296       82.285       43.790     8334.957     6770.843     1917.600        8.316        0.851      383.108       35.303        0.008      346.745       25.210      862.524
08/26/2014  15:39:00     -121.249      167.952      -32.010       77.500      117.230       48.095     6006.189    13742.963     2313.166        3.299        1.103      207.145       50.240        0.059      347.057       25.747      862.529
08/26/2014  15:40:00      -52.883       97.863      -12.685       46.722       92.613       44.474     2182.944     8577.220     1977.974        1.263        0.637      111.237       25.716        0.053      347.252       26.087      862.518
08/26/2014  15:41:00       13.604      135.343       17.657       69.147       74.009       48.358     4781.279     5477.265     2338.511        1.570        0.630      136.025       49.550        0.133      347.142       25.897      862.494
08/26/2014  15:42:00     -157.888       30.242      -26.851       71.563       53.501       34.117     5121.309     2862.363     1163.939        1.785        0.457      160.758       29.189        0.033      347.420       26.377      862.476
08/26/2014  15:43:00     -143.488      148.676      -24.530       62.626       83.873       40.194     3922.012     7034.720     1615.580        2.793        0.629      206.624       38.368        0.034      347.244       26.069      862.460
08/26/2014  15:44:00      -92.540      206.656      -23.192       56.108       59.443       43.002     3148.136     3533.456     1849.198        3.017        0.427      226.430       33.357        0.022      347.275       26.122      862.476
08/26/2014  15:45:00     -135.008      141.884      -19.042       57.680       71.760       41.443     3326.946     5149.520     1717.521        2.446        0.510      195.853       28.372        0.021      347.256       26.090      862.480
08/26/2014  15:46:00     -165.280       43.927      -10.558      102.819      173.633       56.870    10571.736    30148.467     3234.219        3.665        2.198      171.017       60.798        0.126      347.195       25.986      862.469
08/26/2014  15:47:00     -162.186       28.201      -12.923       86.600      124.073       57.163     7499.528    15394.218     3267.608        2.671        1.308      164.620       69.455        0.178      347.011       25.669      862.471
08/26/2014  15:48:00      -99.870      141.595      -28.345       64.545      125.549       52.235     4166.111    15762.432     2728.445        2.674        1.133      173.272       57.827        0.111      347.256       26.091      862.464
08/26/2014  15:49:00      -89.106      201.721      -13.125       92.767      119.052       60.076     8605.714    14173.339     3609.153        3.759        1.319      220.525       59.637        0.073      347.302       26.171      862.482
08/26/2014  15:50:00      -39.348      255.568      -32.842       65.416       53.764       35.931     4279.291     2890.602     1291.001        3.820        0.423      258.579       22.377        0.007      347.147       25.900      862.501
08/26/2014  15:51:00       -9.779      234.507      -27.417       49.150       78.902       41.811     2415.754     6225.546     1748.160        3.311        0.519      234.711       38.824        0.027      347.153       25.912      862.502
08/26/2014  15:52:00        1.698      120.177      -17.511       65.817      106.184       51.503     4331.875    11275.069     2652.597        1.650        0.913      120.189       54.850        0.208      347.314       26.193      862.504
08/26/2014  15:53:00      -43.795       71.520       -6.277       44.961       55.738       35.353     2021.521     3106.761     1249.851        0.672        0.319       83.864       32.786        0.153      347.373       26.294      862.491
08/26/2014  15:54:00       -9.313      109.112       -3.983       77.112       81.045       62.382     5946.283     6568.286     3891.553        1.420        0.820      109.509       62.250        0.323      347.403       26.346      862.479
08/26/2014  15:55:00      -22.577      127.083        4.431       62.551       91.500       50.535     3912.633     8372.290     2553.792        1.576        0.742      129.073       48.875        0.143      347.303       26.174      862.477
08/26/2014  15:56:00      -86.856      290.664      -36.142      119.652      153.884       48.996    14316.517    23680.421     2400.626        6.686        2.020      303.364       52.384        0.030      347.208       26.008      862.489
08/26/2014  15:57:00       17.449       95.046       18.021       92.012       70.835       60.076     8466.236     5017.624     3609.142        1.337        0.855       96.634       48.665        0.254      347.339       26.236      862.489
08/26/2014  15:58:00       95.545       94.972       11.690      105.797       61.707       50.498    11193.009     3807.809     2550.037        1.791        0.878      134.717       33.886        0.063      347.190       25.977      862.478
08/26/2014  15:59:00      -19.646      158.825      -14.809       56.580       70.521       46.336     3201.267     4973.172     2147.057        1.807        0.516      160.036       12.416        0.006      347.395       26.333      862.468
08/26/2014  16:00:00     -132.804       70.241      -22.454       69.040       66.464       37.792     4766.485     4417.513     1428.256        1.684        0.531      150.236       37.339        0.062      347.054       25.743      862.465
08/26/2014  16:01:00       54.599      108.517        0.286       76.913       59.187       39.396     5915.553     3503.114     1552.067        1.286        0.549      121.478       38.657        0.101      347.047       25.732      862.442
08/26/2014  16:02:00       11.116      120.039       -1.607       54.703       52.954       42.472     2992.426     2804.117     1803.855        1.107        0.380      120.553       35.398        0.086      346.957       25.578      862.412
08/26/2014  16:03:00       25.171       53.554        7.675       49.956       50.284       28.072     2495.568     2528.460      788.050        0.469        0.291       59.174       30.324        0.263      347.002       25.655      862.399
08/26/2014  16:04:00       14.459       18.203        6.297       27.778       20.119       19.203      771.607      404.788      368.744        0.106        0.077       23.247       15.966        0.472      347.258       26.097      862.408
08/26/2014  16:05:00       -5.043       82.849        0.178       31.601       34.869       27.556      998.608     1215.826      759.353        0.493        0.149       83.002       22.050        0.071      347.413       26.364      862.421
08/26/2014  16:06:00        5.210       70.586        2.852       50.398       59.328       29.426     2539.940     3519.858      865.885        0.597        0.346       70.778       26.886        0.144      347.564       26.623      862.428
08/26/2014  16:07:00      -73.558      130.970       -6.070       67.852       99.091       51.645     4603.868     9819.057     2667.177        1.984        0.855      150.213       51.944        0.120      347.786       27.007      862.420
08/26/2014  16:08:00       -7.504      198.480       -5.848       63.092      158.851       53.473     3980.573    25233.763     2859.386        3.577        1.604      198.622       73.142        0.136      347.481       26.479      862.443
08/26/2014  16:09:00       43.307      330.714      -33.226       76.447      140.977       63.476     5844.133    19874.378     4029.243        7.104        1.487      333.538       68.151        0.042      346.971       25.599      862.413
08/26/2014  16:10:00       28.511      244.752      -25.269       69.302      118.314       55.985     4802.828    13998.118     3134.297        4.164        1.097      246.407       64.762        0.069      346.953       25.569      862.383
08/26/2014  16:11:00      287.155      210.849       27.650      115.492       91.427       94.393    13338.330     8358.862     8910.076        7.914        1.530      356.252       67.017        0.035      347.161       25.925      862.377
08/26/2014  16:12:00      268.906      171.376       28.271      127.439       93.296       75.438    16240.815     8704.120     5690.880        6.655        1.532      318.873       35.881        0.013      347.046       25.727      862.379
08/26/2014  16:13:00      220.679      137.681       20.692       94.383       90.757       63.056     8908.109     8236.750     3976.050        4.460        1.056      260.106       34.467        0.018      346.984       25.622      862.390
08/26/2014  16:14:00      164.268      146.208       17.234      108.671       93.095       76.366    11809.328     8666.655     5831.758        3.748        1.315      219.911       58.335        0.070      347.216       26.022      862.394
08/26/2014  16:15:00       82.095      139.886       -7.668       88.344      126.938       67.518     7804.677    16113.226     4558.648        2.742        1.424      162.196       65.241        0.162      347.260       26.098      862.404
08/26/2014  16:16:00      123.461      187.720       -4.286      110.599      120.409       79.411    12232.205    14498.266     6306.098        4.176        1.652      224.680       75.368        0.113      346.972       25.600      862.397
08/26/2014  16:17:00      100.505      182.253       -3.563       98.217       91.747       62.745     9646.523     8417.456     3936.872        3.266        1.100      208.128       56.375        0.073      346.921       25.513      862.400
08/26/2014  16:18:00      155.611       68.376       32.909       58.835       60.648       47.099     3461.552     3678.186     2218.355        1.966        0.468      169.971       33.295        0.038      346.853       25.397      862.373
08/26/2014  16:19:00       41.652       -5.196       68.827       48.871       66.974       41.792     2388.398     4485.556     1746.558        0.756        0.431       41.975       42.527        1.026      347.135       25.885      862.340
08/26/2014  16:20:00        6.258      -20.726       35.183       36.223       64.595       43.196     1312.090     4172.490     1865.857        0.453        0.368       21.650       34.038        2.472      347.561       26.619      862.323
08/26/2014  16:21:00       49.433       21.065       46.908       36.536       46.679       42.525     1334.859     2178.937     1808.380        0.520        0.266       53.734       37.229        0.480      347.100       25.825      862.336
08/26/2014  16:22:00       83.347       28.087       28.965       49.202       31.125       33.172     2420.852      968.773     1100.399        0.653        0.225       87.952       24.227        0.076      347.032       25.708      862.337
08/26/2014  16:23:00       76.433       28.327       14.812       54.847       39.065       29.400     3008.154     1526.082      864.341        0.613        0.270       81.513       29.969        0.135      347.097       25.820      862.337
08/26/2014  16:24:00       31.542       20.279       51.354       46.286       69.099       35.189     2142.435     4774.702     1238.301        0.610        0.408       37.499       38.061        1.030      347.462       26.449      862.317
08/26/2014  16:25:00       45.402       44.947       36.797       40.387       33.673       31.907     1631.121     1133.902     1018.032        0.461        0.189       63.887       26.771        0.176      347.432       26.397      862.294
08/26/2014  16:26:00        2.232       25.098       38.725       49.737       47.693       41.430     2473.792     2274.600     1716.415        0.430        0.323       25.197       18.089        0.515      347.630       26.739      862.286
08/26/2014  16:27:00       73.558       89.633       32.561       72.032       37.730       39.075     5188.679     1423.532     1526.864        1.132        0.407      115.952       30.851        0.071      347.342       26.242      862.283
08/26/2014  16:28:00      121.462       89.835       39.160       63.821       55.155       46.934     4073.073     3042.050     2202.836        1.684        0.466      151.074       25.436        0.028      347.361       26.273      862.268
08/26/2014  16:29:00      235.161      178.758       19.250      131.932       81.157       67.617    17406.077     6586.391     4572.069        5.809        1.428      295.390       42.930        0.021      347.323       26.205      862.260
08/26/2014  16:30:00      111.810      106.962       18.273       90.988       72.503       68.483     8278.851     5256.644     4689.912        2.125        0.911      154.733       43.860        0.080      347.283       26.139      862.248
08/26/2014  16:31:00       84.755       41.388        1.736       81.673       45.106       42.469     6670.532     2034.589     1803.595        0.970        0.525       94.321       22.588        0.057      347.487       26.492      862.251
08/26/2014  16:32:00      282.139      183.106       26.500       83.163       79.354       70.716     6916.067     6296.994     5000.736        6.602        0.911      336.348       26.382        0.006      347.325       26.207      862.249
08/26/2014  16:33:00      135.645      121.036       86.256      127.092       83.066       77.149    16152.467     6899.968     5951.891        3.474        1.450      181.795       45.852        0.064      347.283       26.138      862.233
08/26/2014  16:34:00      137.478       65.331       85.671       71.212       99.491       56.882     5071.152     9898.555     3235.570        2.435        0.910      152.211       49.726        0.107      347.172       25.946      862.245
08/26/2014  16:35:00       41.123       51.128       38.669       70.063       75.996       50.733     4908.861     5775.416     2573.877        0.953        0.663       65.614       27.861        0.180      347.332       26.223      862.273
08/26/2014  16:36:00      180.998      150.367       22.197      122.297       86.704       84.153    14956.646     7517.620     7081.659        4.270        1.478      235.309       49.618        0.044      347.191       25.980      862.279
08/26/2014  16:37:00       97.564       84.398       -3.787       67.708       69.451       52.683     4584.407     4823.439     2775.461        1.442        0.609      129.004       35.138        0.074      347.255       26.092      862.253
08/26/2014  16:38:00       98.677       66.789       11.969       95.931       64.327       51.278     9202.778     4137.939     2629.460        1.515        0.799      119.155       30.862        0.067      347.213       26.018      862.247
08/26/2014  16:39:00       53.390      182.034      -10.158       75.667      155.399       46.971     5725.517    24148.804     2206.279        3.408        1.604      189.702       64.581        0.116      347.192       25.983      862.259
08/26/2014  16:40:00       56.603      196.337      -10.111       80.379      130.024       64.627     6460.773    16906.250     4176.601        3.469        1.377      204.333       55.472        0.074      347.323       26.205      862.246
08/26/2014  16:41:00      109.061      164.491        2.046      106.151      114.230       72.536    11267.969    13048.407     5261.508        3.426        1.479      197.361       68.883        0.122      347.324       26.209      862.257
08/26/2014  16:42:00      175.503      152.007       24.641      133.673      130.630       93.525    17868.391    17064.197     8746.868        4.909        2.184      232.180       79.267        0.117      347.166       25.936      862.259
08/26/2014  16:43:00      279.495      141.232       40.527      141.576      102.210       69.914    20043.680    10446.799     4888.032        6.754        1.769      313.152       35.828        0.013      347.099       25.821      862.257
08/26/2014  16:44:00      260.304      183.421       35.673      154.791      102.542       90.683    23960.374    10514.937     8223.318        7.268        2.135      318.436       43.846        0.019      347.277       26.126      862.260
08/26/2014  16:45:00      297.983      161.306       35.673      134.890      108.231       91.524    18195.247    11713.948     8376.691        7.718        1.914      338.842       33.653        0.010      347.140       25.891      862.261
08/26/2014  16:46:00      303.033      188.173       41.672       76.508       82.490       66.518     5853.437     6804.554     4424.583        7.303        0.854      356.704       29.267        0.007      347.045       25.726      862.260
08/26/2014  16:47:00      244.354      176.597       31.094       88.139       73.132       62.490     7768.558     5348.306     3905.008        5.444        0.851      301.488       52.097        0.030      347.179       25.957      862.284
08/26/2014  16:48:00      171.371      206.695        7.719      115.655       99.455       76.778    13376.065     9891.337     5894.884        5.065        1.458      268.497       62.703        0.055      347.056       25.745      862.281
08/26/2014  16:49:00       36.426       89.982       11.934       78.066      115.058       51.691     6094.274    13238.448     2671.929        1.578        1.100       97.075       58.078        0.358      347.127       25.869      862.297
08/26/2014  16:50:00       68.271       92.509       10.143       70.405       74.422       45.647     4956.834     5538.687     2083.653        1.295        0.629      114.973       42.843        0.139      347.214       26.020      862.271
08/26/2014  16:51:00      101.560       53.218       13.613       68.977       58.092       39.869     4757.868     3374.703     1589.517        1.153        0.486      114.658       19.484        0.029      347.131       25.877      862.270
08/26/2014  16:52:00       13.202      111.613      -26.392       42.612      117.674       27.133     1815.819    13847.125      736.213        1.486        0.820      112.391       40.292        0.129      347.033       25.707      862.254
08/26/2014  16:53:00       29.066      121.213       -5.110       40.796       63.970       35.592     1664.329     4092.222     1266.781        1.129        0.351      124.649       30.108        0.058      347.085       25.799      862.262
08/26/2014  16:54:00       72.984       20.957       30.095       49.932       78.393       51.005     2493.237     6145.404     2601.531        0.895        0.562       75.934       31.715        0.174      347.213       26.020      862.249
08/26/2014  16:55:00       27.429       27.391       77.466       49.551       71.123       38.520     2455.274     5058.442     1483.805        0.825        0.450       38.763       26.315        0.461      347.341       26.239      862.226
08/26/2014  16:56:00       64.054       73.200       78.606       69.501       52.487       49.460     4830.350     2754.880     2446.340        1.283        0.502       97.268       38.469        0.156      347.236       26.058      862.220
08/26/2014  16:57:00      159.889       91.447       39.611       52.678       39.997       43.011     2774.956     1599.753     1849.958        2.086        0.311      184.193       25.308        0.019      346.973       25.604      862.223
08/26/2014  16:58:00      159.345       62.931       24.916       58.427       53.524       43.528     3413.734     2864.802     1894.657        1.907        0.409      171.322       30.242        0.031      347.063       25.758      862.218
08/26/2014  16:59:00       89.315      101.539       99.281       80.015       79.167       64.573     6402.412     6267.437     4169.734        2.249        0.842      135.231       62.079        0.211      347.180       25.960      862.219
08/26/2014  17:00:00      117.755      113.372      127.042       97.006       94.506       72.970     9410.230     8931.308     5324.549        3.326        1.183      163.461       63.772        0.152      347.075       25.780      862.204
08/26/2014  17:01:00      129.502       97.188       51.393       85.374       81.302       61.289     7288.760     6610.024     3756.312        2.325        0.883      161.914       47.708        0.087      347.313       26.191      862.198
08/26/2014  17:02:00      113.877       85.102       74.664       86.727       78.366       73.260     7521.495     6141.300     5366.958        2.240        0.951      142.163       61.050        0.184      347.274       26.122      862.197
08/26/2014  17:03:00      156.212      131.735       81.556      129.660       83.636       86.662    16811.624     6994.973     7510.304        3.986        1.566      204.344       88.783        0.189      347.287       26.146      862.196
08/26/2014  17:04:00      180.154      156.441        0.614      121.079       79.938       66.099    14660.226     6390.113     4369.085        4.117        1.271      238.598       54.577        0.052      347.147       25.903      862.202
08/26/2014  17:05:00      180.539      169.376       19.972      135.325      105.414       75.606    18312.742    11112.148     5716.309        4.840        1.757      247.553       54.601        0.049      347.206       26.004      862.195
08/26/2014  17:06:00       73.102      165.945       -7.063       79.147      125.778       65.791     6264.195    15820.072     4328.409        2.967        1.321      181.333       62.114        0.117      347.290       26.149      862.197
08/26/2014  17:07:00      -28.652      168.961      -16.965       49.399      104.615       51.735     2440.244    10944.393     2676.473        2.286        0.803      171.373       49.087        0.082      347.418       26.370      862.217
08/26/2014  17:08:00        0.249      123.859       -0.145       68.695      118.756       50.838     4718.936    14103.043     2584.502        1.837        1.070      123.860       63.154        0.260      347.390       26.324      862.205
08/26/2014  17:09:00      -21.750       83.983       14.652       36.769       58.324       38.841     1351.940     3401.717     1508.636        0.700        0.313       86.754       32.584        0.141      347.522       26.554      862.194
08/26/2014  17:10:00       30.910      112.901       20.916       76.820       60.798       43.041     5901.299     3696.380     1852.530        1.279        0.573      117.056       32.472        0.077      347.432       26.396      862.172
08/26/2014  17:11:00      286.929      152.669       39.172      155.237       91.874       66.809    24098.372     8440.804     4463.456        7.208        1.850      325.017       61.770        0.036      347.224       26.035      862.144
08/26/2014  17:12:00      219.774      199.485       13.923      163.466      100.102       84.835    26720.978    10020.508     7197.033        6.611        2.197      296.808       48.706        0.027      347.101       25.823      862.154
08/26/2014  17:13:00       65.342      272.035      -20.489      103.297      139.101       81.081    10670.361    19348.975     6574.085        5.764        1.830      279.773       82.109        0.086      347.085       25.794      862.206
08/26/2014  17:14:00      -17.134      263.376      -40.873       72.594      128.924       53.292     5269.881    16621.408     2840.040        4.803        1.237      263.932       64.106        0.059      347.031       25.704      862.209
08/26/2014  17:15:00       21.537      213.624      -31.832       69.127      102.598       47.341     4778.594    10526.320     2241.170        3.233        0.877      214.707       58.556        0.074      347.240       26.064      862.190
08/26/2014  17:16:00       52.158      119.210        4.139       71.809       77.194       54.380     5156.577     5958.905     2957.208        1.551        0.704      130.121       47.903        0.136      347.281       26.135      862.173
08/26/2014  17:17:00       99.558      110.775       21.531       85.295       76.461       49.131     7275.233     5846.348     2413.870        1.909        0.777      148.940       39.696        0.071      347.394       26.328      862.163
08/26/2014  17:18:00      155.973      121.289        2.498       68.869       68.166       46.061     4742.901     4646.621     2121.584        2.528        0.576      197.582       33.894        0.029      347.317       26.195      862.167
08/26/2014  17:19:00      181.795      137.900       18.851       91.350       68.698       58.542     8344.772     4719.408     3427.210        3.445        0.825      228.179       36.463        0.026      347.282       26.135      862.169
08/26/2014  17:20:00      253.860      190.808       13.617      143.957      104.155       77.040    20723.595    10848.324     5935.205        6.927        1.875      317.573       49.029        0.024      347.227       26.040      862.150
08/26/2014  17:21:00      296.793      189.933       25.492      120.028       97.127       76.743    14406.758     9433.581     5889.421        7.726        1.486      352.364       63.375        0.032      347.193       25.981      862.146
08/26/2014  17:22:00      268.631      179.877       39.505       88.290       75.109       85.375     7795.103     5641.369     7288.875        6.340        1.036      323.293       47.713        0.022      347.226       26.038      862.155
08/26/2014  17:23:00      171.094      150.469       19.694      120.921       73.367       54.669    14621.937     5382.741     2988.668        3.764        1.150      227.846       38.491        0.029      347.231       26.047      862.177
08/26/2014  17:24:00      117.582       77.377       -8.712       78.299       48.277       42.253     6130.805     2330.702     1785.332        1.507        0.512      140.758       21.048        0.022      347.289       26.147      862.176
08/26/2014  17:25:00      108.162       88.885       15.338       68.990       48.963       45.420     4759.575     2397.336     2062.934        1.453        0.461      139.999       35.891        0.066      347.317       26.198      862.175
08/26/2014  17:26:00      121.590       76.105       10.869       53.141       35.734       36.728     2823.981     1276.900     1348.962        1.307        0.272      143.443       20.319        0.020      347.317       26.199      862.167
08/26/2014  17:27:00       77.077       67.758       18.117       82.473       73.222       47.431     6801.807     5361.482     2249.690        1.263        0.721      102.625       33.055        0.104      347.557       26.611      862.157
08/26/2014  17:28:00      104.251       28.784        8.206       51.366       47.760       34.774     2638.426     2281.025     1209.263        0.895        0.306      108.152       23.220        0.046      347.377       26.302      862.167
08/26/2014  17:29:00      119.442      103.640       11.419      107.627       69.464       57.270    11583.547     4825.219     3279.874        2.241        0.984      158.138       37.915        0.057      347.270       26.115      862.190
08/26/2014  17:30:00      130.585      103.385      -13.211       96.908       73.420       50.900     9391.165     5390.481     2590.824        2.264        0.869      166.556       42.375        0.065      347.194       25.985      862.196
08/26/2014  17:31:00      141.399      129.908        7.857       62.274       73.664       56.421     3878.000     5426.385     3183.364        2.471        0.624      192.015       43.835        0.052      347.257       26.093      862.186
08/26/2014  17:32:00      178.825       66.979       17.138       94.682       70.297       57.745     8964.609     4941.683     3334.461        2.700        0.862      190.957       40.607        0.045      347.314       26.190      862.180
08/26/2014  17:33:00      143.020       73.423       27.222       85.400       58.593       53.376     7293.110     3433.092     2848.957        2.008        0.679      160.766       35.937        0.050      347.277       26.129      862.177
08/26/2014  17:34:00      159.223      121.103       13.186       70.874       63.443       49.677     5023.130     4025.007     2467.804        2.585        0.576      200.045       34.110        0.029      347.351       26.255      862.179
08/26/2014  17:35:00       41.204       79.745        7.535       49.268       65.903       33.901     2427.309     4343.159     1149.252        0.802        0.396       89.761       35.858        0.160      347.366       26.282      862.173
08/26/2014  17:36:00       13.953      125.284      -16.752       35.564       94.244       34.989     1264.819     8881.902     1224.229        1.377        0.569      126.059       47.158        0.140      347.282       26.137      862.182
08/26/2014  17:37:00       70.600       72.030       15.040       74.196       54.879       47.929     5505.043     3011.673     2297.153        1.060        0.541      100.860       33.123        0.108      347.416       26.368      862.182
08/26/2014  17:38:00      203.581      145.016       63.515      130.920       75.430       75.707    17140.169     5689.721     5731.543        4.753        1.428      249.950       61.487        0.061      347.350       26.251      862.162
08/26/2014  17:39:00      235.139      140.738       34.657      116.719       96.478       77.782    13623.295     9308.049     6050.012        5.263        1.449      274.039       40.373        0.022      347.310       26.184      862.172
08/26/2014  17:40:00      200.247      163.072       18.338      114.902       70.136       58.906    13202.555     4919.048     3469.880        4.431        1.080      258.247       44.637        0.030      347.135       25.881      862.175
08/26/2014  17:41:00       72.556      259.316      -23.287      122.901      101.532       63.542    15104.609    10308.764     4037.553        5.125        1.473      269.276       59.627        0.049      347.233       26.049      862.168
08/26/2014  17:42:00      172.292      159.903       26.491      122.687      113.365       78.735    15052.049    12851.655     6199.223        4.502        1.705      235.061       67.703        0.083      347.209       26.010      862.182
08/26/2014  17:43:00      205.829      138.169       22.967      125.037       87.259       63.083    15634.162     7614.054     3979.469        4.460        1.361      247.904       41.960        0.029      347.300       26.166      862.178
08/26/2014  17:44:00       77.405       86.981        3.694       78.124       47.754       41.206     6103.368     2280.453     1697.952        1.182        0.504      116.435       28.760        0.061      347.313       26.193      862.191
08/26/2014  17:45:00      129.646      111.424       12.052       94.785       65.968       59.807     8984.135     4351.816     3576.873        2.314        0.846      170.949       39.651        0.054      347.235       26.055      862.192
08/26/2014  17:46:00       47.955      175.801      -10.718       79.488      103.978       57.583     6318.383    10811.473     3315.771        2.688        1.022      182.224       56.478        0.096      347.203       26.001      862.187
08/26/2014  17:47:00      130.903       76.867       23.009       79.831       63.606       52.440     6372.918     4045.758     2749.902        1.837        0.658      151.803       23.713        0.024      347.268       26.113      862.187
08/26/2014  17:48:00      186.023      122.353       37.449      105.091       70.213       60.510    11044.085     4929.914     3661.475        3.530        0.982      222.654       50.932        0.052      347.194       25.984      862.183
08/26/2014  17:49:00      189.910      125.858       29.255       76.547       67.115       52.587     5859.495     4504.456     2765.407        3.294        0.656      227.829       44.214        0.038      347.224       26.035      862.173
08/26/2014  17:50:00      192.781      134.451       15.329       91.192       54.656       55.245     8316.054     2987.224     3051.975        3.491        0.718      235.035       34.122        0.021      347.258       26.092      862.171
08/26/2014  17:51:00      215.692      130.370       53.551       74.828       70.624       52.449     5599.180     4987.805     2750.880        3.986        0.667      252.031       23.452        0.009      347.201       25.995      862.159
08/26/2014  17:52:00      228.852      131.706       22.473       89.836       59.401       60.382     8070.480     3528.481     3645.992        4.273        0.762      264.044       46.052        0.030      347.188       25.973      862.161
08/26/2014  17:53:00       98.498       72.131        7.825       62.804       56.555       48.507     3944.291     3198.421     2352.964        1.223        0.475      122.085       40.022        0.107      347.139       25.892      862.160
08/26/2014  17:54:00      111.626       48.011       23.072       60.991       57.497       37.515     3719.915     3305.857     1407.400        1.186        0.422      121.513       24.246        0.040      347.262       26.103      862.155
08/26/2014  17:55:00       77.542       64.138       14.494      112.283       48.910       40.338    12607.375     2392.188     1627.167        1.348        0.831      100.630       25.617        0.065      347.225       26.039      862.144
08/26/2014  17:56:00      -37.337       41.640       -8.690       59.891       40.139       29.455     3586.938     1611.124      867.622        0.463        0.303       55.928       22.673        0.164      347.533       26.571      862.127
08/26/2014  17:57:00      -14.195       58.256       10.221       80.236       47.122       33.063     6437.754     2220.507     1093.168        0.672        0.488       59.961       46.188        0.593      347.239       26.064      862.114
08/26/2014  17:58:00      175.240       94.891       32.197       85.951       70.460       42.031     7387.544     4964.546     1766.613        2.743        0.706      199.282       29.684        0.022      347.078       25.786      862.136
08/26/2014  17:59:00      263.364      167.182       48.513      105.513       92.032       65.397    11132.888     8469.972     4276.768        6.177        1.194      311.946       46.519        0.022      347.145       25.898      862.133
08/26/2014  18:00:00       63.678       47.586       -3.300       99.232       77.008       44.554     9847.031     5930.197     1985.058        1.204        0.888       79.494       30.132        0.144      347.129       25.876      862.129
08/26/2014  18:01:00      112.525      137.357        9.008      112.312       89.012       54.959    12614.036     7923.051     3020.528        2.758        1.178      177.564       42.129        0.056      347.185       25.969      862.100
08/26/2014  18:02:00      169.123       89.539       35.932      109.501       85.354       61.377    11990.576     7285.231     3767.156        3.047        1.152      191.363       43.503        0.052      347.220       26.028      862.114
08/26/2014  18:03:00      121.024       76.883       63.014       80.099       58.817       60.325     6415.912     3459.404     3639.138        1.902        0.676      143.380       45.303        0.100      347.228       26.044      862.117
08/26/2014  18:04:00      111.383       52.568       37.720      103.641       56.224       57.129    10741.480     3161.183     3263.723        1.688        0.858      123.165       57.434        0.217      347.257       26.093      862.123
08/26/2014  18:05:00       98.784       85.866       40.040       82.923       50.218       48.704     6876.228     2521.879     2372.045        1.525        0.589      130.887       41.469        0.100      347.206       26.008      862.131
08/26/2014  18:06:00      221.005      159.504       21.097      109.706       77.230       57.888    12035.339     5964.426     3351.076        4.804        1.068      272.552       35.986        0.017      347.203       26.000      862.151
08/26/2014  18:07:00       61.810      142.574        7.589       71.086      107.252       71.035     5053.247    11502.952     5045.999        2.290        1.080      155.396       65.598        0.178      347.133       25.880      862.159
08/26/2014  18:08:00       70.010       77.212       -2.600       77.291       72.348       48.797     5973.835     5234.304     2381.115        1.223        0.679      104.226       40.548        0.151      347.173       25.950      862.150
08/26/2014  18:09:00      205.062      176.884       27.670      116.575       80.672       67.800    13589.722     6507.915     4596.806        4.939        1.235      270.810       40.100        0.022      347.084       25.796      862.143
08/26/2014  18:10:00      129.553      116.688        0.261      115.284       68.233       57.087    13290.459     4655.755     3258.900        2.580        1.060      174.356       34.385        0.039      347.139       25.890      862.130
08/26/2014  18:11:00       33.764       99.859        2.487       53.297       91.950       37.921     2840.588     8454.761     1437.973        1.192        0.637      105.413       40.511        0.148      347.204       26.001      862.139
08/26/2014  18:12:00       90.404       77.553        0.662       97.185       88.422       42.175     9444.880     7818.534     1778.734        1.661        0.952      119.111       47.936        0.162      347.175       25.952      862.142
08/26/2014  18:13:00       16.436      230.849      -37.799       45.954       84.768       33.451     2111.727     7185.584     1118.995        3.270        0.521      231.433       39.473        0.029      347.188       25.971      862.139
08/26/2014  18:14:00        6.625       81.591      -12.423       31.794       58.112       22.834     1010.838     3377.006      521.407        0.588        0.245       81.859       20.018        0.060      347.279       26.133      862.146
08/26/2014  18:15:00       95.435       64.357       18.247       43.274       36.987       38.297     1872.633     1368.065     1466.664        0.914        0.235      115.107       18.325        0.025      347.210       26.015      862.147
08/26/2014  18:16:00       96.692       72.679       53.690       68.993       46.650       46.576     4760.023     2176.194     2169.289        1.331        0.455      120.961       19.253        0.025      347.185       25.970      862.146
08/26/2014  18:17:00      123.527       80.086       58.533       61.906       51.124       51.573     3832.376     2613.640     2659.759        1.710        0.455      147.217       34.049        0.053      347.149       25.908      862.149
08/26/2014  18:18:00      167.785       81.397      102.629      168.700       98.615       80.615    28459.858     9724.906     6498.786        4.499        2.234      186.487       72.052        0.149      347.171       25.945      862.108
08/26/2014  18:19:00      204.456      124.859       82.292      113.546       95.286       76.608    12892.736     9079.431     5868.724        4.600        1.392      239.566       58.401        0.059      347.101       25.823      862.127
08/26/2014  18:20:00      150.904       75.029       65.931      125.051       58.888       70.987    15637.782     3467.840     5039.216        2.844        1.207      168.527       60.645        0.129      347.096       25.817      862.136
08/26/2014  18:21:00      196.306      109.309       45.453       89.096       70.039       52.947     7938.073     4905.510     2803.349        3.410        0.782      224.687       38.722        0.030      347.081       25.791      862.147
08/26/2014  18:22:00       98.206       66.627        1.207      111.872       87.147       64.680    12515.430     7594.535     4183.511        1.918        1.215      118.674       52.182        0.193      347.140       25.893      862.150
08/26/2014  18:23:00       65.197       85.182       -8.502       65.007       64.797       39.920     4225.974     4198.610     1593.577        1.080        0.501      107.269       32.130        0.090      347.084       25.796      862.151
08/26/2014  18:24:00       84.659       72.971       57.009       54.595       46.386       48.392     2980.560     2151.649     2341.762        1.161        0.374      111.767       35.089        0.099      347.129       25.875      862.154
08/26/2014  18:25:00      213.276      126.107       57.555      129.199       74.878       64.360    16692.332     5606.772     4142.242        4.557        1.322      247.770       47.678        0.037      347.109       25.835      862.143
08/26/2014  18:26:00      230.664      148.802       15.599      108.054       85.797       59.580    11675.658     7361.042     3549.803        4.908        1.129      274.496       16.137        0.003      347.120       25.855      862.159
08/26/2014  18:27:00      202.721      125.790       53.332       64.466       78.023       70.023     4155.900     6087.595     4903.231        3.745        0.757      238.576       32.534        0.019      347.124       25.861      862.159
08/26/2014  18:28:00      116.130       84.223       12.175       78.594       66.322       53.945     6177.070     4398.648     2910.077        1.710        0.674      143.456       31.482        0.048      347.114       25.848      862.160
08/26/2014  18:29:00       96.118      101.195       10.168       76.253       61.111       48.276     5814.533     3734.545     2330.537        1.573        0.594      139.567       40.539        0.084      347.069       25.771      862.173
08/26/2014  18:30:00      215.187      147.412       28.147      111.292       62.641       57.743    12385.826     3923.953     3334.197        4.423        0.982      260.836       38.954        0.022      347.070       25.770      862.177
08/26/2014  18:31:00      241.243      175.353       24.499      118.494       83.120       74.707    14040.738     6908.984     5581.131        5.803        1.327      298.240       43.912        0.022      347.034       25.708      862.181
08/26/2014  18:32:00      258.562      168.466       18.278      120.694       81.111       77.409    14567.127     6579.020     5992.112        6.135        1.357      308.602       47.824        0.024      347.070       25.769      862.180
08/26/2014  18:33:00      195.126      147.312       15.427       89.244       67.707       64.146     7964.542     4584.224     4114.695        3.833        0.833      244.489       48.575        0.039      347.086       25.796      862.194
08/26/2014  18:34:00      126.886      109.986       13.410       87.908       70.376       57.772     7727.889     4952.760     3337.618        2.219        0.801      167.919       46.754        0.078      347.081       25.791      862.207
08/26/2014  18:35:00      125.669       47.137       40.567       84.350       56.477       49.039     7115.000     3189.639     2404.840        1.618        0.635      134.219       36.172        0.073      347.122       25.863      862.204
08/26/2014  18:36:00      176.141      114.309       29.488       97.027       62.552       48.042     9414.143     3912.770     2308.024        3.030        0.782      209.981       27.970        0.018      347.118       25.853      862.211
08/26/2014  18:37:00      172.250      133.441       20.982       92.617       69.164       58.896     8577.952     4783.728     3468.749        3.237        0.842      217.891       32.624        0.022      347.116       25.848      862.221
08/26/2014  18:38:00      113.292      127.215       -1.548      111.499       62.721       46.511    12431.974     3933.952     2163.255        2.377        0.926      170.349       33.899        0.040      347.117       25.852      862.239
08/26/2014  18:39:00      104.565       88.525        1.383       91.319       54.016       45.072     8339.210     2917.698     2031.477        1.603        0.664      137.006       25.733        0.035      347.103       25.830      862.245
08/26/2014  18:40:00       95.575      109.583       10.786       87.503       56.159       50.079     7656.822     3153.863     2507.955        1.729        0.666      145.406       40.122        0.076      347.042       25.723      862.247
08/26/2014  18:41:00       23.313      185.419      -20.526       62.937       96.251       47.229     3961.038     9264.200     2230.584        2.540        0.773      186.879       50.990        0.074      347.067       25.765      862.268
08/26/2014  18:42:00      -11.928      273.543      -23.331       66.277      130.663       46.466     4392.604    17072.751     2159.090        4.956        1.181      273.803       60.367        0.049      347.017       25.679      862.274
08/26/2014  18:43:00      -16.290      247.631      -38.322       38.562       49.203       22.119     1487.014     2420.958      489.255        3.373        0.220      248.167       16.731        0.005      347.011       25.667      862.285
08/26/2014  18:44:00       30.475      232.766      -32.772       38.709       42.530       27.511     1498.422     1808.761      756.843        3.012        0.203      234.753       22.339        0.009      347.014       25.672      862.273
08/26/2014  18:45:00       27.457       65.356        1.517       45.157       68.068       34.891     2039.127     4633.280     1217.381        0.646        0.394       70.889       34.495        0.237      347.034       25.713      862.283
08/26/2014  18:46:00       11.659       77.988       -1.976       37.451       56.721       35.289     1402.586     3217.253     1245.338        0.604        0.293       78.855       30.613        0.151      347.071       25.774      862.294
08/26/2014  18:47:00       57.407      109.507        5.983       69.347       72.026       43.737     4809.012     5187.728     1912.909        1.361        0.595      123.642       39.756        0.103      347.049       25.737      862.315
08/26/2014  18:48:00      226.883      213.041       12.012      150.093       95.888       76.038    22527.843     9194.521     5781.770        6.725        1.875      311.227       67.199        0.047      346.990       25.633      862.299
08/26/2014  18:49:00      212.111      160.817       22.070       99.152       96.834       76.247     9831.094     9376.866     5813.540        4.818        1.251      266.182       53.380        0.040      346.969       25.595      862.307
08/26/2014  18:50:00       63.908       81.546        5.759       78.292       65.297       55.597     6129.680     4263.636     3091.011        1.212        0.674      103.605       35.477        0.117      346.983       25.623      862.301
08/26/2014  18:51:00       63.678       47.877       12.056       82.147       48.965       38.773     6748.063     2397.616     1503.318        0.857        0.532       79.668       20.562        0.067      346.990       25.634      862.309
08/26/2014  18:52:00      215.126      127.068       24.686       92.656       68.016       61.065     8585.211     4626.220     3728.968        3.998        0.847      249.851       42.977        0.030      346.967       25.592      862.303
08/26/2014  18:53:00      134.964       87.349       15.249       72.488       58.738       50.093     5254.582     3450.149     2509.350        1.864        0.561      160.764       24.298        0.023      346.921       25.515      862.305
08/26/2014  18:54:00      175.884      127.651       18.570      104.214       75.763       61.310    10860.507     5740.053     3758.958        3.396        1.018      217.325       44.022        0.041      346.937       25.541      862.308
08/26/2014  18:55:00      109.277      103.714       14.394       93.778       78.423       62.911     8794.234     6150.104     3957.793        2.090        0.945      150.659       47.813        0.101      346.961       25.583      862.308
08/26/2014  18:56:00       61.451      140.960      -11.401       58.514       72.655       46.978     3423.908     5278.816     2206.924        1.734        0.545      153.773       38.491        0.063      346.954       25.572      862.307
08/26/2014  18:57:00       49.927      102.806       -0.613       54.716       83.784       46.056     2993.805     7019.754     2121.110        1.260        0.607      114.288       51.705        0.205      346.953       25.572      862.308
08/26/2014  18:58:00       30.839      168.397      -24.302       48.450       92.766       39.862     2347.410     8605.594     1588.948        2.122        0.627      171.197       42.886        0.063      346.923       25.517      862.311
08/26/2014  18:59:00       82.505      141.499      -10.067       76.489      101.551       57.149     5850.612    10312.528     3265.955        2.318        0.971      163.796       52.283        0.102      346.897       25.473      862.310
08/26/2014  19:00:00       77.361       65.386        9.520       54.825       50.064       34.522     3005.800     2506.375     1191.779        0.853        0.335      101.292       23.877        0.056      346.877       25.440      862.317
08/26/2014  19:01:00      140.909       92.655       31.643       46.293       44.362       36.024     2143.024     1968.011     1297.732        1.742        0.270      168.643       18.970        0.013      346.916       25.505      862.314
08/26/2014  19:02:00      184.800      105.893       36.358       84.142       67.466       63.373     7079.863     4551.681     4016.139        3.116        0.782      212.989       37.053        0.030      346.908       25.492      862.321
08/26/2014  19:03:00      134.655       88.701       13.569       68.696       61.923       51.548     4719.180     3834.495     2657.227        1.870        0.561      161.245       35.227        0.048      346.892       25.463      862.336
08/26/2014  19:04:00      126.760      101.637       14.812       67.553       75.638       51.955     4563.412     5721.098     2699.331        1.980        0.649      162.475       41.759        0.066      346.899       25.475      862.343
08/26/2014  19:05:00      111.356       91.928        3.542       74.763       48.671       41.850     5589.514     2368.820     1751.439        1.528        0.485      144.398       32.183        0.050      346.887       25.458      862.351
08/26/2014  19:06:00       90.780       64.777       31.632       72.063       52.356       49.235     5193.020     2741.116     2424.103        1.190        0.518      111.522       39.824        0.128      346.849       25.391      862.350
08/26/2014  19:07:00      161.162       97.651       18.639       98.697       59.182       42.186     9741.087     3502.513     1779.628        2.544        0.751      188.438       24.779        0.017      346.904       25.486      862.356
08/26/2014  19:08:00       44.232       68.673       -1.805       45.472       39.099       29.996     2067.711     1528.742      899.778        0.559        0.225       81.685       24.405        0.089      346.824       25.350      862.375
08/26/2014  19:09:00       19.524       44.469        2.000       31.981       38.375       24.795     1022.816     1472.647      614.811        0.274        0.156       48.567       21.408        0.194      346.822       25.347      862.398
08/26/2014  19:10:00       42.367       69.471      -12.721       31.895       53.547       27.535     1017.299     2867.321      758.185        0.571        0.232       81.371       23.850        0.086      346.787       25.286      862.407
08/26/2014  19:11:00       59.881       35.965       16.450       40.459       30.633       24.380     1636.917      938.355      594.379        0.416        0.158       69.851       14.296        0.042      346.742       25.208      862.412
08/26/2014  19:12:00       87.289       56.895       12.257       62.656       43.836       29.653     3925.763     1921.576      879.312        0.887        0.336      104.194       21.286        0.042      346.776       25.266      862.417
08/26/2014  19:13:00       69.873       71.614       17.945       71.412       65.265       51.714     5099.720     4259.573     2674.287        1.118        0.602      100.054       42.986        0.185      346.803       25.313      862.427
08/26/2014  19:14:00       56.996      109.526       -7.334       58.188       60.565       44.970     3385.828     3668.091     2022.260        1.219        0.454      123.468       41.688        0.114      346.804       25.314      862.449
08/26/2014  19:15:00      112.482       78.522       19.331       44.799       41.112       27.104     2006.936     1690.227      734.644        1.181        0.222      137.178       12.317        0.008      346.758       25.236      862.460
08/26/2014  19:16:00       52.131       78.004       -0.636       39.183       46.327       36.965     1535.314     2146.181     1366.423        0.692        0.252       93.820       27.168        0.084      346.753       25.226      862.467
08/26/2014  19:17:00       70.222       75.568        1.290       44.339       30.618       30.333     1965.934      937.480      920.107        0.723        0.191      103.159       19.927        0.037      346.748       25.217      862.467
08/26/2014  19:18:00       62.603       37.533        6.320       31.291       26.233       24.702      979.119      688.182      610.181        0.382        0.114       72.993       16.167        0.049      346.667       25.079      862.474
08/26/2014  19:19:00       46.719      100.539      -10.918       50.775       59.289       27.160     2578.053     3515.199      737.673        0.962        0.342      110.863       23.344        0.044      346.703       25.141      862.487
08/26/2014  19:20:00       66.240       61.875        2.220       33.358       38.086       25.577     1112.744     1450.509      654.170        0.572        0.161       90.644       11.017        0.015      346.670       25.084      862.497
08/26/2014  19:21:00      127.515       89.641        8.246       86.219       53.881       45.937     7433.665     2903.199     2110.237        1.840        0.622      155.871       32.353        0.043      346.706       25.145      862.502
08/26/2014  19:22:00      163.503      109.523       32.285       58.169       46.916       41.657     3383.638     2201.066     1735.270        2.354        0.366      196.796       20.979        0.011      346.712       25.155      862.494
08/26/2014  19:23:00       75.029       36.254        6.716       59.095       43.305       33.080     3492.236     1875.310     1094.298        0.672        0.323       83.329       25.701        0.095      346.605       24.973      862.503
08/26/2014  19:24:00       65.691       48.648       13.294       52.147       28.906       32.070     2719.336      835.569     1028.484        0.572        0.229       81.743       15.876        0.038      346.608       24.979      862.513
08/26/2014  19:25:00      133.436       99.276       31.357       70.160       48.231       36.191     4922.369     2326.197     1309.810        1.860        0.428      166.315       27.461        0.027      346.695       25.126      862.525
08/26/2014  19:26:00       93.597       68.066        7.141       65.246       46.225       46.829     4257.039     2136.728     2192.982        1.101        0.429      115.730       27.600        0.057      346.671       25.085      862.527
08/26/2014  19:27:00       98.457       55.887       10.591       49.880       40.658       32.499     2488.023     1653.062     1056.163        0.906        0.260      113.213       17.046        0.023      346.594       24.955      862.536
08/26/2014  19:28:00      106.197       87.464       21.868       70.893       41.340       45.168     5025.876     1708.962     2040.139        1.409        0.439      137.578       34.334        0.062      346.587       24.941      862.543
08/26/2014  19:29:00      119.466       79.409       16.921       66.869       43.725       30.073     4471.511     1911.855      904.371        1.407        0.364      143.450       19.572        0.019      346.610       24.980      862.552
08/26/2014  19:30:00      137.046       89.908       26.531       52.423       41.865       43.002     2748.156     1752.640     1849.206        1.696        0.318      163.905       28.135        0.029      346.637       25.028      862.570
08/26/2014  19:31:00      213.729      162.915       17.636       82.888       63.474       52.711     6870.342     4028.907     2778.498        4.310        0.684      268.740       38.839        0.021      346.694       25.123      862.567
08/26/2014  19:32:00      223.333      166.974       23.593       70.388       63.571       53.756     4954.451     4041.246     2889.657        4.510        0.594      278.851       34.593        0.015      346.657       25.058      862.577
08/26/2014  19:33:00      117.240      103.932        5.318       79.296       60.896       56.358     6287.921     3708.331     3176.250        1.887        0.659      156.675       36.356        0.054      346.593       24.951      862.588
08/26/2014  19:34:00       38.051       79.288       -2.839       58.363       48.693       37.101     3406.200     2371.004     1376.510        0.745        0.358       87.946       32.499        0.137      346.473       24.747      862.595
08/26/2014  19:35:00       65.716       89.294        2.282       47.176       49.624       42.006     2225.550     2462.577     1764.484        0.937        0.323      110.870       36.442        0.108      346.529       24.843      862.596
08/26/2014  19:36:00       64.323       90.206        9.977       60.025       57.637       48.513     3603.045     3322.040     2353.513        1.082        0.464      110.791       41.907        0.143      346.506       24.804      862.598
08/26/2014  19:37:00      101.642       94.470        3.734       70.743       37.118       31.081     5004.505     1377.726      966.043        1.331        0.367      138.765       19.525        0.020      346.509       24.806      862.600
08/26/2014  19:38:00       53.194       53.970        0.161       39.429       37.052       29.211     1554.649     1372.855      853.283        0.476        0.189       75.778       18.361        0.059      346.472       24.744      862.608
08/26/2014  19:39:00       54.597       49.675        7.503       45.623       30.709       27.521     2081.500      943.021      757.421        0.464        0.189       73.813       19.207        0.068      346.452       24.710      862.611
08/26/2014  19:40:00       62.836       70.205       11.129       59.479       61.801       41.389     3537.701     3819.373     1713.015        0.903        0.454       94.219       34.737        0.136      346.479       24.756      862.612
08/26/2014  19:41:00       62.350       78.574        3.334       49.937       54.404       37.974     2493.667     2959.749     1442.051        0.848        0.345      100.306       33.383        0.111      346.450       24.706      862.620
08/26/2014  19:42:00       39.327       53.069        3.994       40.060       41.895       35.125     1604.832     1755.197     1233.762        0.449        0.230       66.053       26.827        0.165      346.403       24.623      862.623
08/26/2014  19:43:00       25.101       72.740        1.181       44.987       41.618       38.593     2023.847     1732.062     1489.440        0.558        0.262       76.949       30.302        0.155      346.378       24.584      862.641
08/26/2014  19:44:00       33.626       76.971       -8.831       31.104       46.979       25.646      967.457     2207.012      657.710        0.548        0.192       83.996       25.791        0.094      346.342       24.521      862.649
08/26/2014  19:45:00       43.943      107.065      -16.136       44.605       45.248       35.972     1989.586     2047.361     1293.955        0.949        0.267      115.732       34.581        0.089      346.395       24.612      862.663
08/26/2014  19:46:00       43.917       74.785        1.845       36.539       51.554       30.372     1335.102     2657.772      922.450        0.622        0.246       86.726       33.826        0.152      346.350       24.536      862.684
08/26/2014  19:47:00       48.877       71.127       -2.715       40.060       35.034       23.819     1604.830     1227.411      567.343        0.543        0.170       86.302       18.243        0.045      346.326       24.493      862.694
08/26/2014  19:48:00       36.398       55.286        0.706       31.080       52.151       28.016      965.957     2719.690      784.900        0.443        0.224       66.191       26.829        0.164      346.324       24.489      862.708
08/26/2014  19:49:00       40.851       76.868       -9.191       34.614       41.378       24.780     1198.119     1712.135      614.052        0.559        0.176       87.049       23.643        0.074      346.337       24.512      862.725
08/26/2014  19:50:00       49.654       60.201        7.677       47.418       40.519       38.066     2248.488     1641.784     1449.013        0.574        0.267       78.037       29.834        0.146      346.306       24.459      862.728
08/26/2014  19:51:00       50.125       69.239       -1.389       41.727       40.919       28.201     1741.109     1674.363      795.291        0.576        0.211       85.478       24.367        0.081      346.317       24.479      862.738
08/26/2014  19:52:00       45.539      102.135      -11.439       43.835       39.796       31.002     1921.484     1583.723      961.099        0.855        0.223      111.828       29.474        0.069      346.331       24.503      862.753
08/26/2014  19:53:00       44.244      126.076      -15.876       39.311       45.517       34.897     1545.386     2071.810     1217.828        1.147        0.242      133.614       29.485        0.049      346.352       24.537      862.753
08/26/2014  19:54:00       42.628       66.765        3.595       46.154       41.720       35.703     2130.155     1740.593     1274.685        0.572        0.257       79.213       27.678        0.122      346.271       24.397      862.758
08/26/2014  19:55:00       50.853       98.308        4.020       46.017       56.666       39.337     2117.565     3210.981     1547.403        0.957        0.344      110.682       37.673        0.116      346.296       24.442      862.759
08/26/2014  19:56:00       24.646       72.242       -5.876       34.761       44.840       29.077     1208.357     2010.639      845.476        0.496        0.203       76.330       20.434        0.072      346.259       24.377      862.757
08/26/2014  19:57:00       21.458       79.908        2.556       38.249       67.840       31.113     1463.011     4602.226      968.031        0.694        0.352       82.739       38.066        0.212      346.241       24.346      862.764
08/26/2014  19:58:00       39.132       72.920       -7.988       29.407       46.280       20.921      864.750     2141.846      437.704        0.518        0.172       82.757       20.646        0.062      346.232       24.331      862.772
08/26/2014  19:59:00       32.116      104.150       -3.197       38.702       51.594       38.948     1497.820     2661.983     1516.934        0.878        0.284      108.989       36.133        0.110      346.225       24.319      862.781
08/26/2014  20:00:00       30.780      115.547      -12.037       35.595       49.872       30.205     1267.000     2487.185      912.325        0.955        0.233      119.576       26.628        0.050      346.218       24.309      862.787
08/26/2014  20:01:00       27.879       84.697       -7.822       34.388       35.186       22.935     1182.562     1238.030      526.028        0.548        0.147       89.168       19.395        0.047      346.181       24.243      862.803
08/26/2014  20:02:00       30.396       59.410        6.197       37.678       43.360       34.757     1419.596     1880.121     1208.052        0.450        0.225       66.734       34.552        0.268      346.181       24.244      862.808
08/26/2014  20:03:00       27.596       65.098       -3.986       34.270       41.923       25.417     1174.454     1757.562      646.012        0.430        0.179       70.705       25.481        0.130      346.145       24.181      862.819
08/26/2014  20:04:00       31.878       88.304       -9.480       32.742       38.030       20.647     1072.007     1446.249      426.315        0.592        0.147       93.882       19.217        0.042      346.139       24.172      862.830
08/26/2014  20:05:00       38.558       57.826       -5.329       28.851       48.989       26.211      832.360     2399.968      687.000        0.439        0.196       69.503       26.343        0.144      346.153       24.195      862.847
08/26/2014  20:06:00       37.790       51.499        9.498       40.821       29.907       23.818     1666.328      894.458      567.303        0.365        0.156       63.877       19.936        0.097      346.093       24.094      862.852
08/26/2014  20:07:00       16.969       70.395        0.416       29.857       49.002       32.006      891.440     2401.184     1024.405        0.478        0.216       72.412       30.076        0.173      346.081       24.071      862.853
08/26/2014  20:08:00       28.377       99.997      -11.945       33.422       38.892       31.503     1117.063     1512.558      992.408        0.728        0.181      103.946       28.803        0.077      346.088       24.084      862.856
08/26/2014  20:09:00       29.301       95.601       -2.465       35.047       49.153       34.225     1228.316     2416.050     1171.374        0.741        0.241       99.991       33.091        0.110      346.041       24.004      862.862
08/26/2014  20:10:00       16.605       65.194        0.175       27.369       27.682       18.426      749.051      766.292      339.533        0.319        0.093       67.275       17.723        0.069      345.979       23.896      862.863
08/26/2014  20:11:00       23.941      116.088      -14.530       22.394       37.716       21.908      501.491     1422.476      479.972        0.833        0.120      118.531       20.093        0.029      346.100       24.105      862.868
08/26/2014  20:12:00       25.637      110.885      -14.764       29.180       32.861       18.193      851.469     1079.877      330.972        0.772        0.113      113.810       19.774        0.030      346.131       24.157      862.875
08/26/2014  20:13:00       12.549       88.362       -7.118       23.867       42.116       19.622      569.633     1773.781      385.014        0.537        0.136       89.248       21.328        0.057      346.078       24.067      862.883
08/26/2014  20:14:00       15.188      120.293      -17.570       16.900       21.222       11.906      285.620      450.380      141.745        0.794        0.044      121.248        9.139        0.006      346.168       24.222      862.890
08/26/2014  20:15:00       26.796      127.882      -19.372       22.289       30.541       17.314      496.788      932.737      299.789        0.959        0.086      130.659       14.979        0.013      346.108       24.119      862.903
08/26/2014  20:16:00        5.605      124.870      -20.845       18.143       17.329       11.276      329.161      300.298      127.152        0.841        0.038      124.995        7.107        0.003      346.178       24.241      862.922
08/26/2014  20:17:00       21.920      133.101      -24.166       23.764       27.889       15.986      564.711      777.785      255.554        1.019        0.080      134.894       15.268        0.013      346.157       24.201      862.927
08/26/2014  20:18:00      -20.784      118.353      -20.862       28.437       31.565       15.299      808.684      996.349      234.055        0.846        0.102      120.164       12.918        0.012      346.210       24.294      862.942
08/26/2014  20:19:00      -11.825      131.220      -21.522       26.838       35.919       15.542      720.296     1290.196      241.554        1.004        0.113      131.752        9.286        0.005      346.269       24.395      862.957
08/26/2014  20:20:00      -35.430       71.200       -9.686       26.582       35.895       16.665      706.618     1288.479      277.726        0.435        0.114       79.528       15.900        0.040      346.221       24.313      862.968
08/26/2014  20:21:00      -31.675       99.363      -16.687       16.662       17.334       13.661      277.633      300.465      186.616        0.596        0.038      104.290       10.929        0.011      346.126       24.149      862.980
08/26/2014  20:22:00      -36.795       84.300      -15.162       22.252       36.421       13.609      495.132     1326.461      185.195        0.535        0.100       91.980       11.242        0.015      346.130       24.155      862.989
08/26/2014  20:23:00      -34.366       87.671      -13.688       24.305       48.346       14.717      590.710     2337.367      216.590        0.610        0.157       94.166       15.252        0.026      346.181       24.245      862.997
08/26/2014  20:24:00      -67.384       34.544      -10.720       24.584       22.065       15.615      604.367      486.859      243.830        0.359        0.067       75.722        9.658        0.016      346.094       24.095      862.992
08/26/2014  20:25:00      -56.114       25.269       -5.460       28.936       31.286       19.065      837.286      978.817      363.468        0.300        0.109       61.541       15.640        0.065      346.189       24.258      863.001
08/26/2014  20:26:00      -52.890       -7.460       -9.083       23.309       21.099       11.127      543.298      445.182      123.802        0.202        0.056       53.414        9.407        0.031      345.921       23.797      863.006
08/26/2014  20:27:00      -83.435      -31.096       -9.859       36.985       22.075       12.829     1367.891      487.321      164.586        0.502        0.101       89.041        9.386        0.011      345.715       23.445      863.017
08/26/2014  20:28:00      -79.798      -10.065       -8.065       27.391       26.911       13.606      750.246      724.204      185.110        0.410        0.083       80.430       12.109        0.023      345.658       23.346      863.015
08/26/2014  20:29:00      -41.559        1.442       -1.053       43.169       23.423       20.097     1863.584      548.640      403.885        0.227        0.141       41.584       24.984        0.361      345.487       23.052      863.020
08/26/2014  20:30:00      -69.500       -6.419       -4.821       29.234       23.437       15.425      854.605      549.305      237.923        0.327        0.082       69.795       12.367        0.031      345.555       23.168      863.034
08/26/2014  20:31:00      -96.136       -3.520       -9.786       34.556       28.476       15.623     1194.095      810.882      244.081        0.580        0.112       96.200       17.752        0.034      345.498       23.071      863.040
08/26/2014  20:32:00      -63.810        3.997       -4.809       29.689       29.757       18.442      881.456      885.462      340.118        0.311        0.105       63.935       14.902        0.054      345.421       22.939      863.051
08/26/2014  20:33:00     -121.804       11.769      -10.592       25.215       24.530       11.463      635.810      601.697      131.404        0.823        0.068      122.372        6.372        0.003      345.448       22.985      863.054
08/26/2014  20:34:00     -111.264      -12.244      -12.308       30.090       27.365       19.989      905.403      748.846      399.559        0.737        0.103      111.936       15.099        0.018      345.333       22.787      863.066
08/26/2014  20:35:00      -91.641       -7.716       -0.199       38.053       30.147       22.709     1448.028      908.833      515.695        0.566        0.144       91.965       22.037        0.057      345.267       22.676      863.075
08/26/2014  20:36:00     -130.833        3.395      -12.630       39.281       23.401       22.032     1542.998      547.585      485.429        0.993        0.129      130.877       19.867        0.023      345.282       22.700      863.075
08/26/2014  20:37:00     -148.038       -2.179      -13.238       35.695       33.815       22.089     1274.157     1143.439      487.937        1.250        0.145      148.054       18.251        0.015      345.260       22.662      863.081
08/26/2014  20:38:00      -79.701       -9.288        4.401       48.142       42.948       25.474     2317.683     1844.513      648.913        0.563        0.241       80.240       22.264        0.077      345.133       22.447      863.085
08/26/2014  20:39:00     -125.451        8.924       -9.490       48.645       32.384       22.153     2366.342     1048.751      490.753        0.991        0.195      125.767       25.571        0.041      345.119       22.422      863.098
08/26/2014  20:40:00     -107.322        1.128       -9.347       45.601       31.287       22.837     2079.454      978.894      521.537        0.759        0.179      107.328       20.146        0.035      345.060       22.321      863.105
08/26/2014  20:41:00     -105.907       -4.909       -6.061       38.927       35.616       22.593     1515.344     1268.521      510.448        0.729        0.165      106.021       21.567        0.041      345.179       22.524      863.121
08/26/2014  20:42:00     -147.529        0.296      -15.586       34.800       26.197       22.630     1211.006      686.268      512.106        1.221        0.120      147.529       14.213        0.009      345.178       22.523      863.129
08/26/2014  20:43:00     -134.393        0.355      -11.322       49.784       35.670       23.660     2478.466     1272.341      559.812        1.125        0.216      134.393       23.916        0.032      345.047       22.299      863.143
08/26/2014  20:44:00     -132.615       -2.545       -6.418       40.703       28.874       22.595     1656.698      833.698      510.517        1.032        0.150      132.639       18.992        0.021      345.093       22.377      863.157
08/26/2014  20:45:00     -110.766      -10.045       -5.915       51.448       31.200       19.121     2646.852      973.461      365.608        0.819        0.199      111.220       24.222        0.047      345.033       22.276      863.160
08/26/2014  20:46:00      -89.803      -35.153        0.798       48.550       40.194       23.619     2357.085     1615.523      557.868        0.691        0.227       96.438       27.451        0.081      345.010       22.235      863.165
08/26/2014  20:47:00      -94.924      -43.875        0.731       33.101       50.906       18.395     1095.683     2591.427      338.359        0.748        0.201      104.574       14.156        0.018      345.030       22.271      863.165
08/26/2014  20:48:00      -74.961      -41.429        0.199       36.677       35.211       22.669     1345.169     1239.813      513.885        0.522        0.155       85.647       19.393        0.051      344.987       22.197      863.180
08/26/2014  20:49:00      -58.438      -35.105        1.985       44.827       33.379       19.097     2009.503     1114.139      364.713        0.407        0.174       68.171       20.886        0.094      344.916       22.074      863.181
08/26/2014  20:50:00      -74.492      -49.509        1.305       49.435       30.546       20.439     2443.859      933.073      417.771        0.590        0.190       89.444       19.815        0.049      344.967       22.162      863.196
08/26/2014  20:51:00      -33.006      -30.821        9.235       28.887       35.229       18.562      834.440     1241.084      344.552        0.227        0.121       45.159       20.490        0.206      344.899       22.046      863.207
08/26/2014  20:52:00      -38.061      -14.732       -0.488       44.249       22.805       15.076     1957.981      520.048      227.285        0.219        0.135       40.812       12.364        0.092      344.914       22.072      863.221
08/26/2014  20:53:00     -100.465      -17.903       -3.406       46.986       29.267       22.162     2207.659      856.572      491.162        0.699        0.178      102.048       22.632        0.049      344.852       21.964      863.231
08/26/2014  20:54:00      -90.033      -21.114        5.503       33.077       28.038       18.804     1094.095      786.121      353.599        0.541        0.112       92.476       16.555        0.032      344.854       21.968      863.248
08/26/2014  20:55:00     -100.038      -38.658        0.758       21.639       26.685       13.998      468.250      712.109      195.956        0.644        0.069      107.248        8.682        0.007      344.894       22.037      863.258
08/26/2014  20:56:00     -115.774      -56.942       -5.301       31.983       27.067       15.902     1022.929      732.606      252.866        0.934        0.100      129.020       15.582        0.015      344.976       22.176      863.270
08/26/2014  20:57:00      -90.712      -33.383       -3.387       30.325       34.603       17.391      919.598     1197.395      302.462        0.589        0.121       96.660       11.205        0.013      344.948       22.129      863.274
08/26/2014  20:58:00     -113.187      -48.014        0.363       23.585       20.198       13.376      556.269      407.946      178.924        0.813        0.057      122.950        9.750        0.006      345.034       22.278      863.271
08/26/2014  20:59:00     -127.693      -40.751       -3.218       25.136       18.377       13.654      631.838      337.719      186.428        0.957        0.058      134.038       12.113        0.008      345.005       22.227      863.284
08/26/2014  21:00:00     -106.182      -44.860       -4.486       43.272       26.124       20.605     1872.509      682.487      424.561        0.814        0.149      115.269       21.145        0.034      344.979       22.183      863.289
08/26/2014  21:01:00     -135.286      -45.621       -7.595       19.420       21.994       11.607      377.143      483.756      134.731        1.072        0.050      142.771        9.040        0.004      344.927       22.093      863.297
08/26/2014  21:02:00     -132.414      -65.086        0.451       26.097       26.808       19.225      681.075      718.651      369.618        1.177        0.088      147.546       13.168        0.008      344.916       22.077      863.297
08/26/2014  21:03:00     -130.268      -43.830        0.040       25.843       24.555       18.987      667.877      602.955      360.503        1.026        0.082      137.444       15.284        0.012      344.888       22.025      863.312
08/26/2014  21:04:00     -107.489      -31.448       -4.427       30.124       24.039       18.629      907.457      577.892      347.024        0.720        0.092      111.995       16.782        0.022      344.886       22.023      863.316
08/26/2014  21:05:00     -126.460      -62.748       -5.229       31.176       20.312       14.878      971.912      412.594      221.362        1.078        0.080      141.171       15.550        0.012      344.901       22.048      863.329
08/26/2014  21:06:00      -77.974      -46.342        8.486       47.319       30.445       25.046     2239.118      926.919      627.309        0.605        0.190       90.705       26.256        0.084      344.782       21.846      863.327
08/26/2014  21:07:00      -78.160      -60.341       -0.362       56.113       36.689       19.204     3148.672     1346.119      368.798        0.731        0.243       98.742       23.874        0.058      344.782       21.845      863.337
08/26/2014  21:08:00      -64.770      -49.993        8.978       43.928       32.712       23.502     1929.674     1070.105      552.324        0.516        0.178       81.820       21.841        0.071      344.764       21.812      863.342
08/26/2014  21:09:00      -49.659      -34.291        4.872       46.041       34.919       27.249     2119.791     1219.315      742.535        0.387        0.204       60.348       24.382        0.163      344.722       21.744      863.357
08/26/2014  21:10:00      -66.148      -68.250        7.325       52.436       31.882       26.039     2749.522     1016.454      678.021        0.676        0.222       95.045       21.068        0.049      344.704       21.711      863.362
08/26/2014  21:11:00      -73.537      -61.550        6.141       40.772       31.758       23.514     1662.373     1008.557      552.909        0.623        0.161       95.896       19.460        0.041      344.701       21.707      863.373
08/26/2014  21:12:00      -74.378      -61.646        2.852       39.676       29.978       22.115     1574.163      898.671      489.064        0.615        0.148       96.604       16.847        0.030      344.695       21.698      863.377
08/26/2014  21:13:00      -58.438      -42.392        3.928       50.568       45.120       24.160     2557.090     2035.787      583.686        0.520        0.259       72.195       24.506        0.115      344.658       21.633      863.387
08/26/2014  21:14:00      -88.312      -71.714       -2.422       45.451       30.515       26.392     2065.753      931.137      696.543        0.832        0.185      113.762       23.022        0.041      344.674       21.658      863.379
08/26/2014  21:15:00      -85.259      -71.149        1.451       41.733       37.410       26.296     1741.668     1399.523      691.460        0.808        0.192      111.046       26.420        0.057      344.627       21.580      863.391
08/26/2014  21:16:00      -79.806      -70.771        0.099       48.182       36.089       21.199     2321.458     1302.442      449.385        0.772        0.204      106.665       12.345        0.013      344.581       21.502      863.399
08/26/2014  21:17:00      -61.409      -53.180        5.528       54.922       33.185       26.760     3016.437     1101.273      716.079        0.573        0.242       81.235       30.724        0.143      344.536       21.424      863.418
08/26/2014  21:18:00      -33.878      -34.346       13.389       41.025       36.072       24.959     1683.062     1301.176      622.973        0.306        0.180       48.243       25.004        0.269      344.547       21.444      863.429
08/26/2014  21:19:00      -61.742      -52.684       -0.896       48.262       34.756       23.146     2329.204     1207.978      535.738        0.533        0.204       81.165       22.572        0.077      344.552       21.453      863.446
08/26/2014  21:20:00      -61.091      -55.180        5.982       48.065       35.340       25.322     2310.237     1248.907      641.227        0.551        0.210       82.322       22.427        0.074      344.544       21.438      863.448
08/26/2014  21:21:00      -63.423      -45.862        3.285       43.627       34.442       28.166     1903.278     1186.257      793.340        0.501        0.194       78.267       28.913        0.136      344.492       21.349      863.464
08/26/2014  21:22:00      -80.794      -69.227        3.839       48.558       37.640       25.154     2357.923     1416.799      632.743        0.787        0.220      106.396       27.970        0.069      344.511       21.381      863.461
08/26/2014  21:23:00      -72.011      -56.112        0.764       48.893       44.349       28.554     2390.541     1966.866      815.314        0.675        0.259       91.291       26.225        0.083      344.473       21.316      863.475
08/26/2014  21:24:00      -86.306      -64.431        6.883       39.939       37.314       24.693     1595.147     1392.355      609.727        0.762        0.180      107.704       21.336        0.039      344.507       21.376      863.474
08/26/2014  21:25:00      -89.318      -79.309       -2.222       41.612       35.557       24.730     1731.600     1264.291      611.564        0.894        0.180      119.447       21.176        0.031      344.561       21.468      863.479
08/26/2014  21:26:00      -94.053      -73.398        0.374       42.568       33.846       22.944     1812.062     1145.555      526.445        0.886        0.174      119.303       17.352        0.021      344.496       21.356      863.486
08/26/2014  21:27:00      -64.786      -70.414        5.999       40.891       37.160       27.995     1672.067     1380.873      783.721        0.651        0.192       95.683       22.547        0.056      344.425       21.235      863.489
08/26/2014  21:28:00      -64.294      -61.260        5.097       42.473       40.177       23.473     1803.997     1614.177      550.958        0.594        0.198       88.806       23.249        0.069      344.438       21.258      863.498
08/26/2014  21:29:00      -57.410      -44.188       -1.298       36.958       33.346       16.037     1365.924     1111.963      257.180        0.399        0.137       72.446       17.708        0.060      344.414       21.215      863.501
08/26/2014  21:30:00      -50.744      -38.931        6.971       41.092       32.482       18.203     1688.580     1055.104      331.332        0.361        0.154       63.957       18.473        0.083      344.335       21.079      863.504
08/26/2014  21:31:00      -93.207      -38.010        1.707       24.241       21.965       14.075      587.634      482.467      198.092        0.570        0.063      100.659       11.121        0.012      344.296       21.015      863.504
08/26/2014  21:32:00      -79.702      -51.660       -0.099       33.424       23.603       17.415     1117.191      557.122      303.275        0.550        0.099       94.980       19.914        0.044      344.349       21.104      863.521
08/26/2014  21:33:00     -110.142      -31.473       -2.869       25.825       19.385       14.178      666.920      375.774      201.015        0.719        0.062      114.551        9.769        0.007      344.309       21.037      863.521
08/26/2014  21:34:00     -105.355      -43.806       -3.846       32.219       20.176       18.203     1038.080      407.091      331.364        0.740        0.089      114.100       18.152        0.025      344.283       20.990      863.529
08/26/2014  21:35:00      -86.884      -54.534        0.484       43.731       30.445       22.857     1912.435      926.892      522.428        0.694        0.168      102.580       19.231        0.035      344.255       20.945      863.521
08/26/2014  21:36:00     -102.338      -58.354       -0.862       34.021       28.515       26.104     1157.443      813.083      681.440        0.826        0.133      117.806       21.600        0.034      344.255       20.943      863.530
08/26/2014  21:37:00      -69.652      -39.293        3.792       50.938       35.692       25.495     2594.708     1273.952      649.987        0.546        0.226       79.971       26.048        0.106      344.192       20.836      863.526
08/26/2014  21:38:00      -67.182      -50.081        3.250       49.338       19.615       21.840     2434.260      384.751      476.991        0.516        0.165       83.795       26.232        0.098      344.229       20.900      863.528
08/26/2014  21:39:00      -83.381      -75.467        3.758       56.200       39.356       31.764     3158.435     1548.858     1008.961        0.919        0.286      112.462       32.538        0.084      344.287       21.000      863.526
08/26/2014  21:40:00      -54.557      -63.234        2.461       59.184       34.798       27.242     3502.791     1210.873      742.142        0.622        0.273       83.517       27.559        0.109      344.323       21.061      863.527
08/26/2014  21:41:00      -81.137      -68.294        2.371       44.186       31.942       27.145     1952.370     1020.260      736.856        0.748        0.185      106.053       23.850        0.051      344.339       21.089      863.535
08/26/2014  21:42:00      -90.610      -72.502        9.479       52.394       40.898       28.510     2745.092     1672.633      812.844        0.939        0.262      116.046       30.323        0.068      344.239       20.916      863.532
08/26/2014  21:43:00     -146.443      -95.043       -5.876       29.702       34.620       18.917      882.229     1198.553      357.849        1.648        0.122      174.581       16.614        0.009      344.359       21.122      863.546
08/26/2014  21:44:00     -105.636      -73.896        1.488       46.168       35.213       18.496     2131.447     1239.986      342.100        1.017        0.186      128.917       21.022        0.027      344.296       21.014      863.548
08/26/2014  21:45:00     -105.305      -56.880        1.673       35.473       31.073       21.696     1258.350      965.537      470.699        0.851        0.135      119.685       18.172        0.023      344.238       20.915      863.555
08/26/2014  21:46:00      -52.340      -42.400        6.717       44.275       25.468       19.161     1960.294      648.627      367.146        0.378        0.149       67.359       19.800        0.086      344.152       20.768      863.561
08/26/2014  21:47:00      -78.947      -44.111        1.365       26.051       23.329       19.546      678.659      544.252      382.048        0.489        0.080       90.435       15.804        0.031      344.190       20.833      863.564
08/26/2014  21:48:00     -106.116      -23.547       -4.530       29.524       26.809       17.061      871.689      718.717      291.078        0.686        0.094      108.697       16.631        0.023      344.098       20.675      863.582
08/26/2014  21:49:00      -78.481      -21.483        0.121       37.677       26.311       16.837     1419.520      692.266      283.484        0.451        0.120       81.368       14.549        0.032      344.084       20.652      863.601
08/26/2014  21:50:00      -75.607      -25.175        2.507       30.963       26.779       14.042      958.693      717.137      197.185        0.411        0.094       79.688       13.722        0.030      344.065       20.620      863.612
08/26/2014  21:51:00     -105.045      -15.694        0.990       28.998       23.834       16.402      840.893      568.049      269.031        0.648        0.084      106.211       16.551        0.024      344.009       20.524      863.629
08/26/2014  21:52:00     -115.281      -25.203      -12.827       22.959       17.150       14.591      527.112      294.120      212.905        0.756        0.052      118.004       11.342        0.009      343.954       20.431      863.632
08/26/2014  21:53:00      -98.713       -9.293       -2.883       43.628       19.766       21.988     1903.393      390.697      483.455        0.631        0.139       99.150       24.335        0.060      343.876       20.296      863.643
08/26/2014  21:54:00      -89.072      -16.482        0.217       32.819       27.258       17.864     1077.093      742.993      319.127        0.517        0.107       90.584       16.654        0.034      343.794       20.157      863.653
08/26/2014  21:55:00     -114.404      -17.125       -9.823       34.068       21.579       20.320     1160.651      465.652      412.885        0.776        0.102      115.678       19.469        0.028      343.790       20.151      863.655
08/26/2014  21:56:00      -69.179        5.061       -0.967       46.952       36.183       23.203     2204.515     1309.222      538.388        0.443        0.203       69.363       25.239        0.132      343.721       20.031      863.667
08/26/2014  21:57:00      -85.096       -3.577        3.800       46.230       41.292       26.294     2137.192     1705.059      691.353        0.590        0.227       85.171       26.100        0.094      343.738       20.062      863.658
08/26/2014  21:58:00     -131.079       10.553       -4.344       35.018       26.742       19.137     1226.231      715.138      366.212        0.981        0.115      131.504       15.765        0.014      343.958       20.436      863.663
08/26/2014  21:59:00     -120.136       -9.259       -1.418       24.385       32.935       15.957      594.637     1084.693      254.616        0.823        0.097      120.492       13.444        0.012      344.025       20.551      863.676
08/26/2014  22:00:00     -116.415      -50.048       -0.525       30.187       18.060       13.844      911.226      326.150      191.661        0.874        0.071      126.717        9.608        0.006      344.128       20.727      863.671
08/26/2014  22:01:00     -114.290      -48.796        3.902       28.819       19.568       18.081      830.557      382.893      326.927        0.850        0.077      124.271       18.174        0.021      344.038       20.573      863.682
08/26/2014  22:02:00     -114.299      -57.721       -6.547       22.710       20.888       16.301      515.743      436.311      265.730        0.883        0.061      128.047       12.721        0.010      344.060       20.611      863.689
08/26/2014  22:03:00     -109.516      -65.712       -2.692       33.452       23.762       18.897     1119.013      564.655      357.080        0.918        0.102      127.718       14.758        0.013      344.062       20.613      863.687
08/26/2014  22:04:00      -93.105      -53.589       -2.875       49.237       25.640       18.954     2424.238      657.390      359.241        0.749        0.172      107.426       24.141        0.050      344.048       20.590      863.699
08/26/2014  22:05:00     -129.010      -56.542        0.227       45.374       41.550       21.032     2058.791     1726.440      442.357        1.203        0.211      140.857       22.582        0.026      344.086       20.655      863.706
08/26/2014  22:06:00     -132.485      -54.367       -2.805       36.163       33.924       17.152     1307.767     1150.824      294.186        1.163        0.138      143.206       14.813        0.011      344.071       20.630      863.710
08/26/2014  22:07:00     -156.179      -65.786       -1.104       42.942       33.953       19.870     1843.992     1152.808      394.808        1.606        0.170      169.469       22.242        0.017      344.145       20.755      863.720
08/26/2014  22:08:00     -153.342      -60.450        3.911       42.811       32.677       24.859     1832.786     1067.781      617.993        1.535        0.176      164.827       26.260        0.025      344.098       20.676      863.717
08/26/2014  22:09:00     -159.035      -85.951        2.730       49.419       36.452       26.034     2442.193     1328.776      677.745        1.857        0.222      180.775       23.951        0.018      344.107       20.691      863.726
08/26/2014  22:10:00     -146.696      -67.659        6.239       63.009       46.736       31.725     3970.167     2184.229     1006.479        1.665        0.358      161.548       35.167        0.047      343.989       20.488      863.723
08/26/2014  22:11:00     -133.832      -90.931        9.357       59.230       41.762       32.631     3508.219     1744.027     1064.812        1.629        0.316      161.800       32.073        0.039      343.979       20.472      863.728
08/26/2014  22:12:00     -162.355     -104.950       -8.772       66.284       45.420       31.381     4393.631     2062.974      984.749        2.244        0.372      193.322       29.403        0.023      343.987       20.484      863.739
08/26/2014  22:13:00     -119.940      -91.215        0.682       57.456       49.233       30.914     3301.211     2423.862      955.661        1.469        0.334      150.684       35.037        0.054      343.917       20.365      863.734
08/26/2014  22:14:00     -118.844      -92.928        3.863       60.421       55.353       37.851     3650.672     3063.965     1432.669        1.546        0.407      150.863       36.364        0.058      343.931       20.390      863.744
08/26/2014  22:15:00     -130.207     -122.969       -5.195       48.733       48.125       32.366     2374.868     2315.975     1047.529        1.892        0.287      179.095       32.305        0.033      344.007       20.520      863.758
08/26/2014  22:16:00      -98.602     -108.635       -5.741       57.335       52.954       29.233     3287.317     2804.093      854.575        1.425        0.347      146.710       34.065        0.054      344.019       20.541      863.761
08/26/2014  22:17:00      -99.753      -98.413       -3.094       54.204       46.985       29.702     2938.068     2207.578      882.183        1.284        0.301      140.128       31.125        0.049      343.906       20.347      863.762
08/26/2014  22:18:00     -100.946      -76.463       -4.635       34.219       33.651       21.645     1170.919     1132.413      468.519        0.941        0.139      126.637       21.663        0.029      343.894       20.327      863.782
08/26/2014  22:19:00      -81.531      -37.706       -4.240       44.408       27.497       17.607     1972.048      756.107      310.007        0.556        0.152       89.827       20.245        0.051      343.839       20.234      863.782
08/26/2014  22:20:00      -87.388      -25.722       -0.966       44.160       25.602       15.140     1950.081      655.438      229.218        0.557        0.142       91.095       16.252        0.032      343.827       20.214      863.787
08/26/2014  22:21:00      -94.247      -15.027       -4.797       28.757       23.556       15.894      826.986      554.885      252.617        0.538        0.082       95.438       11.310        0.014      343.771       20.119      863.806
08/26/2014  22:22:00      -71.358      -22.527        6.315       31.001       23.691       15.267      961.053      561.265      233.071        0.370        0.088       74.829       10.571        0.020      343.716       20.024      863.809
08/26/2014  22:23:00     -103.693      -27.702        0.882       35.865       22.677       16.862     1286.301      514.257      284.328        0.680        0.104      107.329       17.018        0.025      343.752       20.085      863.829
08/26/2014  22:24:00     -137.160      -31.676        3.656       25.532       26.621       15.713      651.875      708.682      246.899        1.072        0.080      140.771       13.435        0.009      343.798       20.162      863.833
08/26/2014  22:25:00     -112.189      -42.580        7.355       32.203       29.618       16.807     1037.034      877.205      282.484        0.832        0.110      119.997       13.247        0.012      343.746       20.072      863.829
08/26/2014  22:26:00     -108.234      -48.496       -2.103       52.488       32.226       19.374     2755.012     1038.538      375.366        0.912        0.208      118.602       20.262        0.029      343.802       20.170      863.842
08/26/2014  22:27:00      -90.566      -47.304        0.299       61.423       26.044       21.159     3772.836      678.303      447.688        0.767        0.245      102.176       29.570        0.084      343.822       20.204      863.848
08/26/2014  22:28:00     -103.415      -44.585       -0.250       52.007       28.338       22.525     2704.746      803.020      507.374        0.835        0.201      112.617       27.702        0.061      343.727       20.041      863.863
08/26/2014  22:29:00      -75.832      -41.579        5.061       59.994       27.898       24.390     3599.249      778.277      594.848        0.624        0.249       86.484       33.358        0.149      343.668       19.942      863.875
08/26/2014  22:30:00      -52.581      -43.729        7.136       36.538       23.377       18.173     1335.034      546.475      330.251        0.347        0.111       68.388       19.183        0.079      343.587       19.804      863.880
08/26/2014  22:31:00      -42.549      -49.692       11.496       28.664       27.235       19.725      821.652      741.751      389.057        0.318        0.098       65.420       16.799        0.066      343.666       19.937      863.892
08/26/2014  22:32:00      -27.066      -42.776        7.805       41.850       23.332       20.797     1751.463      544.371      432.521        0.268        0.136       50.619       18.717        0.137      343.710       20.013      863.898
08/26/2014  22:33:00      -42.548      -39.998        3.321       40.572       17.594       15.388     1646.078      309.546      236.799        0.281        0.110       58.397       10.739        0.034      343.634       19.882      863.905
08/26/2014  22:34:00      -20.367      -35.700       10.920       23.379       16.582       14.068      546.579      274.968      197.921        0.141        0.051       41.101       11.125        0.073      343.661       19.929      863.920
08/26/2014  22:35:00      -79.568      -32.259       -2.599       26.858       17.856       16.161      721.343      318.851      261.174        0.434        0.065       85.859       15.242        0.032      343.678       19.956      863.938
08/26/2014  22:36:00      -75.489      -33.825       -9.068       17.527       17.610       11.444      307.202      310.108      130.975        0.384        0.037       82.721        7.875        0.009      343.674       19.949      863.946
08/26/2014  22:37:00      -87.471      -50.728       -1.165       26.836       17.638       12.739      720.152      311.114      162.284        0.571        0.060      101.117        9.516        0.009      343.709       20.012      863.956
08/26/2014  22:38:00      -36.776      -28.122        6.620       30.742       21.283       22.347      945.071      452.957      499.390        0.204        0.095       46.296       16.566        0.128      343.622       19.863      863.970
08/26/2014  22:39:00      -56.258      -33.767        5.604       31.843       26.978       20.662     1013.998      727.827      426.900        0.325        0.108       65.614       18.777        0.082      343.546       19.733      863.976
08/26/2014  22:40:00      -70.638      -42.742        6.106       38.007       31.254       19.231     1444.516      976.810      369.819        0.482        0.140       82.563       21.322        0.067      343.572       19.779      863.969
08/26/2014  22:41:00      -98.234      -49.402        1.108       27.631       19.555       14.635      763.485      382.387      214.185        0.673        0.068      109.957       14.158        0.017      343.569       19.772      863.975
08/26/2014  22:42:00     -101.748      -46.097       -4.519       30.586       20.580       13.232      935.505      423.526      175.081        0.702        0.077      111.703       13.126        0.014      343.548       19.737      863.974
08/26/2014  22:43:00      -66.003      -30.998        6.191       44.807       25.457       19.977     2007.686      648.063      399.081        0.420        0.153       72.920       18.692        0.066      343.565       19.766      863.966
08/26/2014  22:44:00     -103.574      -52.945        1.947       42.517       29.182       18.364     1807.722      851.591      337.250        0.826        0.150      116.322       17.393        0.022      343.582       19.795      863.975
08/26/2014  22:45:00     -122.335      -60.582       -0.364       36.129       26.688       19.213     1305.277      712.246      369.123        1.051        0.119      136.514       18.998        0.019      343.603       19.830      863.970
08/26/2014  22:46:00     -141.203      -65.024        0.572       30.341       21.724       18.687      920.577      471.928      349.198        1.295        0.087      155.456       17.882        0.013      343.604       19.832      863.965
08/26/2014  22:47:00     -135.493      -63.264        0.044       28.599       24.984       18.692      817.928      624.202      349.388        1.208        0.090      149.535       16.472        0.012      343.551       19.743      863.971
08/26/2014  22:48:00      -91.534      -49.899        3.373       34.841       39.113       22.076     1213.889     1529.794      487.341        0.705        0.162      104.251       20.768        0.040      343.369       19.433      863.972
08/26/2014  22:49:00     -119.562      -23.852       -9.734       37.797       22.324       15.468     1428.620      498.353      239.254        0.856        0.108      121.918       15.543        0.016      343.282       19.284      863.975
08/26/2014  22:50:00     -105.207      -37.303       -7.405       18.679       22.356       11.921      348.889      499.778      142.103        0.675        0.050      111.624        6.106        0.003      343.272       19.266      863.980
08/26/2014  22:51:00     -110.174      -46.029       -1.038       28.420       26.505       16.377      807.713      702.540      268.201        0.802        0.089      119.403       16.757        0.020      343.316       19.341      863.990
08/26/2014  22:52:00     -106.589      -42.606       -4.561       28.990       21.292       12.374      840.399      453.365      153.114        0.732        0.072      114.789       13.225        0.013      343.336       19.375      863.984
08/26/2014  22:53:00     -118.631      -38.656      -17.836       15.292       15.457       12.740      233.856      238.910      162.320        0.826        0.032      124.770        8.576        0.005      343.327       19.359      863.984
08/26/2014  22:54:00     -120.129      -37.021       -6.155       17.007       14.528       11.092      289.246      211.076      123.042        0.823        0.031      125.704        8.450        0.005      343.413       19.507      863.988
08/26/2014  22:55:00      -90.853      -32.908       -7.717       22.863       17.265       11.074      522.719      298.089      122.642        0.517        0.047       96.629        7.878        0.007      343.402       19.487      864.005
08/26/2014  22:56:00      -97.244      -28.686        0.758       20.801       17.075       13.526      432.701      291.568      182.959        0.559        0.045      101.387       13.136        0.017      343.399       19.484      864.004
08/26/2014  22:57:00     -108.634      -31.280       -3.545       16.381       14.800       12.201      268.350      219.036      148.856        0.671        0.032      113.048        7.497        0.004      343.345       19.392      864.005
08/26/2014  22:58:00     -111.141      -24.724       -8.730       22.512       14.783       16.178      506.794      218.535      261.725        0.701        0.049      113.858       11.682        0.011      343.360       19.416      864.011
08/26/2014  22:59:00      -90.280      -17.998       -7.210       19.561       18.845       13.488      382.642      355.119      181.938        0.472        0.046       92.057        9.819        0.011      343.287       19.293      864.012
08/26/2014  23:00:00      -77.287      -16.095        0.968       30.847       22.289       19.536      951.534      496.790      381.637        0.403        0.091       78.945       16.521        0.044      343.174       19.101      864.007
08/26/2014  23:01:00      -73.232      -22.487       -1.138       24.215       18.051       12.316      586.368      325.853      151.674        0.347        0.053       76.607       11.766        0.024      343.228       19.191      864.017
08/26/2014  23:02:00      -72.433      -27.729        0.620       25.558       16.309       12.688      653.212      265.974      160.978        0.355        0.054       77.560       13.554        0.031      343.280       19.281      864.029
08/26/2014  23:03:00      -80.443      -20.305       -4.040       18.412       12.903        9.986      339.004      166.495       99.710        0.375        0.030       82.966        7.932        0.009      343.321       19.351      864.032
08/26/2014  23:04:00      -99.133      -19.879       -9.184       31.325       16.201       14.612      981.281      262.481      213.516        0.588        0.073      101.106       13.112        0.017      343.307       19.326      864.037
08/26/2014  23:05:00     -126.871      -26.671       -9.899       32.770       16.202       14.808     1073.902      262.506      219.263        0.923        0.078      129.644       14.701        0.013      343.272       19.267      864.045
08/26/2014  23:06:00     -137.698      -55.271      -10.664       16.338       22.641       12.673      266.928      512.615      160.607        1.153        0.047      148.377        9.223        0.004      343.129       19.023      864.044
08/26/2014  23:07:00     -115.487      -71.593       -9.695       32.058       21.453       16.950     1027.703      460.225      287.310        1.017        0.089      135.878       13.999        0.011      343.018       18.835      864.045
08/26/2014  23:08:00     -129.811      -62.863      -12.082       35.939       14.975       15.632     1291.585      224.261      244.363        1.135        0.088      144.232       15.738        0.012      342.959       18.734      864.055
08/26/2014  23:09:00     -128.121      -43.509       -7.340       22.782       25.130       14.419      519.003      631.542      207.921        0.986        0.068      135.307       11.216        0.007      342.953       18.724      864.067
08/26/2014  23:10:00     -111.059      -55.446       -6.454       18.730       21.363       11.652      350.815      456.386      135.764        0.820        0.047      124.131        5.117        0.002      342.963       18.741      864.067
08/26/2014  23:11:00     -102.698      -58.888       -7.548       22.328       13.420       10.079      498.523      180.098      101.583        0.743        0.039      118.384        8.811        0.006      342.996       18.795      864.067
08/26/2014  23:12:00      -88.564      -51.400       -5.673       23.358       18.650       14.141      545.599      347.836      199.956        0.581        0.055      102.399        9.791        0.009      342.910       18.650      864.077
08/26/2014  23:13:00      -95.576      -37.665       -8.030       14.990       17.196       11.382      224.706      295.700      129.561        0.563        0.032      102.730        8.343        0.007      342.873       18.586      864.092
08/26/2014  23:14:00      -98.209      -27.226       -6.440       27.931       18.004       15.075      780.130      324.154      227.246        0.588        0.067      101.913       16.573        0.026      342.950       18.719      864.096
08/26/2014  23:15:00      -91.618      -14.503       -5.553       19.649       11.989       10.827      386.096      143.742      117.224        0.464        0.032       92.758        8.508        0.008      343.024       18.845      864.095
08/26/2014  23:16:00      -72.704      -34.634        0.401       19.844       10.905        9.377      393.765      118.918       87.919        0.354        0.030       80.532        6.449        0.006      342.991       18.789      864.103
08/26/2014  23:17:00      -49.893      -22.677        2.378       24.362       13.872       13.797      593.490      192.438      190.350        0.199        0.049       54.805       14.784        0.073      342.938       18.697      864.107
08/26/2014  23:18:00      -66.973      -34.607       -3.460       18.161       20.721       11.945      329.840      429.376      142.691        0.330        0.045       75.386       10.038        0.018      343.017       18.834      864.100
08/26/2014  23:19:00      -67.671      -64.344       -2.579       29.264       18.676       14.221      856.371      348.782      202.245        0.507        0.070       93.378        8.252        0.008      343.026       18.848      864.100
08/26/2014  23:20:00       -8.155      -36.003        8.082       22.509       32.064       15.013      506.673     1028.087      225.396        0.159        0.088       36.915       16.180        0.192      342.999       18.801      864.108
08/26/2014  23:21:00      -33.119      -26.643        1.994       40.458       21.930       11.010     1636.873      480.930      121.223        0.202        0.112       42.505        2.138        0.003      342.990       18.786      864.101
08/26/2014  23:22:00      -40.613      -27.646        4.861       26.135       18.093       15.517      683.038      327.347      240.784        0.184        0.063       49.130       16.487        0.113      342.861       18.568      864.097
08/26/2014  23:23:00      -49.534      -34.260       -1.746       26.321       15.400       15.134      692.816      237.160      229.040        0.239        0.058       60.228       14.496        0.058      342.846       18.540      864.107
08/26/2014  23:24:00      -92.635      -35.275      -10.862       11.433       13.309        9.672      130.706      177.124       93.550        0.517        0.020       99.124        4.795        0.002      342.832       18.518      864.108
08/26/2014  23:25:00     -105.219      -40.236       -9.498        9.813       11.545        9.780       96.292      133.295       95.655        0.655        0.016      112.650        2.712        0.001      342.823       18.503      864.106
08/26/2014  23:26:00      -93.453      -43.664        0.483       25.970       24.374       17.491      674.435      594.094      305.948        0.611        0.079      103.151       14.358        0.019      342.846       18.541      864.101
08/26/2014  23:27:00      -58.341      -37.208        6.279       40.015       23.528       21.120     1601.175      553.577      446.051        0.371        0.130       69.196       20.090        0.084      342.755       18.387      864.099
08/26/2014  23:28:00      -92.777      -43.918        0.737       33.702       23.558       18.104     1135.817      554.994      327.765        0.628        0.101      102.647       15.955        0.024      342.752       18.381      864.099
08/26/2014  23:29:00      -90.748      -51.704        3.357       46.177       22.607       20.125     2132.320      511.063      405.013        0.698        0.152      104.444       17.674        0.029      342.746       18.371      864.094
08/26/2014  23:30:00      -83.555      -55.643        1.096       37.041       28.788       20.935     1372.032      828.738      438.289        0.636        0.132      100.387       16.009        0.025      342.699       18.291      864.090
08/26/2014  23:31:00      -70.708      -50.530        5.298       43.165       24.271       19.743     1863.224      589.091      389.773        0.521        0.142       86.907       16.174        0.035      342.673       18.246      864.094
08/26/2014  23:32:00      -77.288      -45.674        6.922       40.777       26.384       18.295     1662.728      696.099      334.696        0.540        0.135       89.775       18.444        0.042      342.625       18.165      864.094
08/26/2014  23:33:00     -117.458      -60.559        1.548       35.422       30.293       19.910     1254.724      917.673      396.402        1.002        0.128      132.150       16.957        0.016      342.719       18.325      864.093
08/26/2014  23:34:00     -127.101      -55.213        3.877       36.720       34.576       25.906     1348.355     1195.480      671.099        1.122        0.161      138.576       25.776        0.035      342.741       18.363      864.096
08/26/2014  23:35:00      -78.367      -42.849        8.132       48.292       31.173       19.658     2332.075      971.739      386.423        0.587        0.185       89.316       19.557        0.048      342.730       18.344      864.106
08/26/2014  23:36:00      -84.423      -53.325        6.104       39.446       31.580       21.463     1555.989      997.265      460.672        0.651        0.151       99.854       21.476        0.046      342.761       18.397      864.103
08/26/2014  23:37:00     -114.883      -75.452        8.514       37.893       31.021       21.247     1435.848      962.310      451.420        1.091        0.142      137.445       22.332        0.026      342.772       18.416      864.109
08/26/2014  23:38:00     -124.930      -53.170        2.728       43.088       31.318       22.716     1856.582      980.841      516.006        1.090        0.168      135.774       23.481        0.030      342.746       18.371      864.116
08/26/2014  23:39:00     -101.960      -44.541        4.256       49.167       24.407       17.913     2417.439      595.720      320.885        0.787        0.167      111.264       15.370        0.019      342.702       18.297      864.116
08/26/2014  23:40:00     -109.205      -58.638        1.642       39.200       29.994       23.717     1536.643      899.636      562.518        0.918        0.150      123.953       23.684        0.037      342.662       18.230      864.122
08/26/2014  23:41:00     -119.406      -73.108        0.323       28.163       22.781       16.977      793.140      518.970      288.213        1.060        0.080      140.009       12.631        0.008      342.694       18.283      864.131
08/26/2014  23:42:00      -87.068      -60.329        5.004       32.542       31.127       19.871     1059.010      968.884      394.853        0.683        0.121      105.927       17.979        0.029      342.668       18.240      864.131
08/26/2014  23:43:00      -91.717      -66.694        5.932       46.320       28.183       23.503     2145.572      794.289      552.392        0.819        0.175      113.403       19.385        0.029      342.682       18.262      864.126
08/26/2014  23:44:00      -92.238      -52.315        4.150       39.415       30.158       23.954     1553.577      909.534      573.811        0.715        0.152      106.041       21.996        0.043      342.672       18.245      864.134
08/26/2014  23:45:00     -108.109      -59.991        3.855       41.508       30.443       22.504     1722.935      926.760      506.429        0.923        0.158      123.639       22.749        0.034      342.671       18.245      864.136
08/26/2014  23:46:00      -81.599      -57.966        4.565       39.418       24.799       19.394     1553.772      614.975      376.136        0.629        0.127      100.093       18.473        0.034      342.600       18.123      864.137
08/26/2014  23:47:00      -95.900      -60.591        5.685       49.689       27.339       27.283     2469.014      747.417      744.377        0.843        0.198      113.438       24.300        0.046      342.594       18.112      864.147
08/26/2014  23:48:00     -114.032      -53.175       -0.738       30.936       31.741       18.445      957.058     1007.486      340.222        0.907        0.115      125.821       12.538        0.010      342.563       18.060      864.145
08/26/2014  23:49:00      -99.366      -56.875        0.286       45.823       29.116       20.705     2099.716      847.745      428.695        0.824        0.169      114.492       23.722        0.043      342.540       18.021      864.144
08/26/2014  23:50:00      -66.206      -39.414        2.865       39.796       33.199       24.430     1583.743     1102.189      596.824        0.461        0.164       77.050       21.820        0.080      342.486       17.930      864.159
08/26/2014  23:51:00      -38.549      -31.622        9.633       43.706       24.603       22.048     1910.225      605.319      486.135        0.279        0.150       49.860       20.827        0.174      342.432       17.837      864.169
08/26/2014  23:52:00      -60.811      -54.073        3.396       36.574       24.992       22.615     1337.673      624.596      511.445        0.455        0.124       81.375       17.772        0.048      342.442       17.855      864.163
08/26/2014  23:53:00      -32.217      -38.945        9.921       41.676       26.368       16.330     1736.883      695.288      266.675        0.268        0.135       50.544       15.734        0.097      342.452       17.872      864.173
08/26/2014  23:54:00      -67.008      -47.392        3.404       36.379       22.802       20.629     1323.456      519.933      425.555        0.451        0.113       82.074       15.951        0.038      342.455       17.876      864.176
08/26/2014  23:55:00      -48.669      -43.377        7.336       42.264       22.120       16.958     1786.272      489.308      287.563        0.343        0.128       65.194       12.457        0.037      342.442       17.853      864.171
08/26/2014  23:56:00      -90.952      -52.187        1.748       42.066       26.281       20.799     1769.517      690.700      432.606        0.695        0.145      104.860       21.815        0.043      342.359       17.712      864.172
08/26/2014  23:57:00     -106.349      -42.536        3.842       33.497       26.421       15.653     1122.043      698.076      245.014        0.760        0.103      114.540       14.167        0.015      342.392       17.770      864.181
08/26/2014  23:58:00      -60.522      -42.249        5.332       48.629       29.559       19.665     2364.771      873.755      386.709        0.455        0.181       73.809       15.946        0.047      342.442       17.855      864.175
08/26/2014  23:59:00      -84.692      -53.460        3.304       42.201       24.749       16.175     1780.941      612.493      261.634        0.635        0.133      100.153       11.827        0.014      342.386       17.758      864.178
